<?xml version="1.0" encoding="UTF-8" standalone="no" ?>
<gpx xmlns="http://www.topografix.com/GPX/1/1" xmlns:xsi="http://www.w3.org/2001/XMLSchema-instance" xsi:schemaLocation="http://www.topografix.com/GPX/1/1 http://www.topografix.com/GPX/1/1/gpx.xsd" version="1.1" creator="VisuGPX - https://www.visugpx.com">
  <metadata>
    <name>ST_RAD-INI_19km  -600m</name>
    <desc><![CDATA[sortie longue sans trop de dénivelé]]></desc>
  </metadata>
  <trk>
    <name><![CDATA[2014-12-14T08:21:34Z]]></name>
    <trkseg>
      <trkpt lat="44.3356" lon="2.62932">
        <ele>642.2980957</ele>
        <time>2014-12-14T08:21:34Z</time>
      </trkpt>
      <trkpt lat="44.33563" lon="2.62943">
        <ele>644.7011719</ele>
        <time>2014-12-14T08:21:39Z</time>
      </trkpt>
      <trkpt lat="44.33568" lon="2.6296">
        <ele>648.5463867</ele>
        <time>2014-12-14T08:21:43Z</time>
      </trkpt>
      <trkpt lat="44.33572" lon="2.62977">
        <ele>647.5852051</ele>
        <time>2014-12-14T08:21:48Z</time>
      </trkpt>
      <trkpt lat="44.33574" lon="2.62999">
        <ele>652.3918457</ele>
        <time>2014-12-14T08:21:53Z</time>
      </trkpt>
      <trkpt lat="44.33576" lon="2.63011">
        <ele>651.9111328</ele>
        <time>2014-12-14T08:21:57Z</time>
      </trkpt>
      <trkpt lat="44.33576" lon="2.63024">
        <ele>650.949707</ele>
        <time>2014-12-14T08:22:01Z</time>
      </trkpt>
      <trkpt lat="44.33577" lon="2.63035">
        <ele>651.4304199</ele>
        <time>2014-12-14T08:22:05Z</time>
      </trkpt>
      <trkpt lat="44.33571" lon="2.63039">
        <ele>648.5463867</ele>
        <time>2014-12-14T08:22:08Z</time>
      </trkpt>
      <trkpt lat="44.33566" lon="2.63051">
        <ele>644.7011719</ele>
        <time>2014-12-14T08:22:12Z</time>
      </trkpt>
      <trkpt lat="44.33564" lon="2.6306">
        <ele>642.7788086</ele>
        <time>2014-12-14T08:22:15Z</time>
      </trkpt>
      <trkpt lat="44.3356" lon="2.63072">
        <ele>641.3366699</ele>
        <time>2014-12-14T08:22:18Z</time>
      </trkpt>
      <trkpt lat="44.33558" lon="2.63091">
        <ele>639.8947754</ele>
        <time>2014-12-14T08:22:23Z</time>
      </trkpt>
      <trkpt lat="44.33554" lon="2.63109">
        <ele>638.4528809</ele>
        <time>2014-12-14T08:22:28Z</time>
      </trkpt>
      <trkpt lat="44.3355" lon="2.63119">
        <ele>638.4528809</ele>
        <time>2014-12-14T08:22:31Z</time>
      </trkpt>
      <trkpt lat="44.33546" lon="2.63126">
        <ele>638.9335938</ele>
        <time>2014-12-14T08:22:33Z</time>
      </trkpt>
      <trkpt lat="44.33537" lon="2.63146">
        <ele>639.4140625</ele>
        <time>2014-12-14T08:22:39Z</time>
      </trkpt>
      <trkpt lat="44.33535" lon="2.63152">
        <ele>640.3754883</ele>
        <time>2014-12-14T08:22:41Z</time>
      </trkpt>
      <trkpt lat="44.33528" lon="2.63169">
        <ele>641.3366699</ele>
        <time>2014-12-14T08:22:46Z</time>
      </trkpt>
      <trkpt lat="44.33525" lon="2.63185">
        <ele>641.8173828</ele>
        <time>2014-12-14T08:22:50Z</time>
      </trkpt>
      <trkpt lat="44.33523" lon="2.63192">
        <ele>641.8173828</ele>
        <time>2014-12-14T08:22:52Z</time>
      </trkpt>
      <trkpt lat="44.33517" lon="2.63218">
        <ele>641.8173828</ele>
        <time>2014-12-14T08:22:59Z</time>
      </trkpt>
      <trkpt lat="44.33513" lon="2.63229">
        <ele>641.8173828</ele>
        <time>2014-12-14T08:23:02Z</time>
      </trkpt>
      <trkpt lat="44.33507" lon="2.63245">
        <ele>640.855957</ele>
        <time>2014-12-14T08:23:07Z</time>
      </trkpt>
      <trkpt lat="44.33506" lon="2.63248">
        <ele>639.4140625</ele>
        <time>2014-12-14T08:23:08Z</time>
      </trkpt>
      <trkpt lat="44.33501" lon="2.63265">
        <ele>637.4914551</ele>
        <time>2014-12-14T08:23:13Z</time>
      </trkpt>
      <trkpt lat="44.33498" lon="2.63276">
        <ele>637.972168</ele>
        <time>2014-12-14T08:23:16Z</time>
      </trkpt>
      <trkpt lat="44.33493" lon="2.63297">
        <ele>639.4140625</ele>
        <time>2014-12-14T08:23:21Z</time>
      </trkpt>
      <trkpt lat="44.3349" lon="2.63311">
        <ele>639.8947754</ele>
        <time>2014-12-14T08:23:25Z</time>
      </trkpt>
      <trkpt lat="44.33485" lon="2.63329">
        <ele>639.4140625</ele>
        <time>2014-12-14T08:23:30Z</time>
      </trkpt>
      <trkpt lat="44.33484" lon="2.63333">
        <ele>639.4140625</ele>
        <time>2014-12-14T08:23:31Z</time>
      </trkpt>
      <trkpt lat="44.33481" lon="2.63357">
        <ele>639.8947754</ele>
        <time>2014-12-14T08:23:37Z</time>
      </trkpt>
      <trkpt lat="44.33478" lon="2.63373">
        <ele>638.9335938</ele>
        <time>2014-12-14T08:23:42Z</time>
      </trkpt>
      <trkpt lat="44.33476" lon="2.6338">
        <ele>637.972168</ele>
        <time>2014-12-14T08:23:44Z</time>
      </trkpt>
      <trkpt lat="44.33475" lon="2.63399">
        <ele>636.5302734</ele>
        <time>2014-12-14T08:23:49Z</time>
      </trkpt>
      <trkpt lat="44.33474" lon="2.63411">
        <ele>635.0881348</ele>
        <time>2014-12-14T08:23:53Z</time>
      </trkpt>
      <trkpt lat="44.33476" lon="2.63425">
        <ele>635.0881348</ele>
        <time>2014-12-14T08:23:57Z</time>
      </trkpt>
      <trkpt lat="44.33474" lon="2.63434">
        <ele>634.126709</ele>
        <time>2014-12-14T08:24:00Z</time>
      </trkpt>
      <trkpt lat="44.3347" lon="2.63447">
        <ele>633.1652832</ele>
        <time>2014-12-14T08:24:04Z</time>
      </trkpt>
      <trkpt lat="44.33467" lon="2.63454">
        <ele>633.1652832</ele>
        <time>2014-12-14T08:24:06Z</time>
      </trkpt>
      <trkpt lat="44.33463" lon="2.6347">
        <ele>631.7233887</ele>
        <time>2014-12-14T08:24:11Z</time>
      </trkpt>
      <trkpt lat="44.33457" lon="2.63486">
        <ele>631.7233887</ele>
        <time>2014-12-14T08:24:16Z</time>
      </trkpt>
      <trkpt lat="44.33451" lon="2.63509">
        <ele>630.762207</ele>
        <time>2014-12-14T08:24:22Z</time>
      </trkpt>
      <trkpt lat="44.33449" lon="2.63514">
        <ele>629.8007813</ele>
        <time>2014-12-14T08:24:24Z</time>
      </trkpt>
      <trkpt lat="44.33447" lon="2.63534">
        <ele>630.762207</ele>
        <time>2014-12-14T08:24:29Z</time>
      </trkpt>
      <trkpt lat="44.33447" lon="2.63555">
        <ele>631.2429199</ele>
        <time>2014-12-14T08:24:34Z</time>
      </trkpt>
      <trkpt lat="44.33441" lon="2.63573">
        <ele>631.2429199</ele>
        <time>2014-12-14T08:24:39Z</time>
      </trkpt>
      <trkpt lat="44.33434" lon="2.63586">
        <ele>632.2041016</ele>
        <time>2014-12-14T08:24:44Z</time>
      </trkpt>
      <trkpt lat="44.33425" lon="2.63598">
        <ele>633.1652832</ele>
        <time>2014-12-14T08:24:49Z</time>
      </trkpt>
      <trkpt lat="44.33417" lon="2.63609">
        <ele>633.6459961</ele>
        <time>2014-12-14T08:24:53Z</time>
      </trkpt>
      <trkpt lat="44.33409" lon="2.63621">
        <ele>636.0495605</ele>
        <time>2014-12-14T08:24:58Z</time>
      </trkpt>
      <trkpt lat="44.33401" lon="2.6363">
        <ele>638.4528809</ele>
        <time>2014-12-14T08:25:03Z</time>
      </trkpt>
      <trkpt lat="44.33394" lon="2.63642">
        <ele>640.855957</ele>
        <time>2014-12-14T08:25:09Z</time>
      </trkpt>
      <trkpt lat="44.33387" lon="2.63654">
        <ele>642.7788086</ele>
        <time>2014-12-14T08:25:15Z</time>
      </trkpt>
      <trkpt lat="44.3338" lon="2.63665">
        <ele>644.2207031</ele>
        <time>2014-12-14T08:25:21Z</time>
      </trkpt>
      <trkpt lat="44.33373" lon="2.63678">
        <ele>645.1818848</ele>
        <time>2014-12-14T08:25:27Z</time>
      </trkpt>
      <trkpt lat="44.33366" lon="2.63691">
        <ele>645.1818848</ele>
        <time>2014-12-14T08:25:33Z</time>
      </trkpt>
      <trkpt lat="44.33359" lon="2.63704">
        <ele>645.1818848</ele>
        <time>2014-12-14T08:25:39Z</time>
      </trkpt>
      <trkpt lat="44.33354" lon="2.6372">
        <ele>647.1044922</ele>
        <time>2014-12-14T08:25:45Z</time>
      </trkpt>
      <trkpt lat="44.33351" lon="2.63736">
        <ele>648.065918</ele>
        <time>2014-12-14T08:25:51Z</time>
      </trkpt>
      <trkpt lat="44.33347" lon="2.63753">
        <ele>649.0270996</ele>
        <time>2014-12-14T08:25:58Z</time>
      </trkpt>
      <trkpt lat="44.33342" lon="2.63768">
        <ele>649.9885254</ele>
        <time>2014-12-14T08:26:04Z</time>
      </trkpt>
      <trkpt lat="44.33338" lon="2.63784">
        <ele>650.949707</ele>
        <time>2014-12-14T08:26:10Z</time>
      </trkpt>
      <trkpt lat="44.33332" lon="2.63802">
        <ele>652.3918457</ele>
        <time>2014-12-14T08:26:17Z</time>
      </trkpt>
      <trkpt lat="44.33327" lon="2.63817">
        <ele>653.3532715</ele>
        <time>2014-12-14T08:26:23Z</time>
      </trkpt>
      <trkpt lat="44.33322" lon="2.63836">
        <ele>655.2758789</ele>
        <time>2014-12-14T08:26:30Z</time>
      </trkpt>
      <trkpt lat="44.33318" lon="2.63857">
        <ele>656.7177734</ele>
        <time>2014-12-14T08:26:38Z</time>
      </trkpt>
      <trkpt lat="44.33314" lon="2.63873">
        <ele>656.7177734</ele>
        <time>2014-12-14T08:26:44Z</time>
      </trkpt>
      <trkpt lat="44.3331" lon="2.63887">
        <ele>657.6791992</ele>
        <time>2014-12-14T08:26:49Z</time>
      </trkpt>
      <trkpt lat="44.33307" lon="2.63902">
        <ele>659.1210938</ele>
        <time>2014-12-14T08:26:54Z</time>
      </trkpt>
      <trkpt lat="44.33302" lon="2.63921">
        <ele>658.1599121</ele>
        <time>2014-12-14T08:27:01Z</time>
      </trkpt>
      <trkpt lat="44.33299" lon="2.63935">
        <ele>658.1599121</ele>
        <time>2014-12-14T08:27:06Z</time>
      </trkpt>
      <trkpt lat="44.33297" lon="2.63951">
        <ele>658.1599121</ele>
        <time>2014-12-14T08:27:11Z</time>
      </trkpt>
      <trkpt lat="44.33295" lon="2.63972">
        <ele>659.1210938</ele>
        <time>2014-12-14T08:27:18Z</time>
      </trkpt>
      <trkpt lat="44.33291" lon="2.63992">
        <ele>659.6018066</ele>
        <time>2014-12-14T08:27:24Z</time>
      </trkpt>
      <trkpt lat="44.33287" lon="2.64008">
        <ele>659.6018066</ele>
        <time>2014-12-14T08:27:29Z</time>
      </trkpt>
      <trkpt lat="44.33283" lon="2.64023">
        <ele>659.6018066</ele>
        <time>2014-12-14T08:27:34Z</time>
      </trkpt>
      <trkpt lat="44.3328" lon="2.64036">
        <ele>659.6018066</ele>
        <time>2014-12-14T08:27:38Z</time>
      </trkpt>
      <trkpt lat="44.33277" lon="2.64052">
        <ele>660.0822754</ele>
        <time>2014-12-14T08:27:43Z</time>
      </trkpt>
      <trkpt lat="44.33276" lon="2.64071">
        <ele>659.6018066</ele>
        <time>2014-12-14T08:27:48Z</time>
      </trkpt>
      <trkpt lat="44.33273" lon="2.64085">
        <ele>659.6018066</ele>
        <time>2014-12-14T08:27:52Z</time>
      </trkpt>
      <trkpt lat="44.3327" lon="2.64103">
        <ele>660.5629883</ele>
        <time>2014-12-14T08:27:57Z</time>
      </trkpt>
      <trkpt lat="44.33266" lon="2.64119">
        <ele>661.5244141</ele>
        <time>2014-12-14T08:28:02Z</time>
      </trkpt>
      <trkpt lat="44.33261" lon="2.64138">
        <ele>662.005127</ele>
        <time>2014-12-14T08:28:08Z</time>
      </trkpt>
      <trkpt lat="44.33257" lon="2.64156">
        <ele>662.9663086</ele>
        <time>2014-12-14T08:28:13Z</time>
      </trkpt>
      <trkpt lat="44.33255" lon="2.64163">
        <ele>663.4470215</ele>
        <time>2014-12-14T08:28:15Z</time>
      </trkpt>
      <trkpt lat="44.33251" lon="2.64181">
        <ele>663.9274902</ele>
        <time>2014-12-14T08:28:21Z</time>
      </trkpt>
      <trkpt lat="44.33246" lon="2.64198">
        <ele>664.4082031</ele>
        <time>2014-12-14T08:28:27Z</time>
      </trkpt>
      <trkpt lat="44.33239" lon="2.64217">
        <ele>664.4082031</ele>
        <time>2014-12-14T08:28:33Z</time>
      </trkpt>
      <trkpt lat="44.33231" lon="2.64239">
        <ele>665.8503418</ele>
        <time>2014-12-14T08:28:40Z</time>
      </trkpt>
      <trkpt lat="44.33224" lon="2.6426">
        <ele>668.2536621</ele>
        <time>2014-12-14T08:28:46Z</time>
      </trkpt>
      <trkpt lat="44.3322" lon="2.64272">
        <ele>669.2150879</ele>
        <time>2014-12-14T08:28:50Z</time>
      </trkpt>
      <trkpt lat="44.33211" lon="2.64293">
        <ele>670.6569824</ele>
        <time>2014-12-14T08:28:57Z</time>
      </trkpt>
      <trkpt lat="44.33207" lon="2.64305">
        <ele>670.6569824</ele>
        <time>2014-12-14T08:29:01Z</time>
      </trkpt>
      <trkpt lat="44.33201" lon="2.6432">
        <ele>670.1762695</ele>
        <time>2014-12-14T08:29:06Z</time>
      </trkpt>
      <trkpt lat="44.33195" lon="2.64335">
        <ele>670.1762695</ele>
        <time>2014-12-14T08:29:11Z</time>
      </trkpt>
      <trkpt lat="44.3319" lon="2.64345">
        <ele>670.1762695</ele>
        <time>2014-12-14T08:29:15Z</time>
      </trkpt>
      <trkpt lat="44.33183" lon="2.64364">
        <ele>670.6569824</ele>
        <time>2014-12-14T08:29:21Z</time>
      </trkpt>
      <trkpt lat="44.33177" lon="2.64384">
        <ele>672.098877</ele>
        <time>2014-12-14T08:29:27Z</time>
      </trkpt>
      <trkpt lat="44.33172" lon="2.644">
        <ele>673.0603027</ele>
        <time>2014-12-14T08:29:32Z</time>
      </trkpt>
      <trkpt lat="44.33167" lon="2.6442">
        <ele>673.0603027</ele>
        <time>2014-12-14T08:29:38Z</time>
      </trkpt>
      <trkpt lat="44.33166" lon="2.64426">
        <ele>673.0603027</ele>
        <time>2014-12-14T08:29:40Z</time>
      </trkpt>
      <trkpt lat="44.33163" lon="2.64446">
        <ele>674.0214844</ele>
        <time>2014-12-14T08:29:46Z</time>
      </trkpt>
      <trkpt lat="44.33162" lon="2.64449">
        <ele>674.0214844</ele>
        <time>2014-12-14T08:29:47Z</time>
      </trkpt>
      <trkpt lat="44.33154" lon="2.64473">
        <ele>674.0214844</ele>
        <time>2014-12-14T08:29:54Z</time>
      </trkpt>
      <trkpt lat="44.33147" lon="2.64487">
        <ele>674.0214844</ele>
        <time>2014-12-14T08:29:59Z</time>
      </trkpt>
      <trkpt lat="44.33143" lon="2.64498">
        <ele>674.5021973</ele>
        <time>2014-12-14T08:30:03Z</time>
      </trkpt>
      <trkpt lat="44.3314" lon="2.64508">
        <ele>675.4633789</ele>
        <time>2014-12-14T08:30:07Z</time>
      </trkpt>
      <trkpt lat="44.33133" lon="2.64523">
        <ele>676.4248047</ele>
        <time>2014-12-14T08:30:12Z</time>
      </trkpt>
      <trkpt lat="44.33128" lon="2.64535">
        <ele>676.9055176</ele>
        <time>2014-12-14T08:30:16Z</time>
      </trkpt>
      <trkpt lat="44.33122" lon="2.64553">
        <ele>676.4248047</ele>
        <time>2014-12-14T08:30:22Z</time>
      </trkpt>
      <trkpt lat="44.33114" lon="2.64571">
        <ele>677.8666992</ele>
        <time>2014-12-14T08:30:28Z</time>
      </trkpt>
      <trkpt lat="44.33109" lon="2.64584">
        <ele>678.828125</ele>
        <time>2014-12-14T08:30:32Z</time>
      </trkpt>
      <trkpt lat="44.33106" lon="2.64601">
        <ele>679.3085938</ele>
        <time>2014-12-14T08:30:37Z</time>
      </trkpt>
      <trkpt lat="44.33106" lon="2.6462">
        <ele>679.3085938</ele>
        <time>2014-12-14T08:30:42Z</time>
      </trkpt>
      <trkpt lat="44.33102" lon="2.64641">
        <ele>679.3085938</ele>
        <time>2014-12-14T08:30:48Z</time>
      </trkpt>
      <trkpt lat="44.33098" lon="2.6466">
        <ele>679.3085938</ele>
        <time>2014-12-14T08:30:53Z</time>
      </trkpt>
      <trkpt lat="44.33096" lon="2.64673">
        <ele>678.3474121</ele>
        <time>2014-12-14T08:30:57Z</time>
      </trkpt>
      <trkpt lat="44.33094" lon="2.64684">
        <ele>677.8666992</ele>
        <time>2014-12-14T08:31:00Z</time>
      </trkpt>
      <trkpt lat="44.33092" lon="2.64699">
        <ele>677.3862305</ele>
        <time>2014-12-14T08:31:04Z</time>
      </trkpt>
      <trkpt lat="44.33091" lon="2.64703">
        <ele>677.3862305</ele>
        <time>2014-12-14T08:31:05Z</time>
      </trkpt>
      <trkpt lat="44.33085" lon="2.64721">
        <ele>676.4248047</ele>
        <time>2014-12-14T08:31:10Z</time>
      </trkpt>
      <trkpt lat="44.3308" lon="2.64735">
        <ele>675.4633789</ele>
        <time>2014-12-14T08:31:14Z</time>
      </trkpt>
      <trkpt lat="44.33075" lon="2.64747">
        <ele>673.5410156</ele>
        <time>2014-12-14T08:31:18Z</time>
      </trkpt>
      <trkpt lat="44.33072" lon="2.64762">
        <ele>672.5795898</ele>
        <time>2014-12-14T08:31:22Z</time>
      </trkpt>
      <trkpt lat="44.3307" lon="2.64789">
        <ele>670.6569824</ele>
        <time>2014-12-14T08:31:29Z</time>
      </trkpt>
      <trkpt lat="44.33068" lon="2.64811">
        <ele>669.6958008</ele>
        <time>2014-12-14T08:31:35Z</time>
      </trkpt>
      <trkpt lat="44.33067" lon="2.64815">
        <ele>669.2150879</ele>
        <time>2014-12-14T08:31:36Z</time>
      </trkpt>
      <trkpt lat="44.33063" lon="2.64831">
        <ele>666.8115234</ele>
        <time>2014-12-14T08:31:41Z</time>
      </trkpt>
      <trkpt lat="44.33056" lon="2.64846">
        <ele>665.8503418</ele>
        <time>2014-12-14T08:31:46Z</time>
      </trkpt>
      <trkpt lat="44.33046" lon="2.64846">
        <ele>664.888916</ele>
        <time>2014-12-14T08:31:50Z</time>
      </trkpt>
      <trkpt lat="44.33042" lon="2.64846">
        <ele>664.888916</ele>
        <time>2014-12-14T08:31:53Z</time>
      </trkpt>
      <trkpt lat="44.33043" lon="2.64847">
        <ele>664.4082031</ele>
        <time>2014-12-14T08:31:58Z</time>
      </trkpt>
      <trkpt lat="44.33038" lon="2.64847">
        <ele>664.4082031</ele>
        <time>2014-12-14T08:32:03Z</time>
      </trkpt>
      <trkpt lat="44.33027" lon="2.64844">
        <ele>664.4082031</ele>
        <time>2014-12-14T08:32:09Z</time>
      </trkpt>
      <trkpt lat="44.33014" lon="2.64841">
        <ele>663.4470215</ele>
        <time>2014-12-14T08:32:15Z</time>
      </trkpt>
      <trkpt lat="44.33" lon="2.64838">
        <ele>662.4855957</ele>
        <time>2014-12-14T08:32:21Z</time>
      </trkpt>
      <trkpt lat="44.32989" lon="2.64834">
        <ele>662.005127</ele>
        <time>2014-12-14T08:32:26Z</time>
      </trkpt>
      <trkpt lat="44.32974" lon="2.64829">
        <ele>661.0437012</ele>
        <time>2014-12-14T08:32:32Z</time>
      </trkpt>
      <trkpt lat="44.32957" lon="2.64824">
        <ele>660.0822754</ele>
        <time>2014-12-14T08:32:39Z</time>
      </trkpt>
      <trkpt lat="44.32948" lon="2.64821">
        <ele>659.6018066</ele>
        <time>2014-12-14T08:32:43Z</time>
      </trkpt>
      <trkpt lat="44.32933" lon="2.64818">
        <ele>659.1210938</ele>
        <time>2014-12-14T08:32:49Z</time>
      </trkpt>
      <trkpt lat="44.32921" lon="2.64816">
        <ele>658.1599121</ele>
        <time>2014-12-14T08:32:54Z</time>
      </trkpt>
      <trkpt lat="44.32909" lon="2.64813">
        <ele>658.1599121</ele>
        <time>2014-12-14T08:32:59Z</time>
      </trkpt>
      <trkpt lat="44.32896" lon="2.6481">
        <ele>657.1984863</ele>
        <time>2014-12-14T08:33:04Z</time>
      </trkpt>
      <trkpt lat="44.32885" lon="2.64806">
        <ele>656.7177734</ele>
        <time>2014-12-14T08:33:08Z</time>
      </trkpt>
      <trkpt lat="44.32875" lon="2.64805">
        <ele>656.2370605</ele>
        <time>2014-12-14T08:33:12Z</time>
      </trkpt>
      <trkpt lat="44.32862" lon="2.64803">
        <ele>655.2758789</ele>
        <time>2014-12-14T08:33:17Z</time>
      </trkpt>
      <trkpt lat="44.3285" lon="2.64801">
        <ele>654.795166</ele>
        <time>2014-12-14T08:33:22Z</time>
      </trkpt>
      <trkpt lat="44.32835" lon="2.64801">
        <ele>653.8339844</ele>
        <time>2014-12-14T08:33:28Z</time>
      </trkpt>
      <trkpt lat="44.32827" lon="2.64799">
        <ele>652.3918457</ele>
        <time>2014-12-14T08:33:31Z</time>
      </trkpt>
      <trkpt lat="44.32814" lon="2.64795">
        <ele>650.4692383</ele>
        <time>2014-12-14T08:33:36Z</time>
      </trkpt>
      <trkpt lat="44.32801" lon="2.64791">
        <ele>648.065918</ele>
        <time>2014-12-14T08:33:41Z</time>
      </trkpt>
      <trkpt lat="44.32781" lon="2.64789">
        <ele>647.1044922</ele>
        <time>2014-12-14T08:33:48Z</time>
      </trkpt>
      <trkpt lat="44.32768" lon="2.6479">
        <ele>646.6240234</ele>
        <time>2014-12-14T08:33:53Z</time>
      </trkpt>
      <trkpt lat="44.32756" lon="2.6479">
        <ele>646.1433105</ele>
        <time>2014-12-14T08:33:57Z</time>
      </trkpt>
      <trkpt lat="44.32743" lon="2.64788">
        <ele>645.1818848</ele>
        <time>2014-12-14T08:34:02Z</time>
      </trkpt>
      <trkpt lat="44.32735" lon="2.64787">
        <ele>644.2207031</ele>
        <time>2014-12-14T08:34:05Z</time>
      </trkpt>
      <trkpt lat="44.32726" lon="2.64789">
        <ele>643.2592773</ele>
        <time>2014-12-14T08:34:09Z</time>
      </trkpt>
      <trkpt lat="44.3272" lon="2.64789">
        <ele>642.7788086</ele>
        <time>2014-12-14T08:34:11Z</time>
      </trkpt>
      <trkpt lat="44.32709" lon="2.64782">
        <ele>644.2207031</ele>
        <time>2014-12-14T08:34:16Z</time>
      </trkpt>
      <trkpt lat="44.32699" lon="2.64781">
        <ele>645.6625977</ele>
        <time>2014-12-14T08:34:20Z</time>
      </trkpt>
      <trkpt lat="44.32687" lon="2.64784">
        <ele>646.1433105</ele>
        <time>2014-12-14T08:34:25Z</time>
      </trkpt>
      <trkpt lat="44.32672" lon="2.64783">
        <ele>643.7399902</ele>
        <time>2014-12-14T08:34:31Z</time>
      </trkpt>
      <trkpt lat="44.3266" lon="2.64781">
        <ele>642.2980957</ele>
        <time>2014-12-14T08:34:36Z</time>
      </trkpt>
      <trkpt lat="44.32647" lon="2.64782">
        <ele>643.2592773</ele>
        <time>2014-12-14T08:34:41Z</time>
      </trkpt>
      <trkpt lat="44.32635" lon="2.64786">
        <ele>644.2207031</ele>
        <time>2014-12-14T08:34:46Z</time>
      </trkpt>
      <trkpt lat="44.32626" lon="2.64791">
        <ele>644.7011719</ele>
        <time>2014-12-14T08:34:50Z</time>
      </trkpt>
      <trkpt lat="44.32614" lon="2.64796">
        <ele>645.6625977</ele>
        <time>2014-12-14T08:34:56Z</time>
      </trkpt>
      <trkpt lat="44.32603" lon="2.648">
        <ele>647.5852051</ele>
        <time>2014-12-14T08:35:01Z</time>
      </trkpt>
      <trkpt lat="44.32592" lon="2.64797">
        <ele>649.0270996</ele>
        <time>2014-12-14T08:35:06Z</time>
      </trkpt>
      <trkpt lat="44.32581" lon="2.64797">
        <ele>650.4692383</ele>
        <time>2014-12-14T08:35:11Z</time>
      </trkpt>
      <trkpt lat="44.32571" lon="2.648">
        <ele>649.9885254</ele>
        <time>2014-12-14T08:35:16Z</time>
      </trkpt>
      <trkpt lat="44.32559" lon="2.648">
        <ele>650.949707</ele>
        <time>2014-12-14T08:35:21Z</time>
      </trkpt>
      <trkpt lat="44.32549" lon="2.64801">
        <ele>651.9111328</ele>
        <time>2014-12-14T08:35:26Z</time>
      </trkpt>
      <trkpt lat="44.32535" lon="2.64802">
        <ele>652.8725586</ele>
        <time>2014-12-14T08:35:32Z</time>
      </trkpt>
      <trkpt lat="44.32525" lon="2.64804">
        <ele>653.3532715</ele>
        <time>2014-12-14T08:35:36Z</time>
      </trkpt>
      <trkpt lat="44.32514" lon="2.64803">
        <ele>654.3146973</ele>
        <time>2014-12-14T08:35:42Z</time>
      </trkpt>
      <trkpt lat="44.32502" lon="2.648">
        <ele>655.7565918</ele>
        <time>2014-12-14T08:35:48Z</time>
      </trkpt>
      <trkpt lat="44.32489" lon="2.64797">
        <ele>656.7177734</ele>
        <time>2014-12-14T08:35:54Z</time>
      </trkpt>
      <trkpt lat="44.32475" lon="2.64791">
        <ele>658.1599121</ele>
        <time>2014-12-14T08:36:01Z</time>
      </trkpt>
      <trkpt lat="44.32465" lon="2.64784">
        <ele>658.6403809</ele>
        <time>2014-12-14T08:36:06Z</time>
      </trkpt>
      <trkpt lat="44.32462" lon="2.64781">
        <ele>659.1210938</ele>
        <time>2014-12-14T08:36:08Z</time>
      </trkpt>
      <trkpt lat="44.3245" lon="2.64778">
        <ele>661.0437012</ele>
        <time>2014-12-14T08:36:14Z</time>
      </trkpt>
      <trkpt lat="44.32439" lon="2.64773">
        <ele>662.4855957</ele>
        <time>2014-12-14T08:36:19Z</time>
      </trkpt>
      <trkpt lat="44.32426" lon="2.64768">
        <ele>663.4470215</ele>
        <time>2014-12-14T08:36:25Z</time>
      </trkpt>
      <trkpt lat="44.32417" lon="2.64763">
        <ele>664.888916</ele>
        <time>2014-12-14T08:36:29Z</time>
      </trkpt>
      <trkpt lat="44.32403" lon="2.64757">
        <ele>666.3308105</ele>
        <time>2014-12-14T08:36:35Z</time>
      </trkpt>
      <trkpt lat="44.32392" lon="2.6475">
        <ele>666.8115234</ele>
        <time>2014-12-14T08:36:40Z</time>
      </trkpt>
      <trkpt lat="44.3238" lon="2.64747">
        <ele>667.7727051</ele>
        <time>2014-12-14T08:36:45Z</time>
      </trkpt>
      <trkpt lat="44.32368" lon="2.64746">
        <ele>667.7727051</ele>
        <time>2014-12-14T08:36:50Z</time>
      </trkpt>
      <trkpt lat="44.32358" lon="2.64746">
        <ele>668.2536621</ele>
        <time>2014-12-14T08:36:55Z</time>
      </trkpt>
      <trkpt lat="44.32345" lon="2.64752">
        <ele>669.2150879</ele>
        <time>2014-12-14T08:37:01Z</time>
      </trkpt>
      <trkpt lat="44.32334" lon="2.64763">
        <ele>670.6569824</ele>
        <time>2014-12-14T08:37:07Z</time>
      </trkpt>
      <trkpt lat="44.32327" lon="2.64776">
        <ele>671.6181641</ele>
        <time>2014-12-14T08:37:12Z</time>
      </trkpt>
      <trkpt lat="44.32316" lon="2.64798">
        <ele>673.5410156</ele>
        <time>2014-12-14T08:37:20Z</time>
      </trkpt>
      <trkpt lat="44.32309" lon="2.64811">
        <ele>674.0214844</ele>
        <time>2014-12-14T08:37:25Z</time>
      </trkpt>
      <trkpt lat="44.32304" lon="2.64823">
        <ele>674.5021973</ele>
        <time>2014-12-14T08:37:29Z</time>
      </trkpt>
      <trkpt lat="44.32295" lon="2.6482">
        <ele>674.9829102</ele>
        <time>2014-12-14T08:37:34Z</time>
      </trkpt>
      <trkpt lat="44.32293" lon="2.6482">
        <ele>674.9829102</ele>
        <time>2014-12-14T08:37:38Z</time>
      </trkpt>
      <trkpt lat="44.32292" lon="2.6482">
        <ele>674.0214844</ele>
        <time>2014-12-14T08:37:41Z</time>
      </trkpt>
      <trkpt lat="44.32292" lon="2.64819">
        <ele>674.0214844</ele>
        <time>2014-12-14T08:37:42Z</time>
      </trkpt>
      <trkpt lat="44.32289" lon="2.64808">
        <ele>673.0603027</ele>
        <time>2014-12-14T08:37:47Z</time>
      </trkpt>
      <trkpt lat="44.32287" lon="2.64806">
        <ele>672.5795898</ele>
        <time>2014-12-14T08:37:53Z</time>
      </trkpt>
      <trkpt lat="44.32287" lon="2.64805">
        <ele>672.5795898</ele>
        <time>2014-12-14T08:37:55Z</time>
      </trkpt>
      <trkpt lat="44.3228" lon="2.64786">
        <ele>672.5795898</ele>
        <time>2014-12-14T08:38:02Z</time>
      </trkpt>
      <trkpt lat="44.32275" lon="2.64768">
        <ele>671.6181641</ele>
        <time>2014-12-14T08:38:08Z</time>
      </trkpt>
      <trkpt lat="44.32269" lon="2.64745">
        <ele>671.1376953</ele>
        <time>2014-12-14T08:38:15Z</time>
      </trkpt>
      <trkpt lat="44.32266" lon="2.64734">
        <ele>672.098877</ele>
        <time>2014-12-14T08:38:18Z</time>
      </trkpt>
      <trkpt lat="44.32262" lon="2.64714">
        <ele>672.5795898</ele>
        <time>2014-12-14T08:38:24Z</time>
      </trkpt>
      <trkpt lat="44.32253" lon="2.64696">
        <ele>674.0214844</ele>
        <time>2014-12-14T08:38:31Z</time>
      </trkpt>
      <trkpt lat="44.32242" lon="2.64682">
        <ele>674.5021973</ele>
        <time>2014-12-14T08:38:37Z</time>
      </trkpt>
      <trkpt lat="44.32232" lon="2.64672">
        <ele>675.4633789</ele>
        <time>2014-12-14T08:38:42Z</time>
      </trkpt>
      <trkpt lat="44.32219" lon="2.64663">
        <ele>677.3862305</ele>
        <time>2014-12-14T08:38:48Z</time>
      </trkpt>
      <trkpt lat="44.32206" lon="2.64658">
        <ele>678.828125</ele>
        <time>2014-12-14T08:38:54Z</time>
      </trkpt>
      <trkpt lat="44.32192" lon="2.64654">
        <ele>680.7507324</ele>
        <time>2014-12-14T08:39:00Z</time>
      </trkpt>
      <trkpt lat="44.32174" lon="2.64651">
        <ele>682.192627</ele>
        <time>2014-12-14T08:39:07Z</time>
      </trkpt>
      <trkpt lat="44.32159" lon="2.6465">
        <ele>682.192627</ele>
        <time>2014-12-14T08:39:13Z</time>
      </trkpt>
      <trkpt lat="44.32149" lon="2.6465">
        <ele>683.1538086</ele>
        <time>2014-12-14T08:39:17Z</time>
      </trkpt>
      <trkpt lat="44.32133" lon="2.64647">
        <ele>684.5961914</ele>
        <time>2014-12-14T08:39:23Z</time>
      </trkpt>
      <trkpt lat="44.32116" lon="2.64644">
        <ele>684.1154785</ele>
        <time>2014-12-14T08:39:29Z</time>
      </trkpt>
      <trkpt lat="44.32098" lon="2.64639">
        <ele>683.1538086</ele>
        <time>2014-12-14T08:39:36Z</time>
      </trkpt>
      <trkpt lat="44.32083" lon="2.64635">
        <ele>681.7119141</ele>
        <time>2014-12-14T08:39:42Z</time>
      </trkpt>
      <trkpt lat="44.3207" lon="2.64631">
        <ele>680.2700195</ele>
        <time>2014-12-14T08:39:47Z</time>
      </trkpt>
      <trkpt lat="44.32056" lon="2.64628">
        <ele>678.828125</ele>
        <time>2014-12-14T08:39:52Z</time>
      </trkpt>
      <trkpt lat="44.32041" lon="2.64624">
        <ele>677.3862305</ele>
        <time>2014-12-14T08:39:58Z</time>
      </trkpt>
      <trkpt lat="44.32022" lon="2.64622">
        <ele>676.9055176</ele>
        <time>2014-12-14T08:40:05Z</time>
      </trkpt>
      <trkpt lat="44.3201" lon="2.64621">
        <ele>675.4633789</ele>
        <time>2014-12-14T08:40:10Z</time>
      </trkpt>
      <trkpt lat="44.31997" lon="2.64619">
        <ele>673.5410156</ele>
        <time>2014-12-14T08:40:15Z</time>
      </trkpt>
      <trkpt lat="44.31985" lon="2.64616">
        <ele>672.098877</ele>
        <time>2014-12-14T08:40:20Z</time>
      </trkpt>
      <trkpt lat="44.31983" lon="2.64615">
        <ele>671.6181641</ele>
        <time>2014-12-14T08:40:21Z</time>
      </trkpt>
      <trkpt lat="44.3198" lon="2.64615">
        <ele>671.1376953</ele>
        <time>2014-12-14T08:40:27Z</time>
      </trkpt>
      <trkpt lat="44.31972" lon="2.64615">
        <ele>670.1762695</ele>
        <time>2014-12-14T08:40:32Z</time>
      </trkpt>
      <trkpt lat="44.31965" lon="2.64613">
        <ele>669.2150879</ele>
        <time>2014-12-14T08:40:35Z</time>
      </trkpt>
      <trkpt lat="44.31949" lon="2.6461">
        <ele>666.8115234</ele>
        <time>2014-12-14T08:40:42Z</time>
      </trkpt>
      <trkpt lat="44.31935" lon="2.64608">
        <ele>664.888916</ele>
        <time>2014-12-14T08:40:48Z</time>
      </trkpt>
      <trkpt lat="44.31925" lon="2.64608">
        <ele>664.4082031</ele>
        <time>2014-12-14T08:40:52Z</time>
      </trkpt>
      <trkpt lat="44.31912" lon="2.64611">
        <ele>663.4470215</ele>
        <time>2014-12-14T08:40:57Z</time>
      </trkpt>
      <trkpt lat="44.31899" lon="2.64614">
        <ele>662.9663086</ele>
        <time>2014-12-14T08:41:02Z</time>
      </trkpt>
      <trkpt lat="44.31883" lon="2.64617">
        <ele>662.4855957</ele>
        <time>2014-12-14T08:41:08Z</time>
      </trkpt>
      <trkpt lat="44.31866" lon="2.64611">
        <ele>662.4855957</ele>
        <time>2014-12-14T08:41:14Z</time>
      </trkpt>
      <trkpt lat="44.31855" lon="2.64602">
        <ele>662.9663086</ele>
        <time>2014-12-14T08:41:19Z</time>
      </trkpt>
      <trkpt lat="44.31847" lon="2.64588">
        <ele>663.9274902</ele>
        <time>2014-12-14T08:41:24Z</time>
      </trkpt>
      <trkpt lat="44.31837" lon="2.64571">
        <ele>663.4470215</ele>
        <time>2014-12-14T08:41:30Z</time>
      </trkpt>
      <trkpt lat="44.31827" lon="2.64556">
        <ele>662.005127</ele>
        <time>2014-12-14T08:41:36Z</time>
      </trkpt>
      <trkpt lat="44.31813" lon="2.64543">
        <ele>661.5244141</ele>
        <time>2014-12-14T08:41:42Z</time>
      </trkpt>
      <trkpt lat="44.31795" lon="2.64531">
        <ele>661.5244141</ele>
        <time>2014-12-14T08:41:49Z</time>
      </trkpt>
      <trkpt lat="44.3178" lon="2.64524">
        <ele>660.5629883</ele>
        <time>2014-12-14T08:41:55Z</time>
      </trkpt>
      <trkpt lat="44.31767" lon="2.64519">
        <ele>660.0822754</ele>
        <time>2014-12-14T08:42:00Z</time>
      </trkpt>
      <trkpt lat="44.31751" lon="2.64518">
        <ele>659.6018066</ele>
        <time>2014-12-14T08:42:06Z</time>
      </trkpt>
      <trkpt lat="44.31737" lon="2.64513">
        <ele>658.1599121</ele>
        <time>2014-12-14T08:42:12Z</time>
      </trkpt>
      <trkpt lat="44.31728" lon="2.64513">
        <ele>656.7177734</ele>
        <time>2014-12-14T08:42:15Z</time>
      </trkpt>
      <trkpt lat="44.31716" lon="2.64509">
        <ele>655.2758789</ele>
        <time>2014-12-14T08:42:20Z</time>
      </trkpt>
      <trkpt lat="44.31708" lon="2.6451">
        <ele>654.795166</ele>
        <time>2014-12-14T08:42:24Z</time>
      </trkpt>
      <trkpt lat="44.31709" lon="2.6451">
        <ele>655.7565918</ele>
        <time>2014-12-14T08:42:29Z</time>
      </trkpt>
      <trkpt lat="44.31704" lon="2.64511">
        <ele>656.7177734</ele>
        <time>2014-12-14T08:42:35Z</time>
      </trkpt>
      <trkpt lat="44.31694" lon="2.64511">
        <ele>654.795166</ele>
        <time>2014-12-14T08:42:39Z</time>
      </trkpt>
      <trkpt lat="44.3168" lon="2.64509">
        <ele>652.8725586</ele>
        <time>2014-12-14T08:42:44Z</time>
      </trkpt>
      <trkpt lat="44.31669" lon="2.64507">
        <ele>651.9111328</ele>
        <time>2014-12-14T08:42:48Z</time>
      </trkpt>
      <trkpt lat="44.31661" lon="2.64504">
        <ele>651.4304199</ele>
        <time>2014-12-14T08:42:51Z</time>
      </trkpt>
      <trkpt lat="44.31652" lon="2.64495">
        <ele>649.9885254</ele>
        <time>2014-12-14T08:42:55Z</time>
      </trkpt>
      <trkpt lat="44.31636" lon="2.64485">
        <ele>648.5463867</ele>
        <time>2014-12-14T08:43:02Z</time>
      </trkpt>
      <trkpt lat="44.31633" lon="2.64484">
        <ele>648.5463867</ele>
        <time>2014-12-14T08:43:04Z</time>
      </trkpt>
      <trkpt lat="44.31634" lon="2.64482">
        <ele>646.6240234</ele>
        <time>2014-12-14T08:43:10Z</time>
      </trkpt>
      <trkpt lat="44.31626" lon="2.64493">
        <ele>645.6625977</ele>
        <time>2014-12-14T08:43:14Z</time>
      </trkpt>
      <trkpt lat="44.31619" lon="2.64507">
        <ele>643.7399902</ele>
        <time>2014-12-14T08:43:18Z</time>
      </trkpt>
      <trkpt lat="44.31611" lon="2.64527">
        <ele>643.2592773</ele>
        <time>2014-12-14T08:43:23Z</time>
      </trkpt>
      <trkpt lat="44.31604" lon="2.64539">
        <ele>642.7788086</ele>
        <time>2014-12-14T08:43:27Z</time>
      </trkpt>
      <trkpt lat="44.31597" lon="2.64551">
        <ele>641.8173828</ele>
        <time>2014-12-14T08:43:31Z</time>
      </trkpt>
      <trkpt lat="44.31588" lon="2.64563">
        <ele>641.3366699</ele>
        <time>2014-12-14T08:43:35Z</time>
      </trkpt>
      <trkpt lat="44.31574" lon="2.64577">
        <ele>641.8173828</ele>
        <time>2014-12-14T08:43:41Z</time>
      </trkpt>
      <trkpt lat="44.31569" lon="2.64586">
        <ele>641.8173828</ele>
        <time>2014-12-14T08:43:44Z</time>
      </trkpt>
      <trkpt lat="44.31569" lon="2.64601">
        <ele>641.3366699</ele>
        <time>2014-12-14T08:43:48Z</time>
      </trkpt>
      <trkpt lat="44.31571" lon="2.6461">
        <ele>641.3366699</ele>
        <time>2014-12-14T08:43:51Z</time>
      </trkpt>
      <trkpt lat="44.31572" lon="2.64625">
        <ele>643.2592773</ele>
        <time>2014-12-14T08:43:56Z</time>
      </trkpt>
      <trkpt lat="44.31572" lon="2.64634">
        <ele>644.2207031</ele>
        <time>2014-12-14T08:43:59Z</time>
      </trkpt>
      <trkpt lat="44.31565" lon="2.64654">
        <ele>646.1433105</ele>
        <time>2014-12-14T08:44:06Z</time>
      </trkpt>
      <trkpt lat="44.31558" lon="2.6467">
        <ele>646.6240234</ele>
        <time>2014-12-14T08:44:11Z</time>
      </trkpt>
      <trkpt lat="44.31551" lon="2.64682">
        <ele>648.5463867</ele>
        <time>2014-12-14T08:44:16Z</time>
      </trkpt>
      <trkpt lat="44.31545" lon="2.64693">
        <ele>649.0270996</ele>
        <time>2014-12-14T08:44:21Z</time>
      </trkpt>
      <trkpt lat="44.31544" lon="2.64696">
        <ele>649.5078125</ele>
        <time>2014-12-14T08:44:22Z</time>
      </trkpt>
      <trkpt lat="44.31543" lon="2.64708">
        <ele>650.4692383</ele>
        <time>2014-12-14T08:44:26Z</time>
      </trkpt>
      <trkpt lat="44.31549" lon="2.64724">
        <ele>650.949707</ele>
        <time>2014-12-14T08:44:32Z</time>
      </trkpt>
      <trkpt lat="44.31551" lon="2.64738">
        <ele>652.8725586</ele>
        <time>2014-12-14T08:44:37Z</time>
      </trkpt>
      <trkpt lat="44.31557" lon="2.64747">
        <ele>654.3146973</ele>
        <time>2014-12-14T08:44:41Z</time>
      </trkpt>
      <trkpt lat="44.3156" lon="2.64752">
        <ele>654.795166</ele>
        <time>2014-12-14T08:44:43Z</time>
      </trkpt>
      <trkpt lat="44.31563" lon="2.64769">
        <ele>656.7177734</ele>
        <time>2014-12-14T08:44:49Z</time>
      </trkpt>
      <trkpt lat="44.31564" lon="2.64784">
        <ele>658.6403809</ele>
        <time>2014-12-14T08:44:54Z</time>
      </trkpt>
      <trkpt lat="44.31565" lon="2.64795">
        <ele>660.0822754</ele>
        <time>2014-12-14T08:44:58Z</time>
      </trkpt>
      <trkpt lat="44.31566" lon="2.64808">
        <ele>661.5244141</ele>
        <time>2014-12-14T08:45:03Z</time>
      </trkpt>
      <trkpt lat="44.31566" lon="2.64823">
        <ele>662.4855957</ele>
        <time>2014-12-14T08:45:08Z</time>
      </trkpt>
      <trkpt lat="44.31565" lon="2.64836">
        <ele>663.9274902</ele>
        <time>2014-12-14T08:45:13Z</time>
      </trkpt>
      <trkpt lat="44.31565" lon="2.64851">
        <ele>664.4082031</ele>
        <time>2014-12-14T08:45:18Z</time>
      </trkpt>
      <trkpt lat="44.31568" lon="2.64867">
        <ele>666.3308105</ele>
        <time>2014-12-14T08:45:24Z</time>
      </trkpt>
      <trkpt lat="44.31571" lon="2.64883">
        <ele>667.2922363</ele>
        <time>2014-12-14T08:45:30Z</time>
      </trkpt>
      <trkpt lat="44.31573" lon="2.64896">
        <ele>669.2150879</ele>
        <time>2014-12-14T08:45:35Z</time>
      </trkpt>
      <trkpt lat="44.31575" lon="2.64911">
        <ele>671.1376953</ele>
        <time>2014-12-14T08:45:40Z</time>
      </trkpt>
      <trkpt lat="44.31574" lon="2.64928">
        <ele>672.5795898</ele>
        <time>2014-12-14T08:45:46Z</time>
      </trkpt>
      <trkpt lat="44.31573" lon="2.64945">
        <ele>673.0603027</ele>
        <time>2014-12-14T08:45:52Z</time>
      </trkpt>
      <trkpt lat="44.31573" lon="2.64961">
        <ele>673.5410156</ele>
        <time>2014-12-14T08:45:57Z</time>
      </trkpt>
      <trkpt lat="44.31573" lon="2.64972">
        <ele>674.5021973</ele>
        <time>2014-12-14T08:46:01Z</time>
      </trkpt>
      <trkpt lat="44.31572" lon="2.64988">
        <ele>675.4633789</ele>
        <time>2014-12-14T08:46:06Z</time>
      </trkpt>
      <trkpt lat="44.3157" lon="2.65">
        <ele>675.9440918</ele>
        <time>2014-12-14T08:46:10Z</time>
      </trkpt>
      <trkpt lat="44.31563" lon="2.65014">
        <ele>676.9055176</ele>
        <time>2014-12-14T08:46:15Z</time>
      </trkpt>
      <trkpt lat="44.31553" lon="2.65026">
        <ele>678.828125</ele>
        <time>2014-12-14T08:46:20Z</time>
      </trkpt>
      <trkpt lat="44.31539" lon="2.65038">
        <ele>680.7507324</ele>
        <time>2014-12-14T08:46:27Z</time>
      </trkpt>
      <trkpt lat="44.31528" lon="2.65045">
        <ele>682.6733398</ele>
        <time>2014-12-14T08:46:32Z</time>
      </trkpt>
      <trkpt lat="44.31517" lon="2.65051">
        <ele>683.1538086</ele>
        <time>2014-12-14T08:46:37Z</time>
      </trkpt>
      <trkpt lat="44.31506" lon="2.65055">
        <ele>683.6345215</ele>
        <time>2014-12-14T08:46:42Z</time>
      </trkpt>
      <trkpt lat="44.31493" lon="2.65059">
        <ele>684.5961914</ele>
        <time>2014-12-14T08:46:48Z</time>
      </trkpt>
      <trkpt lat="44.31482" lon="2.65061">
        <ele>686.0380859</ele>
        <time>2014-12-14T08:46:53Z</time>
      </trkpt>
      <trkpt lat="44.31473" lon="2.65063">
        <ele>686.0380859</ele>
        <time>2014-12-14T08:46:58Z</time>
      </trkpt>
      <trkpt lat="44.31466" lon="2.65067">
        <ele>686.0380859</ele>
        <time>2014-12-14T08:47:02Z</time>
      </trkpt>
      <trkpt lat="44.31456" lon="2.65075">
        <ele>686.0380859</ele>
        <time>2014-12-14T08:47:07Z</time>
      </trkpt>
      <trkpt lat="44.31447" lon="2.65076">
        <ele>686.0380859</ele>
        <time>2014-12-14T08:47:11Z</time>
      </trkpt>
      <trkpt lat="44.31442" lon="2.65078">
        <ele>685.557373</ele>
        <time>2014-12-14T08:47:14Z</time>
      </trkpt>
      <trkpt lat="44.31434" lon="2.65082">
        <ele>685.0769043</ele>
        <time>2014-12-14T08:47:18Z</time>
      </trkpt>
      <trkpt lat="44.31425" lon="2.65087">
        <ele>685.0769043</ele>
        <time>2014-12-14T08:47:22Z</time>
      </trkpt>
      <trkpt lat="44.31412" lon="2.65099">
        <ele>685.557373</ele>
        <time>2014-12-14T08:47:29Z</time>
      </trkpt>
      <trkpt lat="44.31409" lon="2.65103">
        <ele>686.0380859</ele>
        <time>2014-12-14T08:47:31Z</time>
      </trkpt>
      <trkpt lat="44.314" lon="2.65113">
        <ele>686.9992676</ele>
        <time>2014-12-14T08:47:36Z</time>
      </trkpt>
      <trkpt lat="44.31392" lon="2.65121">
        <ele>688.4414063</ele>
        <time>2014-12-14T08:47:40Z</time>
      </trkpt>
      <trkpt lat="44.3139" lon="2.65124">
        <ele>688.4414063</ele>
        <time>2014-12-14T08:47:41Z</time>
      </trkpt>
      <trkpt lat="44.31378" lon="2.6514">
        <ele>689.8833008</ele>
        <time>2014-12-14T08:47:48Z</time>
      </trkpt>
      <trkpt lat="44.3137" lon="2.65154">
        <ele>690.8444824</ele>
        <time>2014-12-14T08:47:53Z</time>
      </trkpt>
      <trkpt lat="44.31364" lon="2.65164">
        <ele>691.3251953</ele>
        <time>2014-12-14T08:47:57Z</time>
      </trkpt>
      <trkpt lat="44.31353" lon="2.6518">
        <ele>691.8059082</ele>
        <time>2014-12-14T08:48:03Z</time>
      </trkpt>
      <trkpt lat="44.31343" lon="2.65194">
        <ele>693.2478027</ele>
        <time>2014-12-14T08:48:09Z</time>
      </trkpt>
      <trkpt lat="44.31333" lon="2.65206">
        <ele>693.2478027</ele>
        <time>2014-12-14T08:48:14Z</time>
      </trkpt>
      <trkpt lat="44.31323" lon="2.65217">
        <ele>693.2478027</ele>
        <time>2014-12-14T08:48:19Z</time>
      </trkpt>
      <trkpt lat="44.31315" lon="2.65227">
        <ele>692.767334</ele>
        <time>2014-12-14T08:48:23Z</time>
      </trkpt>
      <trkpt lat="44.31303" lon="2.65241">
        <ele>693.2478027</ele>
        <time>2014-12-14T08:48:29Z</time>
      </trkpt>
      <trkpt lat="44.31294" lon="2.6525">
        <ele>692.767334</ele>
        <time>2014-12-14T08:48:33Z</time>
      </trkpt>
      <trkpt lat="44.31284" lon="2.65263">
        <ele>691.3251953</ele>
        <time>2014-12-14T08:48:39Z</time>
      </trkpt>
      <trkpt lat="44.31281" lon="2.65265">
        <ele>689.8833008</ele>
        <time>2014-12-14T08:48:46Z</time>
      </trkpt>
      <trkpt lat="44.31269" lon="2.65279">
        <ele>689.4025879</ele>
        <time>2014-12-14T08:48:52Z</time>
      </trkpt>
      <trkpt lat="44.31261" lon="2.65291">
        <ele>687.9606934</ele>
        <time>2014-12-14T08:48:55Z</time>
      </trkpt>
      <trkpt lat="44.31254" lon="2.65301">
        <ele>685.557373</ele>
        <time>2014-12-14T08:48:58Z</time>
      </trkpt>
      <trkpt lat="44.31244" lon="2.6531">
        <ele>683.1538086</ele>
        <time>2014-12-14T08:49:02Z</time>
      </trkpt>
      <trkpt lat="44.31235" lon="2.6532">
        <ele>680.7507324</ele>
        <time>2014-12-14T08:49:06Z</time>
      </trkpt>
      <trkpt lat="44.3123" lon="2.65322">
        <ele>679.3085938</ele>
        <time>2014-12-14T08:49:08Z</time>
      </trkpt>
      <trkpt lat="44.31216" lon="2.65336">
        <ele>675.9440918</ele>
        <time>2014-12-14T08:49:14Z</time>
      </trkpt>
      <trkpt lat="44.31208" lon="2.65348">
        <ele>674.0214844</ele>
        <time>2014-12-14T08:49:18Z</time>
      </trkpt>
      <trkpt lat="44.31197" lon="2.6536">
        <ele>672.5795898</ele>
        <time>2014-12-14T08:49:23Z</time>
      </trkpt>
      <trkpt lat="44.31184" lon="2.65371">
        <ele>672.098877</ele>
        <time>2014-12-14T08:49:28Z</time>
      </trkpt>
      <trkpt lat="44.31171" lon="2.65376">
        <ele>671.6181641</ele>
        <time>2014-12-14T08:49:32Z</time>
      </trkpt>
      <trkpt lat="44.31151" lon="2.6538">
        <ele>668.734375</ele>
        <time>2014-12-14T08:49:39Z</time>
      </trkpt>
      <trkpt lat="44.31139" lon="2.65379">
        <ele>666.8115234</ele>
        <time>2014-12-14T08:49:44Z</time>
      </trkpt>
      <trkpt lat="44.31128" lon="2.65372">
        <ele>663.9274902</ele>
        <time>2014-12-14T08:49:49Z</time>
      </trkpt>
      <trkpt lat="44.3112" lon="2.65367">
        <ele>661.5244141</ele>
        <time>2014-12-14T08:49:53Z</time>
      </trkpt>
      <trkpt lat="44.31108" lon="2.6536">
        <ele>658.1599121</ele>
        <time>2014-12-14T08:49:59Z</time>
      </trkpt>
      <trkpt lat="44.31095" lon="2.65358">
        <ele>654.3146973</ele>
        <time>2014-12-14T08:50:04Z</time>
      </trkpt>
      <trkpt lat="44.31084" lon="2.65359">
        <ele>651.4304199</ele>
        <time>2014-12-14T08:50:08Z</time>
      </trkpt>
      <trkpt lat="44.31071" lon="2.65362">
        <ele>649.0270996</ele>
        <time>2014-12-14T08:50:13Z</time>
      </trkpt>
      <trkpt lat="44.31068" lon="2.65362">
        <ele>648.065918</ele>
        <time>2014-12-14T08:50:14Z</time>
      </trkpt>
      <trkpt lat="44.31054" lon="2.65368">
        <ele>646.1433105</ele>
        <time>2014-12-14T08:50:19Z</time>
      </trkpt>
      <trkpt lat="44.31052" lon="2.65369">
        <ele>646.1433105</ele>
        <time>2014-12-14T08:50:20Z</time>
      </trkpt>
      <trkpt lat="44.31037" lon="2.6538">
        <ele>643.7399902</ele>
        <time>2014-12-14T08:50:26Z</time>
      </trkpt>
      <trkpt lat="44.31023" lon="2.65388">
        <ele>642.2980957</ele>
        <time>2014-12-14T08:50:31Z</time>
      </trkpt>
      <trkpt lat="44.3101" lon="2.65395">
        <ele>641.3366699</ele>
        <time>2014-12-14T08:50:36Z</time>
      </trkpt>
      <trkpt lat="44.31001" lon="2.65404">
        <ele>639.8947754</ele>
        <time>2014-12-14T08:50:40Z</time>
      </trkpt>
      <trkpt lat="44.30993" lon="2.65412">
        <ele>637.4914551</ele>
        <time>2014-12-14T08:50:44Z</time>
      </trkpt>
      <trkpt lat="44.3098" lon="2.65419">
        <ele>634.6074219</ele>
        <time>2014-12-14T08:50:49Z</time>
      </trkpt>
      <trkpt lat="44.30973" lon="2.65422">
        <ele>633.6459961</ele>
        <time>2014-12-14T08:50:52Z</time>
      </trkpt>
      <trkpt lat="44.3096" lon="2.65428">
        <ele>632.2041016</ele>
        <time>2014-12-14T08:50:57Z</time>
      </trkpt>
      <trkpt lat="44.30942" lon="2.65442">
        <ele>630.2814941</ele>
        <time>2014-12-14T08:51:03Z</time>
      </trkpt>
      <trkpt lat="44.30928" lon="2.65444">
        <ele>626.9169922</ele>
        <time>2014-12-14T08:51:08Z</time>
      </trkpt>
      <trkpt lat="44.30919" lon="2.65453">
        <ele>626.4362793</ele>
        <time>2014-12-14T08:51:12Z</time>
      </trkpt>
      <trkpt lat="44.30914" lon="2.65461">
        <ele>624.9943848</ele>
        <time>2014-12-14T08:51:15Z</time>
      </trkpt>
      <trkpt lat="44.3091" lon="2.65477">
        <ele>624.9943848</ele>
        <time>2014-12-14T08:51:20Z</time>
      </trkpt>
      <trkpt lat="44.30907" lon="2.65483">
        <ele>624.9943848</ele>
        <time>2014-12-14T08:51:22Z</time>
      </trkpt>
      <trkpt lat="44.30894" lon="2.65496">
        <ele>625.9555664</ele>
        <time>2014-12-14T08:51:28Z</time>
      </trkpt>
      <trkpt lat="44.30882" lon="2.65504">
        <ele>626.9169922</ele>
        <time>2014-12-14T08:51:33Z</time>
      </trkpt>
      <trkpt lat="44.3088" lon="2.65507">
        <ele>626.4362793</ele>
        <time>2014-12-14T08:51:34Z</time>
      </trkpt>
      <trkpt lat="44.30866" lon="2.65511">
        <ele>625.9555664</ele>
        <time>2014-12-14T08:51:39Z</time>
      </trkpt>
      <trkpt lat="44.30855" lon="2.65511">
        <ele>626.9169922</ele>
        <time>2014-12-14T08:51:43Z</time>
      </trkpt>
      <trkpt lat="44.30846" lon="2.65511">
        <ele>626.9169922</ele>
        <time>2014-12-14T08:51:46Z</time>
      </trkpt>
      <trkpt lat="44.30833" lon="2.65515">
        <ele>625.9555664</ele>
        <time>2014-12-14T08:51:52Z</time>
      </trkpt>
      <trkpt lat="44.3083" lon="2.65517">
        <ele>626.4362793</ele>
        <time>2014-12-14T08:51:53Z</time>
      </trkpt>
      <trkpt lat="44.30815" lon="2.65527">
        <ele>626.4362793</ele>
        <time>2014-12-14T08:51:59Z</time>
      </trkpt>
      <trkpt lat="44.30805" lon="2.65528">
        <ele>625.9555664</ele>
        <time>2014-12-14T08:52:03Z</time>
      </trkpt>
      <trkpt lat="44.30793" lon="2.65531">
        <ele>626.4362793</ele>
        <time>2014-12-14T08:52:08Z</time>
      </trkpt>
      <trkpt lat="44.30782" lon="2.65541">
        <ele>626.9169922</ele>
        <time>2014-12-14T08:52:13Z</time>
      </trkpt>
      <trkpt lat="44.30769" lon="2.65552">
        <ele>626.9169922</ele>
        <time>2014-12-14T08:52:18Z</time>
      </trkpt>
      <trkpt lat="44.3076" lon="2.65555">
        <ele>627.3977051</ele>
        <time>2014-12-14T08:52:22Z</time>
      </trkpt>
      <trkpt lat="44.30757" lon="2.65555">
        <ele>627.8781738</ele>
        <time>2014-12-14T08:52:23Z</time>
      </trkpt>
      <trkpt lat="44.30749" lon="2.65554">
        <ele>628.3588867</ele>
        <time>2014-12-14T08:52:26Z</time>
      </trkpt>
      <trkpt lat="44.30736" lon="2.65568">
        <ele>629.3200684</ele>
        <time>2014-12-14T08:52:32Z</time>
      </trkpt>
      <trkpt lat="44.30728" lon="2.65583">
        <ele>630.762207</ele>
        <time>2014-12-14T08:52:37Z</time>
      </trkpt>
      <trkpt lat="44.3073" lon="2.65594">
        <ele>629.8007813</ele>
        <time>2014-12-14T08:52:41Z</time>
      </trkpt>
      <trkpt lat="44.3074" lon="2.65607">
        <ele>632.6848145</ele>
        <time>2014-12-14T08:52:47Z</time>
      </trkpt>
      <trkpt lat="44.30746" lon="2.65622">
        <ele>633.1652832</ele>
        <time>2014-12-14T08:52:52Z</time>
      </trkpt>
      <trkpt lat="44.30742" lon="2.65639">
        <ele>636.0495605</ele>
        <time>2014-12-14T08:52:58Z</time>
      </trkpt>
      <trkpt lat="44.30737" lon="2.6565">
        <ele>637.4914551</ele>
        <time>2014-12-14T08:53:02Z</time>
      </trkpt>
      <trkpt lat="44.3073" lon="2.65657">
        <ele>638.4528809</ele>
        <time>2014-12-14T08:53:06Z</time>
      </trkpt>
      <trkpt lat="44.30725" lon="2.6567">
        <ele>638.4528809</ele>
        <time>2014-12-14T08:53:11Z</time>
      </trkpt>
      <trkpt lat="44.30719" lon="2.65675">
        <ele>638.9335938</ele>
        <time>2014-12-14T08:53:15Z</time>
      </trkpt>
      <trkpt lat="44.30711" lon="2.65684">
        <ele>639.8947754</ele>
        <time>2014-12-14T08:53:20Z</time>
      </trkpt>
      <trkpt lat="44.30709" lon="2.65689">
        <ele>639.8947754</ele>
        <time>2014-12-14T08:53:22Z</time>
      </trkpt>
      <trkpt lat="44.30711" lon="2.65709">
        <ele>640.855957</ele>
        <time>2014-12-14T08:53:28Z</time>
      </trkpt>
      <trkpt lat="44.30714" lon="2.6572">
        <ele>640.855957</ele>
        <time>2014-12-14T08:53:32Z</time>
      </trkpt>
      <trkpt lat="44.30717" lon="2.65731">
        <ele>640.855957</ele>
        <time>2014-12-14T08:53:36Z</time>
      </trkpt>
      <trkpt lat="44.3072" lon="2.65745">
        <ele>640.855957</ele>
        <time>2014-12-14T08:53:40Z</time>
      </trkpt>
      <trkpt lat="44.3072" lon="2.65752">
        <ele>641.3366699</ele>
        <time>2014-12-14T08:53:42Z</time>
      </trkpt>
      <trkpt lat="44.30723" lon="2.65772">
        <ele>641.8173828</ele>
        <time>2014-12-14T08:53:48Z</time>
      </trkpt>
      <trkpt lat="44.30729" lon="2.65787">
        <ele>641.3366699</ele>
        <time>2014-12-14T08:53:53Z</time>
      </trkpt>
      <trkpt lat="44.30734" lon="2.65802">
        <ele>641.8173828</ele>
        <time>2014-12-14T08:53:58Z</time>
      </trkpt>
      <trkpt lat="44.30739" lon="2.65813">
        <ele>643.2592773</ele>
        <time>2014-12-14T08:54:02Z</time>
      </trkpt>
      <trkpt lat="44.30744" lon="2.65827">
        <ele>644.2207031</ele>
        <time>2014-12-14T08:54:07Z</time>
      </trkpt>
      <trkpt lat="44.30747" lon="2.65842">
        <ele>644.7011719</ele>
        <time>2014-12-14T08:54:12Z</time>
      </trkpt>
      <trkpt lat="44.30746" lon="2.65857">
        <ele>645.6625977</ele>
        <time>2014-12-14T08:54:17Z</time>
      </trkpt>
      <trkpt lat="44.30745" lon="2.65873">
        <ele>647.5852051</ele>
        <time>2014-12-14T08:54:22Z</time>
      </trkpt>
      <trkpt lat="44.30746" lon="2.65894">
        <ele>649.0270996</ele>
        <time>2014-12-14T08:54:29Z</time>
      </trkpt>
      <trkpt lat="44.30749" lon="2.6591">
        <ele>649.9885254</ele>
        <time>2014-12-14T08:54:35Z</time>
      </trkpt>
      <trkpt lat="44.30751" lon="2.65927">
        <ele>649.5078125</ele>
        <time>2014-12-14T08:54:41Z</time>
      </trkpt>
      <trkpt lat="44.30752" lon="2.65931">
        <ele>650.4692383</ele>
        <time>2014-12-14T08:54:43Z</time>
      </trkpt>
      <trkpt lat="44.30747" lon="2.65947">
        <ele>652.8725586</ele>
        <time>2014-12-14T08:54:50Z</time>
      </trkpt>
      <trkpt lat="44.30742" lon="2.65957">
        <ele>654.3146973</ele>
        <time>2014-12-14T08:54:55Z</time>
      </trkpt>
      <trkpt lat="44.30741" lon="2.65963">
        <ele>654.3146973</ele>
        <time>2014-12-14T08:54:57Z</time>
      </trkpt>
      <trkpt lat="44.30739" lon="2.65974">
        <ele>655.7565918</ele>
        <time>2014-12-14T08:55:03Z</time>
      </trkpt>
      <trkpt lat="44.30736" lon="2.65987">
        <ele>657.6791992</ele>
        <time>2014-12-14T08:55:09Z</time>
      </trkpt>
      <trkpt lat="44.30736" lon="2.6599">
        <ele>657.6791992</ele>
        <time>2014-12-14T08:55:10Z</time>
      </trkpt>
      <trkpt lat="44.30733" lon="2.66">
        <ele>658.6403809</ele>
        <time>2014-12-14T08:55:15Z</time>
      </trkpt>
      <trkpt lat="44.30732" lon="2.66013">
        <ele>660.5629883</ele>
        <time>2014-12-14T08:55:21Z</time>
      </trkpt>
      <trkpt lat="44.30731" lon="2.6602">
        <ele>661.0437012</ele>
        <time>2014-12-14T08:55:24Z</time>
      </trkpt>
      <trkpt lat="44.30728" lon="2.66028">
        <ele>661.5244141</ele>
        <time>2014-12-14T08:55:28Z</time>
      </trkpt>
      <trkpt lat="44.30725" lon="2.66039">
        <ele>663.4470215</ele>
        <time>2014-12-14T08:55:34Z</time>
      </trkpt>
      <trkpt lat="44.30725" lon="2.66041">
        <ele>663.9274902</ele>
        <time>2014-12-14T08:55:35Z</time>
      </trkpt>
      <trkpt lat="44.3072" lon="2.66052">
        <ele>664.4082031</ele>
        <time>2014-12-14T08:55:41Z</time>
      </trkpt>
      <trkpt lat="44.30717" lon="2.66059">
        <ele>664.4082031</ele>
        <time>2014-12-14T08:55:45Z</time>
      </trkpt>
      <trkpt lat="44.3071" lon="2.66068">
        <ele>666.8115234</ele>
        <time>2014-12-14T08:55:51Z</time>
      </trkpt>
      <trkpt lat="44.30707" lon="2.66071">
        <ele>667.2922363</ele>
        <time>2014-12-14T08:55:53Z</time>
      </trkpt>
      <trkpt lat="44.30701" lon="2.66078">
        <ele>666.3308105</ele>
        <time>2014-12-14T08:55:59Z</time>
      </trkpt>
      <trkpt lat="44.30699" lon="2.66081">
        <ele>665.3696289</ele>
        <time>2014-12-14T08:56:01Z</time>
      </trkpt>
      <trkpt lat="44.30697" lon="2.66087">
        <ele>662.9663086</ele>
        <time>2014-12-14T08:56:05Z</time>
      </trkpt>
      <trkpt lat="44.30693" lon="2.66093">
        <ele>663.4470215</ele>
        <time>2014-12-14T08:56:11Z</time>
      </trkpt>
      <trkpt lat="44.30687" lon="2.661">
        <ele>664.888916</ele>
        <time>2014-12-14T08:56:19Z</time>
      </trkpt>
      <trkpt lat="44.30686" lon="2.66103">
        <ele>664.888916</ele>
        <time>2014-12-14T08:56:21Z</time>
      </trkpt>
      <trkpt lat="44.30685" lon="2.66106">
        <ele>663.9274902</ele>
        <time>2014-12-14T08:56:24Z</time>
      </trkpt>
      <trkpt lat="44.30681" lon="2.66111">
        <ele>663.9274902</ele>
        <time>2014-12-14T08:56:28Z</time>
      </trkpt>
      <trkpt lat="44.30674" lon="2.66116">
        <ele>667.7727051</ele>
        <time>2014-12-14T08:56:36Z</time>
      </trkpt>
      <trkpt lat="44.30671" lon="2.66122">
        <ele>671.1376953</ele>
        <time>2014-12-14T08:56:41Z</time>
      </trkpt>
      <trkpt lat="44.30667" lon="2.66129">
        <ele>673.5410156</ele>
        <time>2014-12-14T08:56:45Z</time>
      </trkpt>
      <trkpt lat="44.3066" lon="2.6614">
        <ele>679.7893066</ele>
        <time>2014-12-14T08:56:54Z</time>
      </trkpt>
      <trkpt lat="44.30658" lon="2.66147">
        <ele>679.7893066</ele>
        <time>2014-12-14T08:56:59Z</time>
      </trkpt>
      <trkpt lat="44.30653" lon="2.6616">
        <ele>684.1154785</ele>
        <time>2014-12-14T08:57:06Z</time>
      </trkpt>
      <trkpt lat="44.30647" lon="2.66168">
        <ele>686.9992676</ele>
        <time>2014-12-14T08:57:12Z</time>
      </trkpt>
      <trkpt lat="44.30646" lon="2.6617">
        <ele>686.0380859</ele>
        <time>2014-12-14T08:57:14Z</time>
      </trkpt>
      <trkpt lat="44.30643" lon="2.66177">
        <ele>682.192627</ele>
        <time>2014-12-14T08:57:21Z</time>
      </trkpt>
      <trkpt lat="44.30637" lon="2.66184">
        <ele>680.7507324</ele>
        <time>2014-12-14T08:57:28Z</time>
      </trkpt>
      <trkpt lat="44.30636" lon="2.66185">
        <ele>681.7119141</ele>
        <time>2014-12-14T08:57:29Z</time>
      </trkpt>
      <trkpt lat="44.30629" lon="2.66193">
        <ele>686.0380859</ele>
        <time>2014-12-14T08:57:37Z</time>
      </trkpt>
      <trkpt lat="44.30627" lon="2.66194">
        <ele>685.557373</ele>
        <time>2014-12-14T08:57:40Z</time>
      </trkpt>
      <trkpt lat="44.30619" lon="2.66203">
        <ele>686.0380859</ele>
        <time>2014-12-14T08:57:48Z</time>
      </trkpt>
      <trkpt lat="44.30613" lon="2.6621">
        <ele>687.9606934</ele>
        <time>2014-12-14T08:57:54Z</time>
      </trkpt>
      <trkpt lat="44.30612" lon="2.66211">
        <ele>688.9221191</ele>
        <time>2014-12-14T08:57:55Z</time>
      </trkpt>
      <trkpt lat="44.30607" lon="2.66218">
        <ele>692.767334</ele>
        <time>2014-12-14T08:58:02Z</time>
      </trkpt>
      <trkpt lat="44.30606" lon="2.66227">
        <ele>695.651123</ele>
        <time>2014-12-14T08:58:09Z</time>
      </trkpt>
      <trkpt lat="44.30602" lon="2.66235">
        <ele>698.5349121</ele>
        <time>2014-12-14T08:58:14Z</time>
      </trkpt>
      <trkpt lat="44.306" lon="2.66241">
        <ele>699.015625</ele>
        <time>2014-12-14T08:58:18Z</time>
      </trkpt>
      <trkpt lat="44.30596" lon="2.66251">
        <ele>702.861084</ele>
        <time>2014-12-14T08:58:25Z</time>
      </trkpt>
      <trkpt lat="44.30594" lon="2.66256">
        <ele>701.8999023</ele>
        <time>2014-12-14T08:58:28Z</time>
      </trkpt>
      <trkpt lat="44.30592" lon="2.66269">
        <ele>702.3803711</ele>
        <time>2014-12-14T08:58:37Z</time>
      </trkpt>
      <trkpt lat="44.30589" lon="2.66276">
        <ele>703.8225098</ele>
        <time>2014-12-14T08:58:43Z</time>
      </trkpt>
      <trkpt lat="44.30588" lon="2.66279">
        <ele>705.2644043</ele>
        <time>2014-12-14T08:58:45Z</time>
      </trkpt>
      <trkpt lat="44.30586" lon="2.66284">
        <ele>706.7062988</ele>
        <time>2014-12-14T08:58:49Z</time>
      </trkpt>
      <trkpt lat="44.30586" lon="2.66289">
        <ele>707.1870117</ele>
        <time>2014-12-14T08:58:52Z</time>
      </trkpt>
      <trkpt lat="44.30585" lon="2.66298">
        <ele>710.0708008</ele>
        <time>2014-12-14T08:58:57Z</time>
      </trkpt>
      <trkpt lat="44.30583" lon="2.66312">
        <ele>715.3581543</ele>
        <time>2014-12-14T08:59:04Z</time>
      </trkpt>
      <trkpt lat="44.30579" lon="2.66317">
        <ele>717.7614746</ele>
        <time>2014-12-14T08:59:08Z</time>
      </trkpt>
      <trkpt lat="44.30575" lon="2.66328">
        <ele>721.1262207</ele>
        <time>2014-12-14T08:59:15Z</time>
      </trkpt>
      <trkpt lat="44.30574" lon="2.66332">
        <ele>722.0874023</ele>
        <time>2014-12-14T08:59:18Z</time>
      </trkpt>
      <trkpt lat="44.30571" lon="2.66342">
        <ele>722.0874023</ele>
        <time>2014-12-14T08:59:24Z</time>
      </trkpt>
      <trkpt lat="44.30569" lon="2.6635">
        <ele>723.0488281</ele>
        <time>2014-12-14T08:59:29Z</time>
      </trkpt>
      <trkpt lat="44.30565" lon="2.66363">
        <ele>725.9326172</ele>
        <time>2014-12-14T08:59:37Z</time>
      </trkpt>
      <trkpt lat="44.30565" lon="2.66366">
        <ele>726.894043</ele>
        <time>2014-12-14T08:59:39Z</time>
      </trkpt>
      <trkpt lat="44.30565" lon="2.66375">
        <ele>728.3359375</ele>
        <time>2014-12-14T08:59:45Z</time>
      </trkpt>
      <trkpt lat="44.30562" lon="2.66381">
        <ele>729.777832</ele>
        <time>2014-12-14T08:59:49Z</time>
      </trkpt>
      <trkpt lat="44.30558" lon="2.66388">
        <ele>730.2585449</ele>
        <time>2014-12-14T08:59:52Z</time>
      </trkpt>
      <trkpt lat="44.3055" lon="2.66401">
        <ele>732.6621094</ele>
        <time>2014-12-14T08:59:58Z</time>
      </trkpt>
      <trkpt lat="44.30543" lon="2.66413">
        <ele>734.5847168</ele>
        <time>2014-12-14T09:00:04Z</time>
      </trkpt>
      <trkpt lat="44.30539" lon="2.66425">
        <ele>735.5458984</ele>
        <time>2014-12-14T09:00:09Z</time>
      </trkpt>
      <trkpt lat="44.30536" lon="2.66432">
        <ele>735.5458984</ele>
        <time>2014-12-14T09:00:13Z</time>
      </trkpt>
      <trkpt lat="44.30535" lon="2.66434">
        <ele>735.5458984</ele>
        <time>2014-12-14T09:00:14Z</time>
      </trkpt>
      <trkpt lat="44.30534" lon="2.66436">
        <ele>736.0266113</ele>
        <time>2014-12-14T09:00:21Z</time>
      </trkpt>
      <trkpt lat="44.30533" lon="2.66448">
        <ele>736.5073242</ele>
        <time>2014-12-14T09:00:26Z</time>
      </trkpt>
      <trkpt lat="44.3053" lon="2.66461">
        <ele>736.0266113</ele>
        <time>2014-12-14T09:00:31Z</time>
      </trkpt>
      <trkpt lat="44.30525" lon="2.66468">
        <ele>736.5073242</ele>
        <time>2014-12-14T09:00:35Z</time>
      </trkpt>
      <trkpt lat="44.3052" lon="2.6648">
        <ele>737.4685059</ele>
        <time>2014-12-14T09:00:41Z</time>
      </trkpt>
      <trkpt lat="44.30517" lon="2.66488">
        <ele>737.9492188</ele>
        <time>2014-12-14T09:00:45Z</time>
      </trkpt>
      <trkpt lat="44.30514" lon="2.66491">
        <ele>737.9492188</ele>
        <time>2014-12-14T09:00:47Z</time>
      </trkpt>
      <trkpt lat="44.30512" lon="2.665">
        <ele>738.9106445</ele>
        <time>2014-12-14T09:00:51Z</time>
      </trkpt>
      <trkpt lat="44.30511" lon="2.66507">
        <ele>739.8718262</ele>
        <time>2014-12-14T09:00:54Z</time>
      </trkpt>
      <trkpt lat="44.30504" lon="2.66524">
        <ele>742.2751465</ele>
        <time>2014-12-14T09:01:00Z</time>
      </trkpt>
      <trkpt lat="44.30498" lon="2.66535">
        <ele>742.7558594</ele>
        <time>2014-12-14T09:01:05Z</time>
      </trkpt>
      <trkpt lat="44.30491" lon="2.66547">
        <ele>742.7558594</ele>
        <time>2014-12-14T09:01:11Z</time>
      </trkpt>
      <trkpt lat="44.30485" lon="2.6656">
        <ele>743.2363281</ele>
        <time>2014-12-14T09:01:17Z</time>
      </trkpt>
      <trkpt lat="44.30477" lon="2.66572">
        <ele>744.6782227</ele>
        <time>2014-12-14T09:01:23Z</time>
      </trkpt>
      <trkpt lat="44.30473" lon="2.66578">
        <ele>746.6010742</ele>
        <time>2014-12-14T09:01:27Z</time>
      </trkpt>
      <trkpt lat="44.30472" lon="2.66583">
        <ele>747.5622559</ele>
        <time>2014-12-14T09:01:29Z</time>
      </trkpt>
      <trkpt lat="44.30465" lon="2.66593">
        <ele>749.0043945</ele>
        <time>2014-12-14T09:01:34Z</time>
      </trkpt>
      <trkpt lat="44.30458" lon="2.66604">
        <ele>751.4077148</ele>
        <time>2014-12-14T09:01:40Z</time>
      </trkpt>
      <trkpt lat="44.30455" lon="2.66607">
        <ele>751.4077148</ele>
        <time>2014-12-14T09:01:42Z</time>
      </trkpt>
      <trkpt lat="44.30449" lon="2.66619">
        <ele>752.3688965</ele>
        <time>2014-12-14T09:01:47Z</time>
      </trkpt>
      <trkpt lat="44.30447" lon="2.6662">
        <ele>751.8884277</ele>
        <time>2014-12-14T09:01:52Z</time>
      </trkpt>
      <trkpt lat="44.30446" lon="2.66623">
        <ele>752.3688965</ele>
        <time>2014-12-14T09:01:56Z</time>
      </trkpt>
      <trkpt lat="44.30439" lon="2.66638">
        <ele>753.3303223</ele>
        <time>2014-12-14T09:02:01Z</time>
      </trkpt>
      <trkpt lat="44.30433" lon="2.66646">
        <ele>754.291748</ele>
        <time>2014-12-14T09:02:05Z</time>
      </trkpt>
      <trkpt lat="44.30426" lon="2.66652">
        <ele>755.7336426</ele>
        <time>2014-12-14T09:02:09Z</time>
      </trkpt>
      <trkpt lat="44.30423" lon="2.66667">
        <ele>756.6948242</ele>
        <time>2014-12-14T09:02:14Z</time>
      </trkpt>
      <trkpt lat="44.30426" lon="2.66685">
        <ele>757.1755371</ele>
        <time>2014-12-14T09:02:19Z</time>
      </trkpt>
      <trkpt lat="44.30424" lon="2.667">
        <ele>758.1369629</ele>
        <time>2014-12-14T09:02:23Z</time>
      </trkpt>
      <trkpt lat="44.30417" lon="2.66715">
        <ele>759.0981445</ele>
        <time>2014-12-14T09:02:28Z</time>
      </trkpt>
      <trkpt lat="44.3041" lon="2.66728">
        <ele>760.5400391</ele>
        <time>2014-12-14T09:02:33Z</time>
      </trkpt>
      <trkpt lat="44.30404" lon="2.66743">
        <ele>761.020752</ele>
        <time>2014-12-14T09:02:38Z</time>
      </trkpt>
      <trkpt lat="44.304" lon="2.6676">
        <ele>760.5400391</ele>
        <time>2014-12-14T09:02:43Z</time>
      </trkpt>
      <trkpt lat="44.30397" lon="2.66774">
        <ele>760.0593262</ele>
        <time>2014-12-14T09:02:47Z</time>
      </trkpt>
      <trkpt lat="44.30393" lon="2.66788">
        <ele>760.5400391</ele>
        <time>2014-12-14T09:02:51Z</time>
      </trkpt>
      <trkpt lat="44.30389" lon="2.66807">
        <ele>761.020752</ele>
        <time>2014-12-14T09:02:56Z</time>
      </trkpt>
      <trkpt lat="44.30384" lon="2.66832">
        <ele>759.5788574</ele>
        <time>2014-12-14T09:03:03Z</time>
      </trkpt>
      <trkpt lat="44.30383" lon="2.66835">
        <ele>759.5788574</ele>
        <time>2014-12-14T09:03:04Z</time>
      </trkpt>
      <trkpt lat="44.30378" lon="2.66862">
        <ele>760.5400391</ele>
        <time>2014-12-14T09:03:12Z</time>
      </trkpt>
      <trkpt lat="44.30376" lon="2.66882">
        <ele>761.5014648</ele>
        <time>2014-12-14T09:03:18Z</time>
      </trkpt>
      <trkpt lat="44.30377" lon="2.66898">
        <ele>762.4626465</ele>
        <time>2014-12-14T09:03:23Z</time>
      </trkpt>
      <trkpt lat="44.30378" lon="2.66905">
        <ele>762.9433594</ele>
        <time>2014-12-14T09:03:25Z</time>
      </trkpt>
      <trkpt lat="44.30389" lon="2.66922">
        <ele>764.385498</ele>
        <time>2014-12-14T09:03:31Z</time>
      </trkpt>
      <trkpt lat="44.30394" lon="2.66926">
        <ele>765.3469238</ele>
        <time>2014-12-14T09:03:33Z</time>
      </trkpt>
      <trkpt lat="44.30409" lon="2.66929">
        <ele>766.3081055</ele>
        <time>2014-12-14T09:03:38Z</time>
      </trkpt>
      <trkpt lat="44.30425" lon="2.66926">
        <ele>765.3469238</ele>
        <time>2014-12-14T09:03:44Z</time>
      </trkpt>
      <trkpt lat="44.30437" lon="2.66923">
        <ele>765.3469238</ele>
        <time>2014-12-14T09:03:49Z</time>
      </trkpt>
      <trkpt lat="44.30453" lon="2.66919">
        <ele>764.8662109</ele>
        <time>2014-12-14T09:03:55Z</time>
      </trkpt>
      <trkpt lat="44.30469" lon="2.66916">
        <ele>763.4240723</ele>
        <time>2014-12-14T09:04:01Z</time>
      </trkpt>
      <trkpt lat="44.30482" lon="2.66914">
        <ele>762.9433594</ele>
        <time>2014-12-14T09:04:06Z</time>
      </trkpt>
      <trkpt lat="44.30497" lon="2.66909">
        <ele>761.020752</ele>
        <time>2014-12-14T09:04:12Z</time>
      </trkpt>
      <trkpt lat="44.30498" lon="2.66909">
        <ele>761.020752</ele>
        <time>2014-12-14T09:04:13Z</time>
      </trkpt>
      <trkpt lat="44.30499" lon="2.66909">
        <ele>760.5400391</ele>
        <time>2014-12-14T09:04:28Z</time>
      </trkpt>
      <trkpt lat="44.30502" lon="2.66908">
        <ele>760.0593262</ele>
        <time>2014-12-14T09:04:31Z</time>
      </trkpt>
      <trkpt lat="44.30505" lon="2.6691">
        <ele>760.0593262</ele>
        <time>2014-12-14T09:04:38Z</time>
      </trkpt>
      <trkpt lat="44.30506" lon="2.66907">
        <ele>761.9821777</ele>
        <time>2014-12-14T09:05:00Z</time>
      </trkpt>
      <trkpt lat="44.30516" lon="2.66893">
        <ele>760.5400391</ele>
        <time>2014-12-14T09:05:06Z</time>
      </trkpt>
      <trkpt lat="44.30527" lon="2.66883">
        <ele>759.0981445</ele>
        <time>2014-12-14T09:05:11Z</time>
      </trkpt>
      <trkpt lat="44.30533" lon="2.66876">
        <ele>758.6174316</ele>
        <time>2014-12-14T09:05:14Z</time>
      </trkpt>
      <trkpt lat="44.30545" lon="2.66861">
        <ele>757.65625</ele>
        <time>2014-12-14T09:05:20Z</time>
      </trkpt>
      <trkpt lat="44.30559" lon="2.66844">
        <ele>756.2141113</ele>
        <time>2014-12-14T09:05:27Z</time>
      </trkpt>
      <trkpt lat="44.3057" lon="2.66833">
        <ele>755.2529297</ele>
        <time>2014-12-14T09:05:32Z</time>
      </trkpt>
      <trkpt lat="44.30581" lon="2.66824">
        <ele>754.291748</ele>
        <time>2014-12-14T09:05:37Z</time>
      </trkpt>
      <trkpt lat="44.30593" lon="2.66817">
        <ele>753.8110352</ele>
        <time>2014-12-14T09:05:42Z</time>
      </trkpt>
      <trkpt lat="44.30603" lon="2.66811">
        <ele>753.8110352</ele>
        <time>2014-12-14T09:05:47Z</time>
      </trkpt>
      <trkpt lat="44.30613" lon="2.66806">
        <ele>754.291748</ele>
        <time>2014-12-14T09:05:51Z</time>
      </trkpt>
      <trkpt lat="44.30628" lon="2.66799">
        <ele>753.8110352</ele>
        <time>2014-12-14T09:05:57Z</time>
      </trkpt>
      <trkpt lat="44.30642" lon="2.66793">
        <ele>752.8496094</ele>
        <time>2014-12-14T09:06:03Z</time>
      </trkpt>
      <trkpt lat="44.30656" lon="2.66791">
        <ele>752.8496094</ele>
        <time>2014-12-14T09:06:08Z</time>
      </trkpt>
      <trkpt lat="44.30661" lon="2.6679">
        <ele>753.3303223</ele>
        <time>2014-12-14T09:06:10Z</time>
      </trkpt>
      <trkpt lat="44.30679" lon="2.66792">
        <ele>754.291748</ele>
        <time>2014-12-14T09:06:16Z</time>
      </trkpt>
      <trkpt lat="44.30682" lon="2.66793">
        <ele>754.291748</ele>
        <time>2014-12-14T09:06:17Z</time>
      </trkpt>
      <trkpt lat="44.30697" lon="2.66796">
        <ele>754.7722168</ele>
        <time>2014-12-14T09:06:23Z</time>
      </trkpt>
      <trkpt lat="44.3071" lon="2.668">
        <ele>754.291748</ele>
        <time>2014-12-14T09:06:28Z</time>
      </trkpt>
      <trkpt lat="44.3072" lon="2.66804">
        <ele>753.8110352</ele>
        <time>2014-12-14T09:06:32Z</time>
      </trkpt>
      <trkpt lat="44.30728" lon="2.66806">
        <ele>753.8110352</ele>
        <time>2014-12-14T09:06:35Z</time>
      </trkpt>
      <trkpt lat="44.30744" lon="2.66812">
        <ele>754.7722168</ele>
        <time>2014-12-14T09:06:41Z</time>
      </trkpt>
      <trkpt lat="44.30751" lon="2.66817">
        <ele>754.291748</ele>
        <time>2014-12-14T09:06:44Z</time>
      </trkpt>
      <trkpt lat="44.30766" lon="2.66828">
        <ele>753.8110352</ele>
        <time>2014-12-14T09:06:50Z</time>
      </trkpt>
      <trkpt lat="44.30776" lon="2.6684">
        <ele>752.3688965</ele>
        <time>2014-12-14T09:06:55Z</time>
      </trkpt>
      <trkpt lat="44.30783" lon="2.66849">
        <ele>751.8884277</ele>
        <time>2014-12-14T09:06:58Z</time>
      </trkpt>
      <trkpt lat="44.30792" lon="2.66866">
        <ele>749.0043945</ele>
        <time>2014-12-14T09:07:04Z</time>
      </trkpt>
      <trkpt lat="44.30797" lon="2.66876">
        <ele>748.0432129</ele>
        <time>2014-12-14T09:07:08Z</time>
      </trkpt>
      <trkpt lat="44.30804" lon="2.6689">
        <ele>746.1203613</ele>
        <time>2014-12-14T09:07:13Z</time>
      </trkpt>
      <trkpt lat="44.30814" lon="2.66903">
        <ele>746.6010742</ele>
        <time>2014-12-14T09:07:18Z</time>
      </trkpt>
      <trkpt lat="44.30827" lon="2.66919">
        <ele>746.6010742</ele>
        <time>2014-12-14T09:07:24Z</time>
      </trkpt>
      <trkpt lat="44.30839" lon="2.66935">
        <ele>746.1203613</ele>
        <time>2014-12-14T09:07:30Z</time>
      </trkpt>
      <trkpt lat="44.3085" lon="2.66953">
        <ele>744.6782227</ele>
        <time>2014-12-14T09:07:36Z</time>
      </trkpt>
      <trkpt lat="44.30858" lon="2.66967">
        <ele>744.1977539</ele>
        <time>2014-12-14T09:07:41Z</time>
      </trkpt>
      <trkpt lat="44.30866" lon="2.66982">
        <ele>743.717041</ele>
        <time>2014-12-14T09:07:46Z</time>
      </trkpt>
      <trkpt lat="44.30872" lon="2.66996">
        <ele>743.2363281</ele>
        <time>2014-12-14T09:07:50Z</time>
      </trkpt>
      <trkpt lat="44.30875" lon="2.67009">
        <ele>742.7558594</ele>
        <time>2014-12-14T09:07:55Z</time>
      </trkpt>
      <trkpt lat="44.30879" lon="2.6702">
        <ele>742.7558594</ele>
        <time>2014-12-14T09:08:00Z</time>
      </trkpt>
      <trkpt lat="44.3088" lon="2.67026">
        <ele>741.7944336</ele>
        <time>2014-12-14T09:08:05Z</time>
      </trkpt>
      <trkpt lat="44.30882" lon="2.67033">
        <ele>741.7944336</ele>
        <time>2014-12-14T09:08:10Z</time>
      </trkpt>
      <trkpt lat="44.30883" lon="2.67038">
        <ele>741.7944336</ele>
        <time>2014-12-14T09:08:15Z</time>
      </trkpt>
      <trkpt lat="44.30884" lon="2.67043">
        <ele>741.3137207</ele>
        <time>2014-12-14T09:08:23Z</time>
      </trkpt>
      <trkpt lat="44.30889" lon="2.6706">
        <ele>741.7944336</ele>
        <time>2014-12-14T09:08:28Z</time>
      </trkpt>
      <trkpt lat="44.30894" lon="2.67082">
        <ele>741.3137207</ele>
        <time>2014-12-14T09:08:35Z</time>
      </trkpt>
      <trkpt lat="44.30899" lon="2.67096">
        <ele>741.7944336</ele>
        <time>2014-12-14T09:08:39Z</time>
      </trkpt>
      <trkpt lat="44.30903" lon="2.67113">
        <ele>740.8330078</ele>
        <time>2014-12-14T09:08:45Z</time>
      </trkpt>
      <trkpt lat="44.30908" lon="2.67129">
        <ele>740.8330078</ele>
        <time>2014-12-14T09:08:50Z</time>
      </trkpt>
      <trkpt lat="44.30911" lon="2.67141">
        <ele>741.3137207</ele>
        <time>2014-12-14T09:08:54Z</time>
      </trkpt>
      <trkpt lat="44.30915" lon="2.67161">
        <ele>741.3137207</ele>
        <time>2014-12-14T09:09:00Z</time>
      </trkpt>
      <trkpt lat="44.30918" lon="2.67181">
        <ele>741.3137207</ele>
        <time>2014-12-14T09:09:06Z</time>
      </trkpt>
      <trkpt lat="44.30921" lon="2.67199">
        <ele>743.2363281</ele>
        <time>2014-12-14T09:09:11Z</time>
      </trkpt>
      <trkpt lat="44.30917" lon="2.67215">
        <ele>743.2363281</ele>
        <time>2014-12-14T09:09:16Z</time>
      </trkpt>
      <trkpt lat="44.30915" lon="2.67217">
        <ele>743.2363281</ele>
        <time>2014-12-14T09:09:17Z</time>
      </trkpt>
      <trkpt lat="44.30913" lon="2.6722">
        <ele>743.2363281</ele>
        <time>2014-12-14T09:09:19Z</time>
      </trkpt>
      <trkpt lat="44.30913" lon="2.67225">
        <ele>743.2363281</ele>
        <time>2014-12-14T09:09:21Z</time>
      </trkpt>
      <trkpt lat="44.30908" lon="2.67241">
        <ele>745.6396484</ele>
        <time>2014-12-14T09:09:27Z</time>
      </trkpt>
      <trkpt lat="44.30907" lon="2.67246">
        <ele>745.6396484</ele>
        <time>2014-12-14T09:09:29Z</time>
      </trkpt>
      <trkpt lat="44.30906" lon="2.6725">
        <ele>744.1977539</ele>
        <time>2014-12-14T09:09:31Z</time>
      </trkpt>
      <trkpt lat="44.30904" lon="2.67266">
        <ele>745.1589355</ele>
        <time>2014-12-14T09:09:37Z</time>
      </trkpt>
      <trkpt lat="44.309" lon="2.6728">
        <ele>743.717041</ele>
        <time>2014-12-14T09:09:43Z</time>
      </trkpt>
      <trkpt lat="44.30896" lon="2.67293">
        <ele>742.7558594</ele>
        <time>2014-12-14T09:09:48Z</time>
      </trkpt>
      <trkpt lat="44.30891" lon="2.67304">
        <ele>740.8330078</ele>
        <time>2014-12-14T09:09:53Z</time>
      </trkpt>
      <trkpt lat="44.3089" lon="2.67305">
        <ele>741.3137207</ele>
        <time>2014-12-14T09:09:54Z</time>
      </trkpt>
      <trkpt lat="44.30892" lon="2.67305">
        <ele>744.1977539</ele>
        <time>2014-12-14T09:10:00Z</time>
      </trkpt>
      <trkpt lat="44.30897" lon="2.67287">
        <ele>745.1589355</ele>
        <time>2014-12-14T09:10:06Z</time>
      </trkpt>
      <trkpt lat="44.30902" lon="2.67275">
        <ele>744.6782227</ele>
        <time>2014-12-14T09:10:11Z</time>
      </trkpt>
      <trkpt lat="44.30904" lon="2.67264">
        <ele>745.6396484</ele>
        <time>2014-12-14T09:10:15Z</time>
      </trkpt>
      <trkpt lat="44.30908" lon="2.67248">
        <ele>745.1589355</ele>
        <time>2014-12-14T09:10:20Z</time>
      </trkpt>
      <trkpt lat="44.3091" lon="2.6723">
        <ele>744.1977539</ele>
        <time>2014-12-14T09:10:25Z</time>
      </trkpt>
      <trkpt lat="44.30917" lon="2.67225">
        <ele>741.7944336</ele>
        <time>2014-12-14T09:10:30Z</time>
      </trkpt>
      <trkpt lat="44.30918" lon="2.67227">
        <ele>741.7944336</ele>
        <time>2014-12-14T09:10:31Z</time>
      </trkpt>
      <trkpt lat="44.30919" lon="2.67242">
        <ele>741.7944336</ele>
        <time>2014-12-14T09:10:36Z</time>
      </trkpt>
      <trkpt lat="44.3092" lon="2.67258">
        <ele>741.7944336</ele>
        <time>2014-12-14T09:10:41Z</time>
      </trkpt>
      <trkpt lat="44.30926" lon="2.67277">
        <ele>742.7558594</ele>
        <time>2014-12-14T09:10:47Z</time>
      </trkpt>
      <trkpt lat="44.30932" lon="2.67289">
        <ele>743.2363281</ele>
        <time>2014-12-14T09:10:51Z</time>
      </trkpt>
      <trkpt lat="44.30941" lon="2.67298">
        <ele>743.717041</ele>
        <time>2014-12-14T09:10:55Z</time>
      </trkpt>
      <trkpt lat="44.3095" lon="2.67302">
        <ele>744.1977539</ele>
        <time>2014-12-14T09:10:59Z</time>
      </trkpt>
      <trkpt lat="44.30962" lon="2.67303">
        <ele>743.717041</ele>
        <time>2014-12-14T09:11:04Z</time>
      </trkpt>
      <trkpt lat="44.30971" lon="2.67302">
        <ele>743.2363281</ele>
        <time>2014-12-14T09:11:08Z</time>
      </trkpt>
      <trkpt lat="44.30984" lon="2.673">
        <ele>742.2751465</ele>
        <time>2014-12-14T09:11:13Z</time>
      </trkpt>
      <trkpt lat="44.30997" lon="2.67298">
        <ele>741.7944336</ele>
        <time>2014-12-14T09:11:18Z</time>
      </trkpt>
      <trkpt lat="44.31013" lon="2.67297">
        <ele>741.7944336</ele>
        <time>2014-12-14T09:11:24Z</time>
      </trkpt>
      <trkpt lat="44.31024" lon="2.67294">
        <ele>741.3137207</ele>
        <time>2014-12-14T09:11:28Z</time>
      </trkpt>
      <trkpt lat="44.31036" lon="2.67292">
        <ele>738.9106445</ele>
        <time>2014-12-14T09:11:33Z</time>
      </trkpt>
      <trkpt lat="44.3105" lon="2.67294">
        <ele>737.4685059</ele>
        <time>2014-12-14T09:11:38Z</time>
      </trkpt>
      <trkpt lat="44.31062" lon="2.67295">
        <ele>736.5073242</ele>
        <time>2014-12-14T09:11:42Z</time>
      </trkpt>
      <trkpt lat="44.31074" lon="2.67298">
        <ele>736.5073242</ele>
        <time>2014-12-14T09:11:47Z</time>
      </trkpt>
      <trkpt lat="44.31086" lon="2.67307">
        <ele>736.5073242</ele>
        <time>2014-12-14T09:11:52Z</time>
      </trkpt>
      <trkpt lat="44.31101" lon="2.67314">
        <ele>737.4685059</ele>
        <time>2014-12-14T09:11:57Z</time>
      </trkpt>
      <trkpt lat="44.31103" lon="2.67314">
        <ele>736.987793</ele>
        <time>2014-12-14T09:11:58Z</time>
      </trkpt>
      <trkpt lat="44.31117" lon="2.67308">
        <ele>737.4685059</ele>
        <time>2014-12-14T09:12:03Z</time>
      </trkpt>
      <trkpt lat="44.31119" lon="2.67306">
        <ele>737.9492188</ele>
        <time>2014-12-14T09:12:04Z</time>
      </trkpt>
      <trkpt lat="44.31131" lon="2.67298">
        <ele>737.9492188</ele>
        <time>2014-12-14T09:12:09Z</time>
      </trkpt>
      <trkpt lat="44.31144" lon="2.67295">
        <ele>737.9492188</ele>
        <time>2014-12-14T09:12:14Z</time>
      </trkpt>
      <trkpt lat="44.31151" lon="2.67292">
        <ele>737.9492188</ele>
        <time>2014-12-14T09:12:17Z</time>
      </trkpt>
      <trkpt lat="44.31164" lon="2.67284">
        <ele>737.4685059</ele>
        <time>2014-12-14T09:12:22Z</time>
      </trkpt>
      <trkpt lat="44.31174" lon="2.67279">
        <ele>737.4685059</ele>
        <time>2014-12-14T09:12:26Z</time>
      </trkpt>
      <trkpt lat="44.31184" lon="2.67274">
        <ele>736.987793</ele>
        <time>2014-12-14T09:12:30Z</time>
      </trkpt>
      <trkpt lat="44.31188" lon="2.67271">
        <ele>737.9492188</ele>
        <time>2014-12-14T09:12:32Z</time>
      </trkpt>
      <trkpt lat="44.31197" lon="2.67258">
        <ele>740.8330078</ele>
        <time>2014-12-14T09:12:37Z</time>
      </trkpt>
      <trkpt lat="44.31209" lon="2.67246">
        <ele>743.2363281</ele>
        <time>2014-12-14T09:12:43Z</time>
      </trkpt>
      <trkpt lat="44.31219" lon="2.67233">
        <ele>744.6782227</ele>
        <time>2014-12-14T09:12:49Z</time>
      </trkpt>
      <trkpt lat="44.31227" lon="2.67223">
        <ele>744.6782227</ele>
        <time>2014-12-14T09:12:54Z</time>
      </trkpt>
      <trkpt lat="44.31235" lon="2.67216">
        <ele>744.1977539</ele>
        <time>2014-12-14T09:12:58Z</time>
      </trkpt>
      <trkpt lat="44.31244" lon="2.67214">
        <ele>745.6396484</ele>
        <time>2014-12-14T09:13:02Z</time>
      </trkpt>
      <trkpt lat="44.31251" lon="2.67218">
        <ele>748.5236816</ele>
        <time>2014-12-14T09:13:06Z</time>
      </trkpt>
      <trkpt lat="44.31255" lon="2.67217">
        <ele>749.0043945</ele>
        <time>2014-12-14T09:13:08Z</time>
      </trkpt>
      <trkpt lat="44.31259" lon="2.67217">
        <ele>750.927002</ele>
        <time>2014-12-14T09:13:10Z</time>
      </trkpt>
      <trkpt lat="44.31271" lon="2.67215">
        <ele>753.3303223</ele>
        <time>2014-12-14T09:13:16Z</time>
      </trkpt>
      <trkpt lat="44.31273" lon="2.67215">
        <ele>753.8110352</ele>
        <time>2014-12-14T09:13:17Z</time>
      </trkpt>
      <trkpt lat="44.31283" lon="2.67214">
        <ele>755.2529297</ele>
        <time>2014-12-14T09:13:22Z</time>
      </trkpt>
      <trkpt lat="44.31294" lon="2.67212">
        <ele>756.6948242</ele>
        <time>2014-12-14T09:13:27Z</time>
      </trkpt>
      <trkpt lat="44.31308" lon="2.67211">
        <ele>758.1369629</ele>
        <time>2014-12-14T09:13:33Z</time>
      </trkpt>
      <trkpt lat="44.31317" lon="2.67208">
        <ele>759.0981445</ele>
        <time>2014-12-14T09:13:38Z</time>
      </trkpt>
      <trkpt lat="44.31326" lon="2.67206">
        <ele>761.5014648</ele>
        <time>2014-12-14T09:13:43Z</time>
      </trkpt>
      <trkpt lat="44.31338" lon="2.67203">
        <ele>763.904541</ele>
        <time>2014-12-14T09:13:49Z</time>
      </trkpt>
      <trkpt lat="44.3135" lon="2.67202">
        <ele>765.8276367</ele>
        <time>2014-12-14T09:13:55Z</time>
      </trkpt>
      <trkpt lat="44.31361" lon="2.67201">
        <ele>768.2307129</ele>
        <time>2014-12-14T09:14:01Z</time>
      </trkpt>
      <trkpt lat="44.3137" lon="2.67198">
        <ele>769.1921387</ele>
        <time>2014-12-14T09:14:06Z</time>
      </trkpt>
      <trkpt lat="44.31382" lon="2.67197">
        <ele>771.5952148</ele>
        <time>2014-12-14T09:14:12Z</time>
      </trkpt>
      <trkpt lat="44.31393" lon="2.67199">
        <ele>773.5180664</ele>
        <time>2014-12-14T09:14:17Z</time>
      </trkpt>
      <trkpt lat="44.31404" lon="2.67206">
        <ele>775.4404297</ele>
        <time>2014-12-14T09:14:23Z</time>
      </trkpt>
      <trkpt lat="44.31414" lon="2.67213">
        <ele>776.4018555</ele>
        <time>2014-12-14T09:14:28Z</time>
      </trkpt>
      <trkpt lat="44.31424" lon="2.67225">
        <ele>778.8051758</ele>
        <time>2014-12-14T09:14:34Z</time>
      </trkpt>
      <trkpt lat="44.31434" lon="2.67236">
        <ele>780.2473145</ele>
        <time>2014-12-14T09:14:40Z</time>
      </trkpt>
      <trkpt lat="44.31441" lon="2.67245">
        <ele>780.2473145</ele>
        <time>2014-12-14T09:14:45Z</time>
      </trkpt>
      <trkpt lat="44.31451" lon="2.67259">
        <ele>779.7663574</ele>
        <time>2014-12-14T09:14:52Z</time>
      </trkpt>
      <trkpt lat="44.31455" lon="2.6727">
        <ele>781.689209</ele>
        <time>2014-12-14T09:14:56Z</time>
      </trkpt>
      <trkpt lat="44.31459" lon="2.67287">
        <ele>783.1311035</ele>
        <time>2014-12-14T09:15:01Z</time>
      </trkpt>
      <trkpt lat="44.31464" lon="2.67303">
        <ele>784.0925293</ele>
        <time>2014-12-14T09:15:06Z</time>
      </trkpt>
      <trkpt lat="44.31473" lon="2.6732">
        <ele>785.5344238</ele>
        <time>2014-12-14T09:15:12Z</time>
      </trkpt>
      <trkpt lat="44.31483" lon="2.67332">
        <ele>786.4958496</ele>
        <time>2014-12-14T09:15:17Z</time>
      </trkpt>
      <trkpt lat="44.31494" lon="2.6734">
        <ele>786.4958496</ele>
        <time>2014-12-14T09:15:22Z</time>
      </trkpt>
      <trkpt lat="44.31507" lon="2.67348">
        <ele>786.9763184</ele>
        <time>2014-12-14T09:15:29Z</time>
      </trkpt>
      <trkpt lat="44.31514" lon="2.67352">
        <ele>787.4570313</ele>
        <time>2014-12-14T09:15:32Z</time>
      </trkpt>
      <trkpt lat="44.31522" lon="2.67348">
        <ele>788.418457</ele>
        <time>2014-12-14T09:15:36Z</time>
      </trkpt>
      <trkpt lat="44.31533" lon="2.67355">
        <ele>789.8603516</ele>
        <time>2014-12-14T09:15:41Z</time>
      </trkpt>
      <trkpt lat="44.31541" lon="2.67364">
        <ele>791.3022461</ele>
        <time>2014-12-14T09:15:46Z</time>
      </trkpt>
      <trkpt lat="44.31551" lon="2.67372">
        <ele>792.2636719</ele>
        <time>2014-12-14T09:15:50Z</time>
      </trkpt>
      <trkpt lat="44.31561" lon="2.67377">
        <ele>792.7443848</ele>
        <time>2014-12-14T09:15:54Z</time>
      </trkpt>
      <trkpt lat="44.3157" lon="2.67382">
        <ele>792.2636719</ele>
        <time>2014-12-14T09:15:58Z</time>
      </trkpt>
      <trkpt lat="44.31581" lon="2.67392">
        <ele>792.2636719</ele>
        <time>2014-12-14T09:16:03Z</time>
      </trkpt>
      <trkpt lat="44.31593" lon="2.67405">
        <ele>791.3022461</ele>
        <time>2014-12-14T09:16:09Z</time>
      </trkpt>
      <trkpt lat="44.31606" lon="2.67414">
        <ele>791.782959</ele>
        <time>2014-12-14T09:16:15Z</time>
      </trkpt>
      <trkpt lat="44.31615" lon="2.6742">
        <ele>792.7443848</ele>
        <time>2014-12-14T09:16:19Z</time>
      </trkpt>
      <trkpt lat="44.31624" lon="2.67421">
        <ele>794.1862793</ele>
        <time>2014-12-14T09:16:23Z</time>
      </trkpt>
      <trkpt lat="44.31638" lon="2.6742">
        <ele>795.6281738</ele>
        <time>2014-12-14T09:16:29Z</time>
      </trkpt>
      <trkpt lat="44.31648" lon="2.67418">
        <ele>795.6281738</ele>
        <time>2014-12-14T09:16:33Z</time>
      </trkpt>
      <trkpt lat="44.3166" lon="2.67416">
        <ele>796.1091309</ele>
        <time>2014-12-14T09:16:38Z</time>
      </trkpt>
      <trkpt lat="44.31672" lon="2.67414">
        <ele>797.0703125</ele>
        <time>2014-12-14T09:16:43Z</time>
      </trkpt>
      <trkpt lat="44.31688" lon="2.67413">
        <ele>798.512207</ele>
        <time>2014-12-14T09:16:49Z</time>
      </trkpt>
      <trkpt lat="44.31692" lon="2.67412">
        <ele>798.0317383</ele>
        <time>2014-12-14T09:16:51Z</time>
      </trkpt>
      <trkpt lat="44.31701" lon="2.67409">
        <ele>798.9929199</ele>
        <time>2014-12-14T09:16:55Z</time>
      </trkpt>
      <trkpt lat="44.31711" lon="2.67405">
        <ele>800.9155273</ele>
        <time>2014-12-14T09:17:00Z</time>
      </trkpt>
      <trkpt lat="44.31722" lon="2.67403">
        <ele>800.9155273</ele>
        <time>2014-12-14T09:17:06Z</time>
      </trkpt>
      <trkpt lat="44.31732" lon="2.67408">
        <ele>801.3962402</ele>
        <time>2014-12-14T09:17:11Z</time>
      </trkpt>
      <trkpt lat="44.31742" lon="2.67418">
        <ele>800.9155273</ele>
        <time>2014-12-14T09:17:17Z</time>
      </trkpt>
      <trkpt lat="44.31751" lon="2.67423">
        <ele>801.3962402</ele>
        <time>2014-12-14T09:17:21Z</time>
      </trkpt>
      <trkpt lat="44.3176" lon="2.67426">
        <ele>802.8381348</ele>
        <time>2014-12-14T09:17:25Z</time>
      </trkpt>
      <trkpt lat="44.31778" lon="2.67428">
        <ele>804.7607422</ele>
        <time>2014-12-14T09:17:33Z</time>
      </trkpt>
      <trkpt lat="44.31786" lon="2.67426">
        <ele>805.722168</ele>
        <time>2014-12-14T09:17:37Z</time>
      </trkpt>
      <trkpt lat="44.31793" lon="2.67425">
        <ele>806.6833496</ele>
        <time>2014-12-14T09:17:41Z</time>
      </trkpt>
      <trkpt lat="44.31793" lon="2.67425">
        <ele>806.6833496</ele>
        <time>2014-12-14T09:17:47Z</time>
      </trkpt>
      <trkpt lat="44.31796" lon="2.67428">
        <ele>806.6833496</ele>
        <time>2014-12-14T09:17:50Z</time>
      </trkpt>
      <trkpt lat="44.31802" lon="2.67424">
        <ele>807.1640625</ele>
        <time>2014-12-14T09:17:54Z</time>
      </trkpt>
      <trkpt lat="44.31813" lon="2.67423">
        <ele>807.1640625</ele>
        <time>2014-12-14T09:17:59Z</time>
      </trkpt>
      <trkpt lat="44.31825" lon="2.6742">
        <ele>807.1640625</ele>
        <time>2014-12-14T09:18:04Z</time>
      </trkpt>
      <trkpt lat="44.31832" lon="2.67417">
        <ele>808.1254883</ele>
        <time>2014-12-14T09:18:07Z</time>
      </trkpt>
      <trkpt lat="44.31845" lon="2.6741">
        <ele>809.5673828</ele>
        <time>2014-12-14T09:18:13Z</time>
      </trkpt>
      <trkpt lat="44.31855" lon="2.67402">
        <ele>809.5673828</ele>
        <time>2014-12-14T09:18:18Z</time>
      </trkpt>
      <trkpt lat="44.31862" lon="2.67394">
        <ele>809.0866699</ele>
        <time>2014-12-14T09:18:22Z</time>
      </trkpt>
      <trkpt lat="44.31864" lon="2.67392">
        <ele>808.605957</ele>
        <time>2014-12-14T09:18:23Z</time>
      </trkpt>
      <trkpt lat="44.31869" lon="2.67388">
        <ele>808.605957</ele>
        <time>2014-12-14T09:18:25Z</time>
      </trkpt>
      <trkpt lat="44.31881" lon="2.67385">
        <ele>808.1254883</ele>
        <time>2014-12-14T09:18:30Z</time>
      </trkpt>
      <trkpt lat="44.31887" lon="2.67385">
        <ele>808.1254883</ele>
        <time>2014-12-14T09:18:32Z</time>
      </trkpt>
      <trkpt lat="44.319" lon="2.67384">
        <ele>809.0866699</ele>
        <time>2014-12-14T09:18:37Z</time>
      </trkpt>
      <trkpt lat="44.31916" lon="2.67385">
        <ele>809.5673828</ele>
        <time>2014-12-14T09:18:43Z</time>
      </trkpt>
      <trkpt lat="44.3193" lon="2.67388">
        <ele>810.0478516</ele>
        <time>2014-12-14T09:18:48Z</time>
      </trkpt>
      <trkpt lat="44.31943" lon="2.67395">
        <ele>811.0092773</ele>
        <time>2014-12-14T09:18:53Z</time>
      </trkpt>
      <trkpt lat="44.31957" lon="2.67399">
        <ele>811.4899902</ele>
        <time>2014-12-14T09:18:58Z</time>
      </trkpt>
      <trkpt lat="44.31971" lon="2.67404">
        <ele>812.451416</ele>
        <time>2014-12-14T09:19:03Z</time>
      </trkpt>
      <trkpt lat="44.31985" lon="2.67407">
        <ele>813.4128418</ele>
        <time>2014-12-14T09:19:08Z</time>
      </trkpt>
      <trkpt lat="44.31998" lon="2.67408">
        <ele>814.3740234</ele>
        <time>2014-12-14T09:19:13Z</time>
      </trkpt>
      <trkpt lat="44.32009" lon="2.67404">
        <ele>814.3740234</ele>
        <time>2014-12-14T09:19:17Z</time>
      </trkpt>
      <trkpt lat="44.32018" lon="2.67398">
        <ele>813.4128418</ele>
        <time>2014-12-14T09:19:21Z</time>
      </trkpt>
      <trkpt lat="44.32031" lon="2.67389">
        <ele>813.8933105</ele>
        <time>2014-12-14T09:19:27Z</time>
      </trkpt>
      <trkpt lat="44.32041" lon="2.67382">
        <ele>814.3740234</ele>
        <time>2014-12-14T09:19:32Z</time>
      </trkpt>
      <trkpt lat="44.32054" lon="2.67376">
        <ele>814.3740234</ele>
        <time>2014-12-14T09:19:38Z</time>
      </trkpt>
      <trkpt lat="44.32065" lon="2.67369">
        <ele>814.8547363</ele>
        <time>2014-12-14T09:19:44Z</time>
      </trkpt>
      <trkpt lat="44.32078" lon="2.67365">
        <ele>813.8933105</ele>
        <time>2014-12-14T09:19:50Z</time>
      </trkpt>
      <trkpt lat="44.32093" lon="2.67359">
        <ele>811.9707031</ele>
        <time>2014-12-14T09:19:57Z</time>
      </trkpt>
      <trkpt lat="44.32107" lon="2.67351">
        <ele>811.9707031</ele>
        <time>2014-12-14T09:20:03Z</time>
      </trkpt>
      <trkpt lat="44.32119" lon="2.67344">
        <ele>811.9707031</ele>
        <time>2014-12-14T09:20:08Z</time>
      </trkpt>
      <trkpt lat="44.32134" lon="2.67337">
        <ele>811.4899902</ele>
        <time>2014-12-14T09:20:15Z</time>
      </trkpt>
      <trkpt lat="44.32142" lon="2.67334">
        <ele>811.4899902</ele>
        <time>2014-12-14T09:20:18Z</time>
      </trkpt>
      <trkpt lat="44.32159" lon="2.67329">
        <ele>811.9707031</ele>
        <time>2014-12-14T09:20:25Z</time>
      </trkpt>
      <trkpt lat="44.32167" lon="2.67326">
        <ele>811.9707031</ele>
        <time>2014-12-14T09:20:28Z</time>
      </trkpt>
      <trkpt lat="44.32178" lon="2.67327">
        <ele>812.451416</ele>
        <time>2014-12-14T09:20:33Z</time>
      </trkpt>
      <trkpt lat="44.32186" lon="2.67335">
        <ele>811.9707031</ele>
        <time>2014-12-14T09:20:38Z</time>
      </trkpt>
      <trkpt lat="44.32197" lon="2.67346">
        <ele>811.4899902</ele>
        <time>2014-12-14T09:20:44Z</time>
      </trkpt>
      <trkpt lat="44.322" lon="2.6735">
        <ele>811.4899902</ele>
        <time>2014-12-14T09:20:46Z</time>
      </trkpt>
      <trkpt lat="44.32207" lon="2.67355">
        <ele>811.0092773</ele>
        <time>2014-12-14T09:20:51Z</time>
      </trkpt>
      <trkpt lat="44.32208" lon="2.67348">
        <ele>810.5285645</ele>
        <time>2014-12-14T09:20:53Z</time>
      </trkpt>
      <trkpt lat="44.3221" lon="2.67326">
        <ele>809.5673828</ele>
        <time>2014-12-14T09:20:59Z</time>
      </trkpt>
      <trkpt lat="44.32214" lon="2.67313">
        <ele>809.5673828</ele>
        <time>2014-12-14T09:21:03Z</time>
      </trkpt>
      <trkpt lat="44.32218" lon="2.67293">
        <ele>810.0478516</ele>
        <time>2014-12-14T09:21:08Z</time>
      </trkpt>
      <trkpt lat="44.32222" lon="2.6728">
        <ele>809.0866699</ele>
        <time>2014-12-14T09:21:12Z</time>
      </trkpt>
      <trkpt lat="44.32228" lon="2.67265">
        <ele>808.605957</ele>
        <time>2014-12-14T09:21:16Z</time>
      </trkpt>
      <trkpt lat="44.32229" lon="2.67262">
        <ele>808.1254883</ele>
        <time>2014-12-14T09:21:17Z</time>
      </trkpt>
      <trkpt lat="44.32238" lon="2.6725">
        <ele>806.6833496</ele>
        <time>2014-12-14T09:21:22Z</time>
      </trkpt>
      <trkpt lat="44.32248" lon="2.67236">
        <ele>804.7607422</ele>
        <time>2014-12-14T09:21:27Z</time>
      </trkpt>
      <trkpt lat="44.32256" lon="2.67228">
        <ele>803.7995605</ele>
        <time>2014-12-14T09:21:31Z</time>
      </trkpt>
      <trkpt lat="44.32263" lon="2.67218">
        <ele>802.8381348</ele>
        <time>2014-12-14T09:21:35Z</time>
      </trkpt>
      <trkpt lat="44.32274" lon="2.67201">
        <ele>802.3574219</ele>
        <time>2014-12-14T09:21:41Z</time>
      </trkpt>
      <trkpt lat="44.32283" lon="2.6719">
        <ele>801.3962402</ele>
        <time>2014-12-14T09:21:46Z</time>
      </trkpt>
      <trkpt lat="44.32292" lon="2.6718">
        <ele>800.9155273</ele>
        <time>2014-12-14T09:21:50Z</time>
      </trkpt>
      <trkpt lat="44.323" lon="2.6717">
        <ele>800.9155273</ele>
        <time>2014-12-14T09:21:54Z</time>
      </trkpt>
      <trkpt lat="44.32304" lon="2.67165">
        <ele>800.9155273</ele>
        <time>2014-12-14T09:21:56Z</time>
      </trkpt>
      <trkpt lat="44.32315" lon="2.67155">
        <ele>800.9155273</ele>
        <time>2014-12-14T09:22:01Z</time>
      </trkpt>
      <trkpt lat="44.32329" lon="2.6714">
        <ele>800.9155273</ele>
        <time>2014-12-14T09:22:07Z</time>
      </trkpt>
      <trkpt lat="44.32341" lon="2.67127">
        <ele>800.4350586</ele>
        <time>2014-12-14T09:22:13Z</time>
      </trkpt>
      <trkpt lat="44.32353" lon="2.67117">
        <ele>798.512207</ele>
        <time>2014-12-14T09:22:19Z</time>
      </trkpt>
      <trkpt lat="44.32366" lon="2.67105">
        <ele>797.5510254</ele>
        <time>2014-12-14T09:22:25Z</time>
      </trkpt>
      <trkpt lat="44.32375" lon="2.67098">
        <ele>797.0703125</ele>
        <time>2014-12-14T09:22:29Z</time>
      </trkpt>
      <trkpt lat="44.32388" lon="2.67085">
        <ele>797.5510254</ele>
        <time>2014-12-14T09:22:35Z</time>
      </trkpt>
      <trkpt lat="44.32397" lon="2.67077">
        <ele>798.512207</ele>
        <time>2014-12-14T09:22:39Z</time>
      </trkpt>
      <trkpt lat="44.32408" lon="2.67067">
        <ele>798.512207</ele>
        <time>2014-12-14T09:22:44Z</time>
      </trkpt>
      <trkpt lat="44.32417" lon="2.67054">
        <ele>798.9929199</ele>
        <time>2014-12-14T09:22:49Z</time>
      </trkpt>
      <trkpt lat="44.32426" lon="2.67047">
        <ele>800.4350586</ele>
        <time>2014-12-14T09:22:53Z</time>
      </trkpt>
      <trkpt lat="44.3243" lon="2.67041">
        <ele>800.4350586</ele>
        <time>2014-12-14T09:22:55Z</time>
      </trkpt>
      <trkpt lat="44.32437" lon="2.67033">
        <ele>801.3962402</ele>
        <time>2014-12-14T09:22:59Z</time>
      </trkpt>
      <trkpt lat="44.32452" lon="2.6702">
        <ele>800.9155273</ele>
        <time>2014-12-14T09:23:05Z</time>
      </trkpt>
      <trkpt lat="44.32455" lon="2.67015">
        <ele>800.9155273</ele>
        <time>2014-12-14T09:23:07Z</time>
      </trkpt>
      <trkpt lat="44.32466" lon="2.67006">
        <ele>799.4736328</ele>
        <time>2014-12-14T09:23:12Z</time>
      </trkpt>
      <trkpt lat="44.3248" lon="2.66994">
        <ele>798.512207</ele>
        <time>2014-12-14T09:23:18Z</time>
      </trkpt>
      <trkpt lat="44.32495" lon="2.66982">
        <ele>796.1091309</ele>
        <time>2014-12-14T09:23:24Z</time>
      </trkpt>
      <trkpt lat="44.32505" lon="2.66975">
        <ele>795.1474609</ele>
        <time>2014-12-14T09:23:28Z</time>
      </trkpt>
      <trkpt lat="44.32508" lon="2.66974">
        <ele>794.666748</ele>
        <time>2014-12-14T09:23:29Z</time>
      </trkpt>
      <trkpt lat="44.32518" lon="2.66967">
        <ele>794.1862793</ele>
        <time>2014-12-14T09:23:33Z</time>
      </trkpt>
      <trkpt lat="44.32529" lon="2.66962">
        <ele>793.2248535</ele>
        <time>2014-12-14T09:23:37Z</time>
      </trkpt>
      <trkpt lat="44.32543" lon="2.66956">
        <ele>792.2636719</ele>
        <time>2014-12-14T09:23:42Z</time>
      </trkpt>
      <trkpt lat="44.32558" lon="2.66946">
        <ele>791.782959</ele>
        <time>2014-12-14T09:23:48Z</time>
      </trkpt>
      <trkpt lat="44.3257" lon="2.66938">
        <ele>791.3022461</ele>
        <time>2014-12-14T09:23:53Z</time>
      </trkpt>
      <trkpt lat="44.32582" lon="2.6693">
        <ele>791.3022461</ele>
        <time>2014-12-14T09:23:58Z</time>
      </trkpt>
      <trkpt lat="44.32584" lon="2.66929">
        <ele>791.3022461</ele>
        <time>2014-12-14T09:23:59Z</time>
      </trkpt>
      <trkpt lat="44.32595" lon="2.66918">
        <ele>790.8215332</ele>
        <time>2014-12-14T09:24:04Z</time>
      </trkpt>
      <trkpt lat="44.32606" lon="2.66902">
        <ele>790.3410645</ele>
        <time>2014-12-14T09:24:09Z</time>
      </trkpt>
      <trkpt lat="44.32615" lon="2.66887">
        <ele>788.8991699</ele>
        <time>2014-12-14T09:24:14Z</time>
      </trkpt>
      <trkpt lat="44.3262" lon="2.66871">
        <ele>787.9377441</ele>
        <time>2014-12-14T09:24:19Z</time>
      </trkpt>
      <trkpt lat="44.32625" lon="2.66856">
        <ele>787.4570313</ele>
        <time>2014-12-14T09:24:23Z</time>
      </trkpt>
      <trkpt lat="44.32627" lon="2.66839">
        <ele>786.4958496</ele>
        <time>2014-12-14T09:24:28Z</time>
      </trkpt>
      <trkpt lat="44.32638" lon="2.66825">
        <ele>784.5732422</ele>
        <time>2014-12-14T09:24:33Z</time>
      </trkpt>
      <trkpt lat="44.32643" lon="2.66825">
        <ele>785.0539551</ele>
        <time>2014-12-14T09:24:35Z</time>
      </trkpt>
      <trkpt lat="44.32654" lon="2.66835">
        <ele>786.0151367</ele>
        <time>2014-12-14T09:24:41Z</time>
      </trkpt>
      <trkpt lat="44.32666" lon="2.66837">
        <ele>786.0151367</ele>
        <time>2014-12-14T09:24:46Z</time>
      </trkpt>
      <trkpt lat="44.32682" lon="2.6684">
        <ele>786.4958496</ele>
        <time>2014-12-14T09:24:52Z</time>
      </trkpt>
      <trkpt lat="44.32695" lon="2.6684">
        <ele>784.5732422</ele>
        <time>2014-12-14T09:24:57Z</time>
      </trkpt>
      <trkpt lat="44.32709" lon="2.66844">
        <ele>784.0925293</ele>
        <time>2014-12-14T09:25:02Z</time>
      </trkpt>
      <trkpt lat="44.3272" lon="2.66847">
        <ele>784.0925293</ele>
        <time>2014-12-14T09:25:06Z</time>
      </trkpt>
      <trkpt lat="44.32733" lon="2.66849">
        <ele>784.5732422</ele>
        <time>2014-12-14T09:25:11Z</time>
      </trkpt>
      <trkpt lat="44.32746" lon="2.66847">
        <ele>785.5344238</ele>
        <time>2014-12-14T09:25:16Z</time>
      </trkpt>
      <trkpt lat="44.32763" lon="2.66847">
        <ele>785.0539551</ele>
        <time>2014-12-14T09:25:22Z</time>
      </trkpt>
      <trkpt lat="44.32774" lon="2.66844">
        <ele>785.5344238</ele>
        <time>2014-12-14T09:25:26Z</time>
      </trkpt>
      <trkpt lat="44.32784" lon="2.6684">
        <ele>785.0539551</ele>
        <time>2014-12-14T09:25:30Z</time>
      </trkpt>
      <trkpt lat="44.32794" lon="2.66839">
        <ele>784.0925293</ele>
        <time>2014-12-14T09:25:34Z</time>
      </trkpt>
      <trkpt lat="44.32807" lon="2.66837">
        <ele>783.6118164</ele>
        <time>2014-12-14T09:25:39Z</time>
      </trkpt>
      <trkpt lat="44.32819" lon="2.66836">
        <ele>783.6118164</ele>
        <time>2014-12-14T09:25:43Z</time>
      </trkpt>
      <trkpt lat="44.32827" lon="2.66838">
        <ele>783.6118164</ele>
        <time>2014-12-14T09:25:46Z</time>
      </trkpt>
      <trkpt lat="44.32841" lon="2.6684">
        <ele>782.6506348</ele>
        <time>2014-12-14T09:25:52Z</time>
      </trkpt>
      <trkpt lat="44.32844" lon="2.6684">
        <ele>783.1311035</ele>
        <time>2014-12-14T09:25:53Z</time>
      </trkpt>
      <trkpt lat="44.32855" lon="2.6684">
        <ele>782.6506348</ele>
        <time>2014-12-14T09:25:59Z</time>
      </trkpt>
      <trkpt lat="44.32867" lon="2.66839">
        <ele>781.689209</ele>
        <time>2014-12-14T09:26:03Z</time>
      </trkpt>
      <trkpt lat="44.32878" lon="2.66839">
        <ele>781.689209</ele>
        <time>2014-12-14T09:26:07Z</time>
      </trkpt>
      <trkpt lat="44.32891" lon="2.66842">
        <ele>781.2087402</ele>
        <time>2014-12-14T09:26:12Z</time>
      </trkpt>
      <trkpt lat="44.32902" lon="2.66842">
        <ele>780.2473145</ele>
        <time>2014-12-14T09:26:16Z</time>
      </trkpt>
      <trkpt lat="44.32911" lon="2.6684">
        <ele>779.7663574</ele>
        <time>2014-12-14T09:26:19Z</time>
      </trkpt>
      <trkpt lat="44.32925" lon="2.66836">
        <ele>778.8051758</ele>
        <time>2014-12-14T09:26:24Z</time>
      </trkpt>
      <trkpt lat="44.32933" lon="2.66829">
        <ele>777.84375</ele>
        <time>2014-12-14T09:26:27Z</time>
      </trkpt>
      <trkpt lat="44.32945" lon="2.6682">
        <ele>775.9211426</ele>
        <time>2014-12-14T09:26:32Z</time>
      </trkpt>
      <trkpt lat="44.32958" lon="2.66814">
        <ele>773.9985352</ele>
        <time>2014-12-14T09:26:37Z</time>
      </trkpt>
      <trkpt lat="44.32973" lon="2.6681">
        <ele>773.0373535</ele>
        <time>2014-12-14T09:26:42Z</time>
      </trkpt>
      <trkpt lat="44.32985" lon="2.66806">
        <ele>771.1147461</ele>
        <time>2014-12-14T09:26:46Z</time>
      </trkpt>
      <trkpt lat="44.32999" lon="2.66802">
        <ele>767.75</ele>
        <time>2014-12-14T09:26:50Z</time>
      </trkpt>
      <trkpt lat="44.33011" lon="2.66801">
        <ele>765.8276367</ele>
        <time>2014-12-14T09:26:55Z</time>
      </trkpt>
      <trkpt lat="44.33022" lon="2.668">
        <ele>765.3469238</ele>
        <time>2014-12-14T09:26:59Z</time>
      </trkpt>
      <trkpt lat="44.33033" lon="2.66793">
        <ele>762.9433594</ele>
        <time>2014-12-14T09:27:03Z</time>
      </trkpt>
      <trkpt lat="44.33046" lon="2.66784">
        <ele>758.6174316</ele>
        <time>2014-12-14T09:27:08Z</time>
      </trkpt>
      <trkpt lat="44.33058" lon="2.66774">
        <ele>752.3688965</ele>
        <time>2014-12-14T09:27:13Z</time>
      </trkpt>
      <trkpt lat="44.3306" lon="2.66772">
        <ele>751.8884277</ele>
        <time>2014-12-14T09:27:14Z</time>
      </trkpt>
      <trkpt lat="44.33071" lon="2.66768">
        <ele>751.4077148</ele>
        <time>2014-12-14T09:27:18Z</time>
      </trkpt>
      <trkpt lat="44.3308" lon="2.66769">
        <ele>750.4465332</ele>
        <time>2014-12-14T09:27:21Z</time>
      </trkpt>
      <trkpt lat="44.33094" lon="2.66773">
        <ele>748.5236816</ele>
        <time>2014-12-14T09:27:26Z</time>
      </trkpt>
      <trkpt lat="44.33101" lon="2.66774">
        <ele>749.0043945</ele>
        <time>2014-12-14T09:27:29Z</time>
      </trkpt>
      <trkpt lat="44.33119" lon="2.66766">
        <ele>751.8884277</ele>
        <time>2014-12-14T09:27:36Z</time>
      </trkpt>
      <trkpt lat="44.33129" lon="2.6676">
        <ele>752.8496094</ele>
        <time>2014-12-14T09:27:40Z</time>
      </trkpt>
      <trkpt lat="44.33133" lon="2.66754">
        <ele>753.3303223</ele>
        <time>2014-12-14T09:27:42Z</time>
      </trkpt>
      <trkpt lat="44.33148" lon="2.66748">
        <ele>754.291748</ele>
        <time>2014-12-14T09:27:48Z</time>
      </trkpt>
      <trkpt lat="44.33151" lon="2.66747">
        <ele>754.7722168</ele>
        <time>2014-12-14T09:27:49Z</time>
      </trkpt>
      <trkpt lat="44.3316" lon="2.66744">
        <ele>756.2141113</ele>
        <time>2014-12-14T09:27:53Z</time>
      </trkpt>
      <trkpt lat="44.33164" lon="2.6674">
        <ele>756.6948242</ele>
        <time>2014-12-14T09:27:55Z</time>
      </trkpt>
      <trkpt lat="44.33171" lon="2.66733">
        <ele>758.6174316</ele>
        <time>2014-12-14T09:27:58Z</time>
      </trkpt>
      <trkpt lat="44.33186" lon="2.66727">
        <ele>760.5400391</ele>
        <time>2014-12-14T09:28:03Z</time>
      </trkpt>
      <trkpt lat="44.33197" lon="2.66723">
        <ele>759.0981445</ele>
        <time>2014-12-14T09:28:07Z</time>
      </trkpt>
      <trkpt lat="44.33207" lon="2.66716">
        <ele>757.1755371</ele>
        <time>2014-12-14T09:28:11Z</time>
      </trkpt>
      <trkpt lat="44.33212" lon="2.66707">
        <ele>757.1755371</ele>
        <time>2014-12-14T09:28:14Z</time>
      </trkpt>
      <trkpt lat="44.33224" lon="2.66703">
        <ele>752.3688965</ele>
        <time>2014-12-14T09:28:18Z</time>
      </trkpt>
      <trkpt lat="44.33232" lon="2.66702">
        <ele>749.0043945</ele>
        <time>2014-12-14T09:28:20Z</time>
      </trkpt>
      <trkpt lat="44.33247" lon="2.66696">
        <ele>742.2751465</ele>
        <time>2014-12-14T09:28:26Z</time>
      </trkpt>
      <trkpt lat="44.33259" lon="2.66692">
        <ele>738.4299316</ele>
        <time>2014-12-14T09:28:31Z</time>
      </trkpt>
      <trkpt lat="44.33272" lon="2.6668">
        <ele>740.3525391</ele>
        <time>2014-12-14T09:28:36Z</time>
      </trkpt>
      <trkpt lat="44.33282" lon="2.6667">
        <ele>739.8718262</ele>
        <time>2014-12-14T09:28:40Z</time>
      </trkpt>
      <trkpt lat="44.33295" lon="2.66661">
        <ele>734.1040039</ele>
        <time>2014-12-14T09:28:45Z</time>
      </trkpt>
      <trkpt lat="44.33307" lon="2.66653">
        <ele>729.2971191</ele>
        <time>2014-12-14T09:28:50Z</time>
      </trkpt>
      <trkpt lat="44.33315" lon="2.66648">
        <ele>726.894043</ele>
        <time>2014-12-14T09:28:53Z</time>
      </trkpt>
      <trkpt lat="44.33321" lon="2.66643">
        <ele>724.4907227</ele>
        <time>2014-12-14T09:28:55Z</time>
      </trkpt>
      <trkpt lat="44.33335" lon="2.66635">
        <ele>723.0488281</ele>
        <time>2014-12-14T09:29:00Z</time>
      </trkpt>
      <trkpt lat="44.33338" lon="2.66633">
        <ele>722.5681152</ele>
        <time>2014-12-14T09:29:01Z</time>
      </trkpt>
      <trkpt lat="44.3335" lon="2.66623">
        <ele>721.1262207</ele>
        <time>2014-12-14T09:29:06Z</time>
      </trkpt>
      <trkpt lat="44.33357" lon="2.66618">
        <ele>720.1647949</ele>
        <time>2014-12-14T09:29:09Z</time>
      </trkpt>
      <trkpt lat="44.33365" lon="2.66614">
        <ele>719.6843262</ele>
        <time>2014-12-14T09:29:12Z</time>
      </trkpt>
      <trkpt lat="44.33376" lon="2.66606">
        <ele>720.6455078</ele>
        <time>2014-12-14T09:29:16Z</time>
      </trkpt>
      <trkpt lat="44.33386" lon="2.66596">
        <ele>723.0488281</ele>
        <time>2014-12-14T09:29:20Z</time>
      </trkpt>
      <trkpt lat="44.33388" lon="2.66594">
        <ele>723.529541</ele>
        <time>2014-12-14T09:29:21Z</time>
      </trkpt>
      <trkpt lat="44.33397" lon="2.66591">
        <ele>723.0488281</ele>
        <time>2014-12-14T09:29:24Z</time>
      </trkpt>
      <trkpt lat="44.33411" lon="2.66584">
        <ele>721.1262207</ele>
        <time>2014-12-14T09:29:29Z</time>
      </trkpt>
      <trkpt lat="44.33417" lon="2.6658">
        <ele>721.1262207</ele>
        <time>2014-12-14T09:29:31Z</time>
      </trkpt>
      <trkpt lat="44.33432" lon="2.6657">
        <ele>721.6066895</ele>
        <time>2014-12-14T09:29:37Z</time>
      </trkpt>
      <trkpt lat="44.33447" lon="2.66555">
        <ele>720.6455078</ele>
        <time>2014-12-14T09:29:43Z</time>
      </trkpt>
      <trkpt lat="44.33457" lon="2.66535">
        <ele>718.7229004</ele>
        <time>2014-12-14T09:29:49Z</time>
      </trkpt>
      <trkpt lat="44.33464" lon="2.66526">
        <ele>717.7614746</ele>
        <time>2014-12-14T09:29:53Z</time>
      </trkpt>
      <trkpt lat="44.33466" lon="2.66523">
        <ele>717.2810059</ele>
        <time>2014-12-14T09:29:54Z</time>
      </trkpt>
      <trkpt lat="44.33478" lon="2.66506">
        <ele>715.3581543</ele>
        <time>2014-12-14T09:30:00Z</time>
      </trkpt>
      <trkpt lat="44.3348" lon="2.66492">
        <ele>713.4355469</ele>
        <time>2014-12-14T09:30:04Z</time>
      </trkpt>
      <trkpt lat="44.3348" lon="2.66478">
        <ele>711.9936523</ele>
        <time>2014-12-14T09:30:08Z</time>
      </trkpt>
      <trkpt lat="44.33483" lon="2.66469">
        <ele>711.5129395</ele>
        <time>2014-12-14T09:30:11Z</time>
      </trkpt>
      <trkpt lat="44.33484" lon="2.6646">
        <ele>711.9936523</ele>
        <time>2014-12-14T09:30:13Z</time>
      </trkpt>
      <trkpt lat="44.33485" lon="2.66441">
        <ele>710.0708008</ele>
        <time>2014-12-14T09:30:19Z</time>
      </trkpt>
      <trkpt lat="44.33485" lon="2.66427">
        <ele>708.6289063</ele>
        <time>2014-12-14T09:30:23Z</time>
      </trkpt>
      <trkpt lat="44.33486" lon="2.66417">
        <ele>706.2255859</ele>
        <time>2014-12-14T09:30:27Z</time>
      </trkpt>
      <trkpt lat="44.33486" lon="2.66411">
        <ele>705.7451172</ele>
        <time>2014-12-14T09:30:29Z</time>
      </trkpt>
      <trkpt lat="44.33484" lon="2.66403">
        <ele>702.3803711</ele>
        <time>2014-12-14T09:30:34Z</time>
      </trkpt>
      <trkpt lat="44.33487" lon="2.66388">
        <ele>697.0930176</ele>
        <time>2014-12-14T09:30:39Z</time>
      </trkpt>
      <trkpt lat="44.33489" lon="2.66387">
        <ele>696.6125488</ele>
        <time>2014-12-14T09:30:40Z</time>
      </trkpt>
      <trkpt lat="44.33498" lon="2.6639">
        <ele>696.6125488</ele>
        <time>2014-12-14T09:30:46Z</time>
      </trkpt>
      <trkpt lat="44.33499" lon="2.66391">
        <ele>696.6125488</ele>
        <time>2014-12-14T09:30:47Z</time>
      </trkpt>
      <trkpt lat="44.33508" lon="2.66394">
        <ele>697.0930176</ele>
        <time>2014-12-14T09:30:52Z</time>
      </trkpt>
      <trkpt lat="44.33509" lon="2.66396">
        <ele>697.0930176</ele>
        <time>2014-12-14T09:30:53Z</time>
      </trkpt>
      <trkpt lat="44.3352" lon="2.66403">
        <ele>698.0544434</ele>
        <time>2014-12-14T09:30:58Z</time>
      </trkpt>
      <trkpt lat="44.33536" lon="2.66411">
        <ele>697.5737305</ele>
        <time>2014-12-14T09:31:05Z</time>
      </trkpt>
      <trkpt lat="44.33548" lon="2.6642">
        <ele>696.6125488</ele>
        <time>2014-12-14T09:31:10Z</time>
      </trkpt>
      <trkpt lat="44.33554" lon="2.66428">
        <ele>694.2092285</ele>
        <time>2014-12-14T09:31:13Z</time>
      </trkpt>
      <trkpt lat="44.33561" lon="2.66437">
        <ele>692.767334</ele>
        <time>2014-12-14T09:31:16Z</time>
      </trkpt>
      <trkpt lat="44.33568" lon="2.66449">
        <ele>690.8444824</ele>
        <time>2014-12-14T09:31:20Z</time>
      </trkpt>
      <trkpt lat="44.33571" lon="2.6646">
        <ele>689.8833008</ele>
        <time>2014-12-14T09:31:23Z</time>
      </trkpt>
      <trkpt lat="44.33569" lon="2.66483">
        <ele>688.4414063</ele>
        <time>2014-12-14T09:31:29Z</time>
      </trkpt>
      <trkpt lat="44.33564" lon="2.66507">
        <ele>689.4025879</ele>
        <time>2014-12-14T09:31:36Z</time>
      </trkpt>
      <trkpt lat="44.33553" lon="2.66529">
        <ele>690.3640137</ele>
        <time>2014-12-14T09:31:43Z</time>
      </trkpt>
      <trkpt lat="44.33546" lon="2.66546">
        <ele>689.4025879</ele>
        <time>2014-12-14T09:31:48Z</time>
      </trkpt>
      <trkpt lat="44.33542" lon="2.66561">
        <ele>688.4414063</ele>
        <time>2014-12-14T09:31:53Z</time>
      </trkpt>
      <trkpt lat="44.33535" lon="2.6658">
        <ele>689.4025879</ele>
        <time>2014-12-14T09:31:58Z</time>
      </trkpt>
      <trkpt lat="44.33527" lon="2.66601">
        <ele>690.3640137</ele>
        <time>2014-12-14T09:32:04Z</time>
      </trkpt>
      <trkpt lat="44.3352" lon="2.66618">
        <ele>689.4025879</ele>
        <time>2014-12-14T09:32:09Z</time>
      </trkpt>
      <trkpt lat="44.33513" lon="2.66634">
        <ele>688.9221191</ele>
        <time>2014-12-14T09:32:14Z</time>
      </trkpt>
      <trkpt lat="44.33506" lon="2.66656">
        <ele>687.4799805</ele>
        <time>2014-12-14T09:32:20Z</time>
      </trkpt>
      <trkpt lat="44.33499" lon="2.66672">
        <ele>686.0380859</ele>
        <time>2014-12-14T09:32:25Z</time>
      </trkpt>
      <trkpt lat="44.33493" lon="2.66687">
        <ele>683.6345215</ele>
        <time>2014-12-14T09:32:30Z</time>
      </trkpt>
      <trkpt lat="44.33488" lon="2.66704">
        <ele>680.2700195</ele>
        <time>2014-12-14T09:32:35Z</time>
      </trkpt>
      <trkpt lat="44.33475" lon="2.66719">
        <ele>672.5795898</ele>
        <time>2014-12-14T09:32:41Z</time>
      </trkpt>
      <trkpt lat="44.33465" lon="2.66734">
        <ele>669.6958008</ele>
        <time>2014-12-14T09:32:46Z</time>
      </trkpt>
      <trkpt lat="44.33461" lon="2.66747">
        <ele>667.2922363</ele>
        <time>2014-12-14T09:32:50Z</time>
      </trkpt>
      <trkpt lat="44.33464" lon="2.66761">
        <ele>665.3696289</ele>
        <time>2014-12-14T09:32:54Z</time>
      </trkpt>
      <trkpt lat="44.33462" lon="2.66776">
        <ele>665.8503418</ele>
        <time>2014-12-14T09:32:58Z</time>
      </trkpt>
      <trkpt lat="44.33461" lon="2.66789">
        <ele>665.8503418</ele>
        <time>2014-12-14T09:33:02Z</time>
      </trkpt>
      <trkpt lat="44.33459" lon="2.66804">
        <ele>665.3696289</ele>
        <time>2014-12-14T09:33:07Z</time>
      </trkpt>
      <trkpt lat="44.33449" lon="2.66822">
        <ele>665.3696289</ele>
        <time>2014-12-14T09:33:13Z</time>
      </trkpt>
      <trkpt lat="44.3344" lon="2.66835">
        <ele>665.3696289</ele>
        <time>2014-12-14T09:33:18Z</time>
      </trkpt>
      <trkpt lat="44.33431" lon="2.66847">
        <ele>665.3696289</ele>
        <time>2014-12-14T09:33:23Z</time>
      </trkpt>
      <trkpt lat="44.33421" lon="2.66855">
        <ele>664.4082031</ele>
        <time>2014-12-14T09:33:27Z</time>
      </trkpt>
      <trkpt lat="44.33408" lon="2.66863">
        <ele>662.005127</ele>
        <time>2014-12-14T09:33:33Z</time>
      </trkpt>
      <trkpt lat="44.33398" lon="2.66869">
        <ele>659.6018066</ele>
        <time>2014-12-14T09:33:37Z</time>
      </trkpt>
      <trkpt lat="44.33388" lon="2.66873">
        <ele>657.6791992</ele>
        <time>2014-12-14T09:33:41Z</time>
      </trkpt>
      <trkpt lat="44.33379" lon="2.66879">
        <ele>656.2370605</ele>
        <time>2014-12-14T09:33:45Z</time>
      </trkpt>
      <trkpt lat="44.3337" lon="2.66887">
        <ele>656.7177734</ele>
        <time>2014-12-14T09:33:49Z</time>
      </trkpt>
      <trkpt lat="44.33361" lon="2.6689">
        <ele>655.7565918</ele>
        <time>2014-12-14T09:33:53Z</time>
      </trkpt>
      <trkpt lat="44.33356" lon="2.66891">
        <ele>655.7565918</ele>
        <time>2014-12-14T09:33:55Z</time>
      </trkpt>
      <trkpt lat="44.33343" lon="2.66889">
        <ele>656.7177734</ele>
        <time>2014-12-14T09:34:01Z</time>
      </trkpt>
      <trkpt lat="44.3334" lon="2.66889">
        <ele>655.7565918</ele>
        <time>2014-12-14T09:34:03Z</time>
      </trkpt>
      <trkpt lat="44.33331" lon="2.66901">
        <ele>658.1599121</ele>
        <time>2014-12-14T09:34:08Z</time>
      </trkpt>
      <trkpt lat="44.33331" lon="2.66913">
        <ele>665.3696289</ele>
        <time>2014-12-14T09:34:13Z</time>
      </trkpt>
      <trkpt lat="44.33335" lon="2.66927">
        <ele>668.734375</ele>
        <time>2014-12-14T09:34:18Z</time>
      </trkpt>
      <trkpt lat="44.33338" lon="2.66935">
        <ele>668.2536621</ele>
        <time>2014-12-14T09:34:22Z</time>
      </trkpt>
      <trkpt lat="44.3334" lon="2.66941">
        <ele>667.2922363</ele>
        <time>2014-12-14T09:34:25Z</time>
      </trkpt>
      <trkpt lat="44.33342" lon="2.66953">
        <ele>664.4082031</ele>
        <time>2014-12-14T09:34:30Z</time>
      </trkpt>
      <trkpt lat="44.33343" lon="2.66966">
        <ele>660.5629883</ele>
        <time>2014-12-14T09:34:36Z</time>
      </trkpt>
      <trkpt lat="44.33346" lon="2.66976">
        <ele>657.6791992</ele>
        <time>2014-12-14T09:34:41Z</time>
      </trkpt>
      <trkpt lat="44.33348" lon="2.66988">
        <ele>656.2370605</ele>
        <time>2014-12-14T09:34:47Z</time>
      </trkpt>
      <trkpt lat="44.33347" lon="2.66998">
        <ele>652.3918457</ele>
        <time>2014-12-14T09:34:52Z</time>
      </trkpt>
      <trkpt lat="44.33348" lon="2.67007">
        <ele>644.7011719</ele>
        <time>2014-12-14T09:34:58Z</time>
      </trkpt>
      <trkpt lat="44.33351" lon="2.67014">
        <ele>641.3366699</ele>
        <time>2014-12-14T09:35:03Z</time>
      </trkpt>
      <trkpt lat="44.33351" lon="2.67015">
        <ele>640.855957</ele>
        <time>2014-12-14T09:35:04Z</time>
      </trkpt>
      <trkpt lat="44.33354" lon="2.67025">
        <ele>636.5302734</ele>
        <time>2014-12-14T09:35:10Z</time>
      </trkpt>
      <trkpt lat="44.33354" lon="2.6703">
        <ele>637.0107422</ele>
        <time>2014-12-14T09:35:13Z</time>
      </trkpt>
      <trkpt lat="44.33353" lon="2.6704">
        <ele>634.126709</ele>
        <time>2014-12-14T09:35:19Z</time>
      </trkpt>
      <trkpt lat="44.33351" lon="2.67053">
        <ele>631.7233887</ele>
        <time>2014-12-14T09:35:23Z</time>
      </trkpt>
      <trkpt lat="44.33345" lon="2.67067">
        <ele>629.3200684</ele>
        <time>2014-12-14T09:35:28Z</time>
      </trkpt>
      <trkpt lat="44.33338" lon="2.67078">
        <ele>629.3200684</ele>
        <time>2014-12-14T09:35:33Z</time>
      </trkpt>
      <trkpt lat="44.33332" lon="2.67083">
        <ele>630.762207</ele>
        <time>2014-12-14T09:35:36Z</time>
      </trkpt>
      <trkpt lat="44.33325" lon="2.6709">
        <ele>632.2041016</ele>
        <time>2014-12-14T09:35:40Z</time>
      </trkpt>
      <trkpt lat="44.33324" lon="2.67094">
        <ele>634.126709</ele>
        <time>2014-12-14T09:35:42Z</time>
      </trkpt>
      <trkpt lat="44.33326" lon="2.67098">
        <ele>634.126709</ele>
        <time>2014-12-14T09:35:48Z</time>
      </trkpt>
      <trkpt lat="44.33329" lon="2.67097">
        <ele>634.126709</ele>
        <time>2014-12-14T09:35:50Z</time>
      </trkpt>
      <trkpt lat="44.33345" lon="2.67101">
        <ele>635.0881348</ele>
        <time>2014-12-14T09:35:56Z</time>
      </trkpt>
      <trkpt lat="44.33354" lon="2.67099">
        <ele>635.5686035</ele>
        <time>2014-12-14T09:36:00Z</time>
      </trkpt>
      <trkpt lat="44.33362" lon="2.67107">
        <ele>637.0107422</ele>
        <time>2014-12-14T09:36:04Z</time>
      </trkpt>
      <trkpt lat="44.33371" lon="2.67112">
        <ele>640.855957</ele>
        <time>2014-12-14T09:36:09Z</time>
      </trkpt>
      <trkpt lat="44.33373" lon="2.67112">
        <ele>641.3366699</ele>
        <time>2014-12-14T09:36:10Z</time>
      </trkpt>
      <trkpt lat="44.33381" lon="2.67122">
        <ele>641.3366699</ele>
        <time>2014-12-14T09:36:15Z</time>
      </trkpt>
      <trkpt lat="44.33389" lon="2.67131">
        <ele>641.3366699</ele>
        <time>2014-12-14T09:36:20Z</time>
      </trkpt>
      <trkpt lat="44.33395" lon="2.67133">
        <ele>641.3366699</ele>
        <time>2014-12-14T09:36:23Z</time>
      </trkpt>
      <trkpt lat="44.33402" lon="2.67135">
        <ele>641.8173828</ele>
        <time>2014-12-14T09:36:26Z</time>
      </trkpt>
      <trkpt lat="44.3341" lon="2.67139">
        <ele>642.2980957</ele>
        <time>2014-12-14T09:36:30Z</time>
      </trkpt>
      <trkpt lat="44.33417" lon="2.6715">
        <ele>638.4528809</ele>
        <time>2014-12-14T09:36:39Z</time>
      </trkpt>
      <trkpt lat="44.33419" lon="2.6715">
        <ele>637.0107422</ele>
        <time>2014-12-14T09:36:41Z</time>
      </trkpt>
      <trkpt lat="44.33424" lon="2.67155">
        <ele>634.126709</ele>
        <time>2014-12-14T09:36:49Z</time>
      </trkpt>
      <trkpt lat="44.33432" lon="2.67161">
        <ele>634.126709</ele>
        <time>2014-12-14T09:36:57Z</time>
      </trkpt>
      <trkpt lat="44.33439" lon="2.67171">
        <ele>639.8947754</ele>
        <time>2014-12-14T09:37:02Z</time>
      </trkpt>
      <trkpt lat="44.33441" lon="2.67173">
        <ele>640.855957</ele>
        <time>2014-12-14T09:37:03Z</time>
      </trkpt>
      <trkpt lat="44.33444" lon="2.6719">
        <ele>642.7788086</ele>
        <time>2014-12-14T09:37:09Z</time>
      </trkpt>
      <trkpt lat="44.33445" lon="2.67192">
        <ele>642.7788086</ele>
        <time>2014-12-14T09:37:10Z</time>
      </trkpt>
      <trkpt lat="44.33447" lon="2.67208">
        <ele>645.1818848</ele>
        <time>2014-12-14T09:37:15Z</time>
      </trkpt>
      <trkpt lat="44.3345" lon="2.67226">
        <ele>646.6240234</ele>
        <time>2014-12-14T09:37:21Z</time>
      </trkpt>
      <trkpt lat="44.33451" lon="2.6724">
        <ele>647.1044922</ele>
        <time>2014-12-14T09:37:25Z</time>
      </trkpt>
      <trkpt lat="44.33452" lon="2.67257">
        <ele>646.6240234</ele>
        <time>2014-12-14T09:37:31Z</time>
      </trkpt>
      <trkpt lat="44.33451" lon="2.6727">
        <ele>646.1433105</ele>
        <time>2014-12-14T09:37:36Z</time>
      </trkpt>
      <trkpt lat="44.33452" lon="2.67275">
        <ele>647.1044922</ele>
        <time>2014-12-14T09:37:38Z</time>
      </trkpt>
      <trkpt lat="44.3345" lon="2.67289">
        <ele>645.6625977</ele>
        <time>2014-12-14T09:37:44Z</time>
      </trkpt>
      <trkpt lat="44.33448" lon="2.673">
        <ele>644.2207031</ele>
        <time>2014-12-14T09:37:49Z</time>
      </trkpt>
      <trkpt lat="44.3345" lon="2.67309">
        <ele>644.7011719</ele>
        <time>2014-12-14T09:37:54Z</time>
      </trkpt>
      <trkpt lat="44.33449" lon="2.67314">
        <ele>646.1433105</ele>
        <time>2014-12-14T09:37:58Z</time>
      </trkpt>
      <trkpt lat="44.33447" lon="2.67321">
        <ele>649.0270996</ele>
        <time>2014-12-14T09:38:03Z</time>
      </trkpt>
      <trkpt lat="44.33445" lon="2.67329">
        <ele>652.8725586</ele>
        <time>2014-12-14T09:38:08Z</time>
      </trkpt>
      <trkpt lat="44.33443" lon="2.67333">
        <ele>655.2758789</ele>
        <time>2014-12-14T09:38:11Z</time>
      </trkpt>
      <trkpt lat="44.33439" lon="2.67342">
        <ele>664.888916</ele>
        <time>2014-12-14T09:38:16Z</time>
      </trkpt>
      <trkpt lat="44.33436" lon="2.67351">
        <ele>670.1762695</ele>
        <time>2014-12-14T09:38:20Z</time>
      </trkpt>
      <trkpt lat="44.33433" lon="2.67359">
        <ele>677.8666992</ele>
        <time>2014-12-14T09:38:25Z</time>
      </trkpt>
      <trkpt lat="44.33432" lon="2.67362">
        <ele>679.3085938</ele>
        <time>2014-12-14T09:38:27Z</time>
      </trkpt>
      <trkpt lat="44.33429" lon="2.67371">
        <ele>682.192627</ele>
        <time>2014-12-14T09:38:34Z</time>
      </trkpt>
      <trkpt lat="44.33427" lon="2.6738">
        <ele>681.7119141</ele>
        <time>2014-12-14T09:38:40Z</time>
      </trkpt>
      <trkpt lat="44.33426" lon="2.67394">
        <ele>682.6733398</ele>
        <time>2014-12-14T09:38:48Z</time>
      </trkpt>
      <trkpt lat="44.33426" lon="2.67395">
        <ele>684.1154785</ele>
        <time>2014-12-14T09:38:49Z</time>
      </trkpt>
      <trkpt lat="44.33425" lon="2.67405">
        <ele>687.4799805</ele>
        <time>2014-12-14T09:38:57Z</time>
      </trkpt>
      <trkpt lat="44.33422" lon="2.67412">
        <ele>691.3251953</ele>
        <time>2014-12-14T09:39:03Z</time>
      </trkpt>
      <trkpt lat="44.33419" lon="2.67421">
        <ele>697.0930176</ele>
        <time>2014-12-14T09:39:08Z</time>
      </trkpt>
      <trkpt lat="44.33417" lon="2.67431">
        <ele>699.4963379</ele>
        <time>2014-12-14T09:39:14Z</time>
      </trkpt>
      <trkpt lat="44.33412" lon="2.67445">
        <ele>701.8999023</ele>
        <time>2014-12-14T09:39:21Z</time>
      </trkpt>
      <trkpt lat="44.3341" lon="2.67451">
        <ele>700.4580078</ele>
        <time>2014-12-14T09:39:25Z</time>
      </trkpt>
      <trkpt lat="44.33409" lon="2.67457">
        <ele>699.015625</ele>
        <time>2014-12-14T09:39:29Z</time>
      </trkpt>
      <trkpt lat="44.33404" lon="2.67469">
        <ele>697.5737305</ele>
        <time>2014-12-14T09:39:36Z</time>
      </trkpt>
      <trkpt lat="44.33402" lon="2.67477">
        <ele>695.1704102</ele>
        <time>2014-12-14T09:39:40Z</time>
      </trkpt>
      <trkpt lat="44.33398" lon="2.67488">
        <ele>699.015625</ele>
        <time>2014-12-14T09:39:47Z</time>
      </trkpt>
      <trkpt lat="44.33394" lon="2.675">
        <ele>697.0930176</ele>
        <time>2014-12-14T09:39:54Z</time>
      </trkpt>
      <trkpt lat="44.33387" lon="2.67513">
        <ele>692.2866211</ele>
        <time>2014-12-14T09:40:00Z</time>
      </trkpt>
      <trkpt lat="44.33384" lon="2.67521">
        <ele>693.2478027</ele>
        <time>2014-12-14T09:40:05Z</time>
      </trkpt>
      <trkpt lat="44.33383" lon="2.67528">
        <ele>696.6125488</ele>
        <time>2014-12-14T09:40:11Z</time>
      </trkpt>
      <trkpt lat="44.33382" lon="2.67537">
        <ele>699.9770508</ele>
        <time>2014-12-14T09:40:17Z</time>
      </trkpt>
      <trkpt lat="44.3338" lon="2.67545">
        <ele>699.015625</ele>
        <time>2014-12-14T09:40:22Z</time>
      </trkpt>
      <trkpt lat="44.33379" lon="2.67546">
        <ele>699.4963379</ele>
        <time>2014-12-14T09:40:23Z</time>
      </trkpt>
      <trkpt lat="44.33376" lon="2.67555">
        <ele>699.4963379</ele>
        <time>2014-12-14T09:40:29Z</time>
      </trkpt>
      <trkpt lat="44.33371" lon="2.67564">
        <ele>697.5737305</ele>
        <time>2014-12-14T09:40:35Z</time>
      </trkpt>
      <trkpt lat="44.33363" lon="2.67574">
        <ele>696.6125488</ele>
        <time>2014-12-14T09:40:44Z</time>
      </trkpt>
      <trkpt lat="44.33357" lon="2.67581">
        <ele>696.6125488</ele>
        <time>2014-12-14T09:40:50Z</time>
      </trkpt>
      <trkpt lat="44.33353" lon="2.67586">
        <ele>694.6896973</ele>
        <time>2014-12-14T09:40:55Z</time>
      </trkpt>
      <trkpt lat="44.33348" lon="2.67591">
        <ele>698.5349121</ele>
        <time>2014-12-14T09:41:02Z</time>
      </trkpt>
      <trkpt lat="44.33345" lon="2.67598">
        <ele>701.4191895</ele>
        <time>2014-12-14T09:41:09Z</time>
      </trkpt>
      <trkpt lat="44.33338" lon="2.67605">
        <ele>704.7836914</ele>
        <time>2014-12-14T09:41:14Z</time>
      </trkpt>
      <trkpt lat="44.3333" lon="2.67609">
        <ele>706.2255859</ele>
        <time>2014-12-14T09:41:19Z</time>
      </trkpt>
      <trkpt lat="44.33324" lon="2.67615">
        <ele>709.590332</ele>
        <time>2014-12-14T09:41:25Z</time>
      </trkpt>
      <trkpt lat="44.33319" lon="2.67621">
        <ele>711.0322266</ele>
        <time>2014-12-14T09:41:30Z</time>
      </trkpt>
      <trkpt lat="44.33314" lon="2.67626">
        <ele>709.1096191</ele>
        <time>2014-12-14T09:41:35Z</time>
      </trkpt>
      <trkpt lat="44.33312" lon="2.67628">
        <ele>708.1484375</ele>
        <time>2014-12-14T09:41:37Z</time>
      </trkpt>
      <trkpt lat="44.33303" lon="2.67639">
        <ele>706.2255859</ele>
        <time>2014-12-14T09:41:44Z</time>
      </trkpt>
      <trkpt lat="44.33302" lon="2.67641">
        <ele>706.2255859</ele>
        <time>2014-12-14T09:41:45Z</time>
      </trkpt>
      <trkpt lat="44.33296" lon="2.67654">
        <ele>707.1870117</ele>
        <time>2014-12-14T09:41:53Z</time>
      </trkpt>
      <trkpt lat="44.33291" lon="2.67666">
        <ele>708.1484375</ele>
        <time>2014-12-14T09:42:01Z</time>
      </trkpt>
      <trkpt lat="44.33292" lon="2.67666">
        <ele>710.5515137</ele>
        <time>2014-12-14T09:42:07Z</time>
      </trkpt>
      <trkpt lat="44.33295" lon="2.67665">
        <ele>711.5129395</ele>
        <time>2014-12-14T09:42:09Z</time>
      </trkpt>
      <trkpt lat="44.33302" lon="2.67665">
        <ele>717.7614746</ele>
        <time>2014-12-14T09:42:15Z</time>
      </trkpt>
      <trkpt lat="44.33308" lon="2.67662">
        <ele>716.3195801</ele>
        <time>2014-12-14T09:42:21Z</time>
      </trkpt>
      <trkpt lat="44.33315" lon="2.67661">
        <ele>718.2421875</ele>
        <time>2014-12-14T09:42:28Z</time>
      </trkpt>
      <trkpt lat="44.33324" lon="2.67662">
        <ele>719.2036133</ele>
        <time>2014-12-14T09:42:35Z</time>
      </trkpt>
      <trkpt lat="44.3333" lon="2.67663">
        <ele>717.2810059</ele>
        <time>2014-12-14T09:42:42Z</time>
      </trkpt>
      <trkpt lat="44.33338" lon="2.67664">
        <ele>720.1647949</ele>
        <time>2014-12-14T09:42:46Z</time>
      </trkpt>
      <trkpt lat="44.33349" lon="2.67664">
        <ele>722.5681152</ele>
        <time>2014-12-14T09:42:53Z</time>
      </trkpt>
      <trkpt lat="44.3335" lon="2.67664">
        <ele>723.529541</ele>
        <time>2014-12-14T09:42:55Z</time>
      </trkpt>
      <trkpt lat="44.33347" lon="2.67672">
        <ele>726.894043</ele>
        <time>2014-12-14T09:43:00Z</time>
      </trkpt>
      <trkpt lat="44.3334" lon="2.67681">
        <ele>728.3359375</ele>
        <time>2014-12-14T09:43:05Z</time>
      </trkpt>
      <trkpt lat="44.33329" lon="2.67693">
        <ele>726.894043</ele>
        <time>2014-12-14T09:43:12Z</time>
      </trkpt>
      <trkpt lat="44.33322" lon="2.67701">
        <ele>725.9326172</ele>
        <time>2014-12-14T09:43:17Z</time>
      </trkpt>
      <trkpt lat="44.33321" lon="2.67714">
        <ele>727.3747559</ele>
        <time>2014-12-14T09:43:22Z</time>
      </trkpt>
      <trkpt lat="44.33322" lon="2.67717">
        <ele>728.8166504</ele>
        <time>2014-12-14T09:43:24Z</time>
      </trkpt>
      <trkpt lat="44.33333" lon="2.67714">
        <ele>731.7004395</ele>
        <time>2014-12-14T09:43:30Z</time>
      </trkpt>
      <trkpt lat="44.33342" lon="2.67708">
        <ele>733.623291</ele>
        <time>2014-12-14T09:43:35Z</time>
      </trkpt>
      <trkpt lat="44.33359" lon="2.67699">
        <ele>735.5458984</ele>
        <time>2014-12-14T09:43:43Z</time>
      </trkpt>
      <trkpt lat="44.33368" lon="2.67695">
        <ele>737.4685059</ele>
        <time>2014-12-14T09:43:47Z</time>
      </trkpt>
      <trkpt lat="44.33378" lon="2.67691">
        <ele>739.8718262</ele>
        <time>2014-12-14T09:43:52Z</time>
      </trkpt>
      <trkpt lat="44.33385" lon="2.67691">
        <ele>740.8330078</ele>
        <time>2014-12-14T09:43:55Z</time>
      </trkpt>
      <trkpt lat="44.334" lon="2.6769">
        <ele>742.2751465</ele>
        <time>2014-12-14T09:44:01Z</time>
      </trkpt>
      <trkpt lat="44.33411" lon="2.67687">
        <ele>742.7558594</ele>
        <time>2014-12-14T09:44:06Z</time>
      </trkpt>
      <trkpt lat="44.33423" lon="2.6768">
        <ele>743.717041</ele>
        <time>2014-12-14T09:44:12Z</time>
      </trkpt>
      <trkpt lat="44.33434" lon="2.67676">
        <ele>744.1977539</ele>
        <time>2014-12-14T09:44:17Z</time>
      </trkpt>
      <trkpt lat="44.33443" lon="2.67673">
        <ele>743.717041</ele>
        <time>2014-12-14T09:44:22Z</time>
      </trkpt>
      <trkpt lat="44.33453" lon="2.67669">
        <ele>743.717041</ele>
        <time>2014-12-14T09:44:27Z</time>
      </trkpt>
      <trkpt lat="44.33461" lon="2.67664">
        <ele>742.7558594</ele>
        <time>2014-12-14T09:44:31Z</time>
      </trkpt>
      <trkpt lat="44.33471" lon="2.67655">
        <ele>745.1589355</ele>
        <time>2014-12-14T09:44:36Z</time>
      </trkpt>
      <trkpt lat="44.33481" lon="2.67648">
        <ele>747.081543</ele>
        <time>2014-12-14T09:44:41Z</time>
      </trkpt>
      <trkpt lat="44.33491" lon="2.67644">
        <ele>748.0432129</ele>
        <time>2014-12-14T09:44:46Z</time>
      </trkpt>
      <trkpt lat="44.33501" lon="2.67641">
        <ele>751.8884277</ele>
        <time>2014-12-14T09:44:51Z</time>
      </trkpt>
      <trkpt lat="44.33514" lon="2.6764">
        <ele>754.7722168</ele>
        <time>2014-12-14T09:44:57Z</time>
      </trkpt>
      <trkpt lat="44.33525" lon="2.67642">
        <ele>756.6948242</ele>
        <time>2014-12-14T09:45:02Z</time>
      </trkpt>
      <trkpt lat="44.33534" lon="2.67645">
        <ele>758.6174316</ele>
        <time>2014-12-14T09:45:07Z</time>
      </trkpt>
      <trkpt lat="44.33543" lon="2.67652">
        <ele>758.6174316</ele>
        <time>2014-12-14T09:45:12Z</time>
      </trkpt>
      <trkpt lat="44.33552" lon="2.67663">
        <ele>757.65625</ele>
        <time>2014-12-14T09:45:19Z</time>
      </trkpt>
      <trkpt lat="44.33561" lon="2.67675">
        <ele>757.1755371</ele>
        <time>2014-12-14T09:45:25Z</time>
      </trkpt>
      <trkpt lat="44.33568" lon="2.67687">
        <ele>757.1755371</ele>
        <time>2014-12-14T09:45:30Z</time>
      </trkpt>
      <trkpt lat="44.33579" lon="2.677">
        <ele>760.0593262</ele>
        <time>2014-12-14T09:45:36Z</time>
      </trkpt>
      <trkpt lat="44.3359" lon="2.67707">
        <ele>762.9433594</ele>
        <time>2014-12-14T09:45:41Z</time>
      </trkpt>
      <trkpt lat="44.33598" lon="2.67711">
        <ele>763.4240723</ele>
        <time>2014-12-14T09:45:44Z</time>
      </trkpt>
      <trkpt lat="44.33612" lon="2.67714">
        <ele>764.8662109</ele>
        <time>2014-12-14T09:45:50Z</time>
      </trkpt>
      <trkpt lat="44.33623" lon="2.67716">
        <ele>766.3081055</ele>
        <time>2014-12-14T09:45:55Z</time>
      </trkpt>
      <trkpt lat="44.33635" lon="2.67718">
        <ele>767.75</ele>
        <time>2014-12-14T09:46:01Z</time>
      </trkpt>
      <trkpt lat="44.33639" lon="2.67719">
        <ele>767.75</ele>
        <time>2014-12-14T09:46:03Z</time>
      </trkpt>
      <trkpt lat="44.33656" lon="2.67722">
        <ele>769.1921387</ele>
        <time>2014-12-14T09:46:11Z</time>
      </trkpt>
      <trkpt lat="44.33668" lon="2.67725">
        <ele>770.1533203</ele>
        <time>2014-12-14T09:46:16Z</time>
      </trkpt>
      <trkpt lat="44.33678" lon="2.67727">
        <ele>770.6340332</ele>
        <time>2014-12-14T09:46:21Z</time>
      </trkpt>
      <trkpt lat="44.33688" lon="2.67729">
        <ele>769.1921387</ele>
        <time>2014-12-14T09:46:26Z</time>
      </trkpt>
      <trkpt lat="44.33695" lon="2.67731">
        <ele>769.1921387</ele>
        <time>2014-12-14T09:46:29Z</time>
      </trkpt>
      <trkpt lat="44.33705" lon="2.67734">
        <ele>769.1921387</ele>
        <time>2014-12-14T09:46:34Z</time>
      </trkpt>
      <trkpt lat="44.33715" lon="2.67734">
        <ele>770.6340332</ele>
        <time>2014-12-14T09:46:39Z</time>
      </trkpt>
      <trkpt lat="44.33731" lon="2.67731">
        <ele>772.5566406</ele>
        <time>2014-12-14T09:46:46Z</time>
      </trkpt>
      <trkpt lat="44.33744" lon="2.67722">
        <ele>774.479248</ele>
        <time>2014-12-14T09:46:52Z</time>
      </trkpt>
      <trkpt lat="44.33754" lon="2.6771">
        <ele>776.4018555</ele>
        <time>2014-12-14T09:46:58Z</time>
      </trkpt>
      <trkpt lat="44.3376" lon="2.67698">
        <ele>779.7663574</ele>
        <time>2014-12-14T09:47:02Z</time>
      </trkpt>
      <trkpt lat="44.33764" lon="2.67683">
        <ele>781.689209</ele>
        <time>2014-12-14T09:47:06Z</time>
      </trkpt>
      <trkpt lat="44.33771" lon="2.67667">
        <ele>782.1699219</ele>
        <time>2014-12-14T09:47:11Z</time>
      </trkpt>
      <trkpt lat="44.3378" lon="2.67648">
        <ele>783.1311035</ele>
        <time>2014-12-14T09:47:19Z</time>
      </trkpt>
      <trkpt lat="44.33784" lon="2.67632">
        <ele>783.1311035</ele>
        <time>2014-12-14T09:47:24Z</time>
      </trkpt>
      <trkpt lat="44.33791" lon="2.67612">
        <ele>783.6118164</ele>
        <time>2014-12-14T09:47:30Z</time>
      </trkpt>
      <trkpt lat="44.338" lon="2.67603">
        <ele>785.0539551</ele>
        <time>2014-12-14T09:47:35Z</time>
      </trkpt>
      <trkpt lat="44.33813" lon="2.67596">
        <ele>786.0151367</ele>
        <time>2014-12-14T09:47:41Z</time>
      </trkpt>
      <trkpt lat="44.33825" lon="2.6759">
        <ele>786.9763184</ele>
        <time>2014-12-14T09:47:47Z</time>
      </trkpt>
      <trkpt lat="44.33834" lon="2.6758">
        <ele>786.9763184</ele>
        <time>2014-12-14T09:47:52Z</time>
      </trkpt>
      <trkpt lat="44.33842" lon="2.67564">
        <ele>788.418457</ele>
        <time>2014-12-14T09:47:58Z</time>
      </trkpt>
      <trkpt lat="44.33844" lon="2.67554">
        <ele>788.418457</ele>
        <time>2014-12-14T09:48:01Z</time>
      </trkpt>
      <trkpt lat="44.33843" lon="2.67539">
        <ele>787.9377441</ele>
        <time>2014-12-14T09:48:05Z</time>
      </trkpt>
      <trkpt lat="44.33845" lon="2.67522">
        <ele>786.9763184</ele>
        <time>2014-12-14T09:48:10Z</time>
      </trkpt>
      <trkpt lat="44.33854" lon="2.67505">
        <ele>784.0925293</ele>
        <time>2014-12-14T09:48:16Z</time>
      </trkpt>
      <trkpt lat="44.33862" lon="2.67496">
        <ele>783.1311035</ele>
        <time>2014-12-14T09:48:20Z</time>
      </trkpt>
      <trkpt lat="44.33869" lon="2.67488">
        <ele>781.689209</ele>
        <time>2014-12-14T09:48:25Z</time>
      </trkpt>
      <trkpt lat="44.33874" lon="2.67483">
        <ele>781.2087402</ele>
        <time>2014-12-14T09:48:29Z</time>
      </trkpt>
      <trkpt lat="44.33879" lon="2.67477">
        <ele>780.7280273</ele>
        <time>2014-12-14T09:48:33Z</time>
      </trkpt>
      <trkpt lat="44.33886" lon="2.67469">
        <ele>780.2473145</ele>
        <time>2014-12-14T09:48:37Z</time>
      </trkpt>
      <trkpt lat="44.33893" lon="2.67462">
        <ele>780.2473145</ele>
        <time>2014-12-14T09:48:41Z</time>
      </trkpt>
      <trkpt lat="44.33899" lon="2.67455">
        <ele>781.689209</ele>
        <time>2014-12-14T09:48:48Z</time>
      </trkpt>
      <trkpt lat="44.33901" lon="2.67452">
        <ele>784.5732422</ele>
        <time>2014-12-14T09:49:08Z</time>
      </trkpt>
      <trkpt lat="44.33906" lon="2.67445">
        <ele>784.0925293</ele>
        <time>2014-12-14T09:49:15Z</time>
      </trkpt>
      <trkpt lat="44.33914" lon="2.67436">
        <ele>783.1311035</ele>
        <time>2014-12-14T09:49:24Z</time>
      </trkpt>
      <trkpt lat="44.3392" lon="2.6743">
        <ele>782.1699219</ele>
        <time>2014-12-14T09:49:31Z</time>
      </trkpt>
      <trkpt lat="44.33929" lon="2.67422">
        <ele>781.689209</ele>
        <time>2014-12-14T09:49:40Z</time>
      </trkpt>
      <trkpt lat="44.33931" lon="2.67418">
        <ele>782.1699219</ele>
        <time>2014-12-14T09:49:47Z</time>
      </trkpt>
      <trkpt lat="44.33935" lon="2.67414">
        <ele>781.689209</ele>
        <time>2014-12-14T09:49:53Z</time>
      </trkpt>
      <trkpt lat="44.33945" lon="2.67404">
        <ele>782.1699219</ele>
        <time>2014-12-14T09:50:00Z</time>
      </trkpt>
      <trkpt lat="44.33959" lon="2.67392">
        <ele>781.689209</ele>
        <time>2014-12-14T09:50:07Z</time>
      </trkpt>
      <trkpt lat="44.3397" lon="2.67382">
        <ele>781.2087402</ele>
        <time>2014-12-14T09:50:13Z</time>
      </trkpt>
      <trkpt lat="44.33979" lon="2.67372">
        <ele>781.2087402</ele>
        <time>2014-12-14T09:50:18Z</time>
      </trkpt>
      <trkpt lat="44.33991" lon="2.67357">
        <ele>780.7280273</ele>
        <time>2014-12-14T09:50:25Z</time>
      </trkpt>
      <trkpt lat="44.34001" lon="2.67342">
        <ele>781.689209</ele>
        <time>2014-12-14T09:50:31Z</time>
      </trkpt>
      <trkpt lat="44.34008" lon="2.67328">
        <ele>781.2087402</ele>
        <time>2014-12-14T09:50:36Z</time>
      </trkpt>
      <trkpt lat="44.3402" lon="2.6731">
        <ele>781.2087402</ele>
        <time>2014-12-14T09:50:43Z</time>
      </trkpt>
      <trkpt lat="44.3403" lon="2.67296">
        <ele>779.7663574</ele>
        <time>2014-12-14T09:50:49Z</time>
      </trkpt>
      <trkpt lat="44.34043" lon="2.67284">
        <ele>778.3244629</ele>
        <time>2014-12-14T09:50:55Z</time>
      </trkpt>
      <trkpt lat="44.34053" lon="2.67275">
        <ele>777.84375</ele>
        <time>2014-12-14T09:51:00Z</time>
      </trkpt>
      <trkpt lat="44.34064" lon="2.67267">
        <ele>776.8825684</ele>
        <time>2014-12-14T09:51:05Z</time>
      </trkpt>
      <trkpt lat="44.34067" lon="2.67265">
        <ele>776.8825684</ele>
        <time>2014-12-14T09:51:06Z</time>
      </trkpt>
      <trkpt lat="44.34076" lon="2.67253">
        <ele>775.4404297</ele>
        <time>2014-12-14T09:51:11Z</time>
      </trkpt>
      <trkpt lat="44.34085" lon="2.67241">
        <ele>773.9985352</ele>
        <time>2014-12-14T09:51:16Z</time>
      </trkpt>
      <trkpt lat="44.34094" lon="2.6723">
        <ele>772.0759277</ele>
        <time>2014-12-14T09:51:21Z</time>
      </trkpt>
      <trkpt lat="44.34104" lon="2.67218">
        <ele>770.6340332</ele>
        <time>2014-12-14T09:51:26Z</time>
      </trkpt>
      <trkpt lat="44.34113" lon="2.67206">
        <ele>769.1921387</ele>
        <time>2014-12-14T09:51:31Z</time>
      </trkpt>
      <trkpt lat="44.34122" lon="2.67195">
        <ele>767.75</ele>
        <time>2014-12-14T09:51:36Z</time>
      </trkpt>
      <trkpt lat="44.34125" lon="2.67191">
        <ele>766.7888184</ele>
        <time>2014-12-14T09:51:40Z</time>
      </trkpt>
      <trkpt lat="44.34127" lon="2.67187">
        <ele>766.3081055</ele>
        <time>2014-12-14T09:51:47Z</time>
      </trkpt>
      <trkpt lat="44.3413" lon="2.67184">
        <ele>766.7888184</ele>
        <time>2014-12-14T09:51:49Z</time>
      </trkpt>
      <trkpt lat="44.34141" lon="2.67172">
        <ele>765.3469238</ele>
        <time>2014-12-14T09:51:54Z</time>
      </trkpt>
      <trkpt lat="44.34149" lon="2.67161">
        <ele>766.3081055</ele>
        <time>2014-12-14T09:51:58Z</time>
      </trkpt>
      <trkpt lat="44.34154" lon="2.67156">
        <ele>765.3469238</ele>
        <time>2014-12-14T09:52:02Z</time>
      </trkpt>
      <trkpt lat="44.34164" lon="2.67149">
        <ele>763.904541</ele>
        <time>2014-12-14T09:52:06Z</time>
      </trkpt>
      <trkpt lat="44.34174" lon="2.67142">
        <ele>761.9821777</ele>
        <time>2014-12-14T09:52:10Z</time>
      </trkpt>
      <trkpt lat="44.34187" lon="2.67134">
        <ele>760.5400391</ele>
        <time>2014-12-14T09:52:15Z</time>
      </trkpt>
      <trkpt lat="44.34201" lon="2.67125">
        <ele>759.0981445</ele>
        <time>2014-12-14T09:52:20Z</time>
      </trkpt>
      <trkpt lat="44.3421" lon="2.67119">
        <ele>758.6174316</ele>
        <time>2014-12-14T09:52:24Z</time>
      </trkpt>
      <trkpt lat="44.3423" lon="2.6711">
        <ele>756.2141113</ele>
        <time>2014-12-14T09:52:31Z</time>
      </trkpt>
      <trkpt lat="44.34242" lon="2.671">
        <ele>755.2529297</ele>
        <time>2014-12-14T09:52:36Z</time>
      </trkpt>
      <trkpt lat="44.34255" lon="2.67086">
        <ele>754.291748</ele>
        <time>2014-12-14T09:52:42Z</time>
      </trkpt>
      <trkpt lat="44.34264" lon="2.67077">
        <ele>752.8496094</ele>
        <time>2014-12-14T09:52:46Z</time>
      </trkpt>
      <trkpt lat="44.34272" lon="2.67067">
        <ele>751.4077148</ele>
        <time>2014-12-14T09:52:50Z</time>
      </trkpt>
      <trkpt lat="44.3428" lon="2.67049">
        <ele>749.9658203</ele>
        <time>2014-12-14T09:52:55Z</time>
      </trkpt>
      <trkpt lat="44.34287" lon="2.67029">
        <ele>749.0043945</ele>
        <time>2014-12-14T09:53:01Z</time>
      </trkpt>
      <trkpt lat="44.34293" lon="2.67012">
        <ele>747.081543</ele>
        <time>2014-12-14T09:53:06Z</time>
      </trkpt>
      <trkpt lat="44.34298" lon="2.66999">
        <ele>745.6396484</ele>
        <time>2014-12-14T09:53:10Z</time>
      </trkpt>
      <trkpt lat="44.34302" lon="2.66993">
        <ele>746.1203613</ele>
        <time>2014-12-14T09:53:14Z</time>
      </trkpt>
      <trkpt lat="44.34302" lon="2.6699">
        <ele>747.081543</ele>
        <time>2014-12-14T09:53:25Z</time>
      </trkpt>
      <trkpt lat="44.34302" lon="2.66988">
        <ele>749.0043945</ele>
        <time>2014-12-14T09:53:35Z</time>
      </trkpt>
      <trkpt lat="44.34302" lon="2.66986">
        <ele>749.4851074</ele>
        <time>2014-12-14T09:53:46Z</time>
      </trkpt>
      <trkpt lat="44.34302" lon="2.66985">
        <ele>747.5622559</ele>
        <time>2014-12-14T09:53:56Z</time>
      </trkpt>
      <trkpt lat="44.34308" lon="2.66981">
        <ele>747.081543</ele>
        <time>2014-12-14T09:54:03Z</time>
      </trkpt>
      <trkpt lat="44.34318" lon="2.6697">
        <ele>746.1203613</ele>
        <time>2014-12-14T09:54:07Z</time>
      </trkpt>
      <trkpt lat="44.34328" lon="2.6696">
        <ele>743.2363281</ele>
        <time>2014-12-14T09:54:11Z</time>
      </trkpt>
      <trkpt lat="44.34337" lon="2.6695">
        <ele>740.3525391</ele>
        <time>2014-12-14T09:54:15Z</time>
      </trkpt>
      <trkpt lat="44.34346" lon="2.66937">
        <ele>738.4299316</ele>
        <time>2014-12-14T09:54:19Z</time>
      </trkpt>
      <trkpt lat="44.34358" lon="2.66923">
        <ele>736.987793</ele>
        <time>2014-12-14T09:54:24Z</time>
      </trkpt>
      <trkpt lat="44.34368" lon="2.66909">
        <ele>733.623291</ele>
        <time>2014-12-14T09:54:29Z</time>
      </trkpt>
      <trkpt lat="44.34377" lon="2.66902">
        <ele>731.7004395</ele>
        <time>2014-12-14T09:54:33Z</time>
      </trkpt>
      <trkpt lat="44.34387" lon="2.66891">
        <ele>730.2585449</ele>
        <time>2014-12-14T09:54:38Z</time>
      </trkpt>
      <trkpt lat="44.34395" lon="2.66882">
        <ele>728.8166504</ele>
        <time>2014-12-14T09:54:42Z</time>
      </trkpt>
      <trkpt lat="44.34407" lon="2.66879">
        <ele>727.8552246</ele>
        <time>2014-12-14T09:54:47Z</time>
      </trkpt>
      <trkpt lat="44.34417" lon="2.6687">
        <ele>726.894043</ele>
        <time>2014-12-14T09:54:51Z</time>
      </trkpt>
      <trkpt lat="44.34424" lon="2.66853">
        <ele>725.9326172</ele>
        <time>2014-12-14T09:54:55Z</time>
      </trkpt>
      <trkpt lat="44.34433" lon="2.66837">
        <ele>723.529541</ele>
        <time>2014-12-14T09:54:59Z</time>
      </trkpt>
      <trkpt lat="44.34441" lon="2.66824">
        <ele>721.1262207</ele>
        <time>2014-12-14T09:55:03Z</time>
      </trkpt>
      <trkpt lat="44.3445" lon="2.66807">
        <ele>718.2421875</ele>
        <time>2014-12-14T09:55:08Z</time>
      </trkpt>
      <trkpt lat="44.34453" lon="2.66793">
        <ele>716.3195801</ele>
        <time>2014-12-14T09:55:11Z</time>
      </trkpt>
      <trkpt lat="44.34464" lon="2.66779">
        <ele>713.9160156</ele>
        <time>2014-12-14T09:55:17Z</time>
      </trkpt>
      <trkpt lat="44.34469" lon="2.66774">
        <ele>712.954834</ele>
        <time>2014-12-14T09:55:19Z</time>
      </trkpt>
      <trkpt lat="44.34482" lon="2.6676">
        <ele>711.0322266</ele>
        <time>2014-12-14T09:55:24Z</time>
      </trkpt>
      <trkpt lat="44.34491" lon="2.6675">
        <ele>709.590332</ele>
        <time>2014-12-14T09:55:28Z</time>
      </trkpt>
      <trkpt lat="44.34496" lon="2.66744">
        <ele>707.6677246</ele>
        <time>2014-12-14T09:55:32Z</time>
      </trkpt>
      <trkpt lat="44.34497" lon="2.6674">
        <ele>708.1484375</ele>
        <time>2014-12-14T09:55:38Z</time>
      </trkpt>
      <trkpt lat="44.34496" lon="2.66739">
        <ele>709.1096191</ele>
        <time>2014-12-14T09:55:44Z</time>
      </trkpt>
      <trkpt lat="44.34495" lon="2.66737">
        <ele>709.1096191</ele>
        <time>2014-12-14T09:55:46Z</time>
      </trkpt>
      <trkpt lat="44.3449" lon="2.6672">
        <ele>708.6289063</ele>
        <time>2014-12-14T09:55:51Z</time>
      </trkpt>
      <trkpt lat="44.34484" lon="2.66699">
        <ele>707.6677246</ele>
        <time>2014-12-14T09:55:57Z</time>
      </trkpt>
      <trkpt lat="44.34483" lon="2.66696">
        <ele>707.1870117</ele>
        <time>2014-12-14T09:55:58Z</time>
      </trkpt>
      <trkpt lat="44.3448" lon="2.66678">
        <ele>704.7836914</ele>
        <time>2014-12-14T09:56:03Z</time>
      </trkpt>
      <trkpt lat="44.34478" lon="2.66661">
        <ele>702.3803711</ele>
        <time>2014-12-14T09:56:08Z</time>
      </trkpt>
      <trkpt lat="44.34476" lon="2.6664">
        <ele>699.4963379</ele>
        <time>2014-12-14T09:56:14Z</time>
      </trkpt>
      <trkpt lat="44.34473" lon="2.66623">
        <ele>697.0930176</ele>
        <time>2014-12-14T09:56:19Z</time>
      </trkpt>
      <trkpt lat="44.3447" lon="2.66602">
        <ele>691.8059082</ele>
        <time>2014-12-14T09:56:25Z</time>
      </trkpt>
      <trkpt lat="44.34468" lon="2.66595">
        <ele>689.8833008</ele>
        <time>2014-12-14T09:56:27Z</time>
      </trkpt>
      <trkpt lat="44.34467" lon="2.66582">
        <ele>686.0380859</ele>
        <time>2014-12-14T09:56:31Z</time>
      </trkpt>
      <trkpt lat="44.34465" lon="2.6657">
        <ele>681.7119141</ele>
        <time>2014-12-14T09:56:35Z</time>
      </trkpt>
      <trkpt lat="44.34464" lon="2.66555">
        <ele>675.4633789</ele>
        <time>2014-12-14T09:56:40Z</time>
      </trkpt>
      <trkpt lat="44.34464" lon="2.66548">
        <ele>672.098877</ele>
        <time>2014-12-14T09:56:42Z</time>
      </trkpt>
      <trkpt lat="44.34463" lon="2.66545">
        <ele>670.6569824</ele>
        <time>2014-12-14T09:56:44Z</time>
      </trkpt>
      <trkpt lat="44.34457" lon="2.66541">
        <ele>668.2536621</ele>
        <time>2014-12-14T09:56:50Z</time>
      </trkpt>
      <trkpt lat="44.34454" lon="2.66535">
        <ele>664.4082031</ele>
        <time>2014-12-14T09:56:54Z</time>
      </trkpt>
      <trkpt lat="44.34455" lon="2.6653">
        <ele>661.0437012</ele>
        <time>2014-12-14T09:56:57Z</time>
      </trkpt>
      <trkpt lat="44.34456" lon="2.66526">
        <ele>659.1210938</ele>
        <time>2014-12-14T09:57:01Z</time>
      </trkpt>
      <trkpt lat="44.34459" lon="2.66521">
        <ele>653.8339844</ele>
        <time>2014-12-14T09:57:07Z</time>
      </trkpt>
      <trkpt lat="44.3446" lon="2.66517">
        <ele>650.949707</ele>
        <time>2014-12-14T09:57:11Z</time>
      </trkpt>
      <trkpt lat="44.34456" lon="2.66512">
        <ele>646.1433105</ele>
        <time>2014-12-14T09:57:16Z</time>
      </trkpt>
      <trkpt lat="44.34456" lon="2.66507">
        <ele>641.8173828</ele>
        <time>2014-12-14T09:57:21Z</time>
      </trkpt>
      <trkpt lat="44.34457" lon="2.66503">
        <ele>641.8173828</ele>
        <time>2014-12-14T09:57:23Z</time>
      </trkpt>
      <trkpt lat="44.34452" lon="2.66492">
        <ele>642.7788086</ele>
        <time>2014-12-14T09:57:29Z</time>
      </trkpt>
      <trkpt lat="44.34448" lon="2.66486">
        <ele>641.8173828</ele>
        <time>2014-12-14T09:57:32Z</time>
      </trkpt>
      <trkpt lat="44.34442" lon="2.66482">
        <ele>640.3754883</ele>
        <time>2014-12-14T09:57:36Z</time>
      </trkpt>
      <trkpt lat="44.34433" lon="2.66484">
        <ele>641.3366699</ele>
        <time>2014-12-14T09:57:42Z</time>
      </trkpt>
      <trkpt lat="44.34427" lon="2.66488">
        <ele>645.1818848</ele>
        <time>2014-12-14T09:57:46Z</time>
      </trkpt>
      <trkpt lat="44.34421" lon="2.66494">
        <ele>646.1433105</ele>
        <time>2014-12-14T09:57:51Z</time>
      </trkpt>
      <trkpt lat="44.34419" lon="2.66496">
        <ele>646.1433105</ele>
        <time>2014-12-14T09:57:52Z</time>
      </trkpt>
      <trkpt lat="44.34409" lon="2.66502">
        <ele>647.1044922</ele>
        <time>2014-12-14T09:57:58Z</time>
      </trkpt>
      <trkpt lat="44.34402" lon="2.66511">
        <ele>649.0270996</ele>
        <time>2014-12-14T09:58:03Z</time>
      </trkpt>
      <trkpt lat="44.34398" lon="2.66515">
        <ele>650.949707</ele>
        <time>2014-12-14T09:58:06Z</time>
      </trkpt>
      <trkpt lat="44.34391" lon="2.66521">
        <ele>657.1984863</ele>
        <time>2014-12-14T09:58:10Z</time>
      </trkpt>
      <trkpt lat="44.34385" lon="2.66528">
        <ele>663.4470215</ele>
        <time>2014-12-14T09:58:14Z</time>
      </trkpt>
      <trkpt lat="44.34376" lon="2.6654">
        <ele>667.2922363</ele>
        <time>2014-12-14T09:58:21Z</time>
      </trkpt>
      <trkpt lat="44.34374" lon="2.66542">
        <ele>668.2536621</ele>
        <time>2014-12-14T09:58:22Z</time>
      </trkpt>
      <trkpt lat="44.34367" lon="2.66547">
        <ele>670.6569824</ele>
        <time>2014-12-14T09:58:26Z</time>
      </trkpt>
      <trkpt lat="44.34358" lon="2.66553">
        <ele>670.6569824</ele>
        <time>2014-12-14T09:58:31Z</time>
      </trkpt>
      <trkpt lat="44.3435" lon="2.66559">
        <ele>670.1762695</ele>
        <time>2014-12-14T09:58:35Z</time>
      </trkpt>
      <trkpt lat="44.34348" lon="2.6656">
        <ele>670.6569824</ele>
        <time>2014-12-14T09:58:36Z</time>
      </trkpt>
      <trkpt lat="44.34337" lon="2.66557">
        <ele>672.098877</ele>
        <time>2014-12-14T09:58:42Z</time>
      </trkpt>
      <trkpt lat="44.34323" lon="2.66553">
        <ele>671.6181641</ele>
        <time>2014-12-14T09:58:48Z</time>
      </trkpt>
      <trkpt lat="44.34319" lon="2.66552">
        <ele>671.1376953</ele>
        <time>2014-12-14T09:58:50Z</time>
      </trkpt>
      <trkpt lat="44.34305" lon="2.66551">
        <ele>669.6958008</ele>
        <time>2014-12-14T09:58:56Z</time>
      </trkpt>
      <trkpt lat="44.34299" lon="2.66551">
        <ele>668.2536621</ele>
        <time>2014-12-14T09:58:59Z</time>
      </trkpt>
      <trkpt lat="44.34285" lon="2.66558">
        <ele>666.3308105</ele>
        <time>2014-12-14T09:59:06Z</time>
      </trkpt>
      <trkpt lat="44.34279" lon="2.66563">
        <ele>668.734375</ele>
        <time>2014-12-14T09:59:10Z</time>
      </trkpt>
      <trkpt lat="44.34268" lon="2.66576">
        <ele>672.5795898</ele>
        <time>2014-12-14T09:59:17Z</time>
      </trkpt>
      <trkpt lat="44.34264" lon="2.6658">
        <ele>673.5410156</ele>
        <time>2014-12-14T09:59:20Z</time>
      </trkpt>
      <trkpt lat="44.34254" lon="2.66591">
        <ele>677.3862305</ele>
        <time>2014-12-14T09:59:27Z</time>
      </trkpt>
      <trkpt lat="44.34246" lon="2.66592">
        <ele>678.3474121</ele>
        <time>2014-12-14T09:59:32Z</time>
      </trkpt>
      <trkpt lat="44.34242" lon="2.66593">
        <ele>680.2700195</ele>
        <time>2014-12-14T09:59:35Z</time>
      </trkpt>
      <trkpt lat="44.34243" lon="2.66592">
        <ele>681.7119141</ele>
        <time>2014-12-14T09:59:39Z</time>
      </trkpt>
      <trkpt lat="44.34244" lon="2.66587">
        <ele>680.7507324</ele>
        <time>2014-12-14T09:59:46Z</time>
      </trkpt>
      <trkpt lat="44.34248" lon="2.66588">
        <ele>675.9440918</ele>
        <time>2014-12-14T09:59:56Z</time>
      </trkpt>
      <trkpt lat="44.34252" lon="2.66586">
        <ele>678.828125</ele>
        <time>2014-12-14T10:00:06Z</time>
      </trkpt>
      <trkpt lat="44.34254" lon="2.66585">
        <ele>680.2700195</ele>
        <time>2014-12-14T10:00:12Z</time>
      </trkpt>
      <trkpt lat="44.34248" lon="2.66593">
        <ele>678.3474121</ele>
        <time>2014-12-14T10:00:17Z</time>
      </trkpt>
      <trkpt lat="44.34235" lon="2.66602">
        <ele>674.5021973</ele>
        <time>2014-12-14T10:00:22Z</time>
      </trkpt>
      <trkpt lat="44.3422" lon="2.66613">
        <ele>671.6181641</ele>
        <time>2014-12-14T10:00:28Z</time>
      </trkpt>
      <trkpt lat="44.3421" lon="2.66622">
        <ele>673.0603027</ele>
        <time>2014-12-14T10:00:32Z</time>
      </trkpt>
      <trkpt lat="44.34197" lon="2.66631">
        <ele>674.9829102</ele>
        <time>2014-12-14T10:00:36Z</time>
      </trkpt>
      <trkpt lat="44.34191" lon="2.66639">
        <ele>676.9055176</ele>
        <time>2014-12-14T10:00:39Z</time>
      </trkpt>
      <trkpt lat="44.3419" lon="2.66646">
        <ele>679.3085938</ele>
        <time>2014-12-14T10:00:43Z</time>
      </trkpt>
      <trkpt lat="44.34188" lon="2.66649">
        <ele>680.2700195</ele>
        <time>2014-12-14T10:00:45Z</time>
      </trkpt>
      <trkpt lat="44.3418" lon="2.66656">
        <ele>675.4633789</ele>
        <time>2014-12-14T10:00:50Z</time>
      </trkpt>
      <trkpt lat="44.34168" lon="2.66662">
        <ele>674.5021973</ele>
        <time>2014-12-14T10:00:55Z</time>
      </trkpt>
      <trkpt lat="44.34156" lon="2.66667">
        <ele>674.5021973</ele>
        <time>2014-12-14T10:01:00Z</time>
      </trkpt>
      <trkpt lat="44.34147" lon="2.6667">
        <ele>675.4633789</ele>
        <time>2014-12-14T10:01:04Z</time>
      </trkpt>
      <trkpt lat="44.34143" lon="2.66671">
        <ele>674.5021973</ele>
        <time>2014-12-14T10:01:06Z</time>
      </trkpt>
      <trkpt lat="44.34133" lon="2.66665">
        <ele>670.1762695</ele>
        <time>2014-12-14T10:01:11Z</time>
      </trkpt>
      <trkpt lat="44.34121" lon="2.6667">
        <ele>667.2922363</ele>
        <time>2014-12-14T10:01:17Z</time>
      </trkpt>
      <trkpt lat="44.34108" lon="2.66683">
        <ele>668.2536621</ele>
        <time>2014-12-14T10:01:24Z</time>
      </trkpt>
      <trkpt lat="44.34107" lon="2.66688">
        <ele>669.2150879</ele>
        <time>2014-12-14T10:01:26Z</time>
      </trkpt>
      <trkpt lat="44.34103" lon="2.66691">
        <ele>671.6181641</ele>
        <time>2014-12-14T10:01:29Z</time>
      </trkpt>
      <trkpt lat="44.34096" lon="2.66684">
        <ele>670.1762695</ele>
        <time>2014-12-14T10:01:34Z</time>
      </trkpt>
      <trkpt lat="44.34093" lon="2.66679">
        <ele>668.734375</ele>
        <time>2014-12-14T10:01:36Z</time>
      </trkpt>
      <trkpt lat="44.34085" lon="2.66673">
        <ele>665.3696289</ele>
        <time>2014-12-14T10:01:40Z</time>
      </trkpt>
      <trkpt lat="44.34077" lon="2.66664">
        <ele>655.2758789</ele>
        <time>2014-12-14T10:01:47Z</time>
      </trkpt>
      <trkpt lat="44.34073" lon="2.66659">
        <ele>652.3918457</ele>
        <time>2014-12-14T10:01:50Z</time>
      </trkpt>
      <trkpt lat="44.34066" lon="2.66651">
        <ele>648.5463867</ele>
        <time>2014-12-14T10:01:55Z</time>
      </trkpt>
      <trkpt lat="44.34058" lon="2.66639">
        <ele>642.2980957</ele>
        <time>2014-12-14T10:02:02Z</time>
      </trkpt>
      <trkpt lat="44.34051" lon="2.66628">
        <ele>637.0107422</ele>
        <time>2014-12-14T10:02:07Z</time>
      </trkpt>
      <trkpt lat="44.34049" lon="2.66622">
        <ele>636.5302734</ele>
        <time>2014-12-14T10:02:09Z</time>
      </trkpt>
      <trkpt lat="44.34038" lon="2.66615">
        <ele>637.4914551</ele>
        <time>2014-12-14T10:02:14Z</time>
      </trkpt>
      <trkpt lat="44.34029" lon="2.66611">
        <ele>637.4914551</ele>
        <time>2014-12-14T10:02:19Z</time>
      </trkpt>
      <trkpt lat="44.34026" lon="2.6661">
        <ele>637.972168</ele>
        <time>2014-12-14T10:02:21Z</time>
      </trkpt>
      <trkpt lat="44.34018" lon="2.66602">
        <ele>636.5302734</ele>
        <time>2014-12-14T10:02:26Z</time>
      </trkpt>
      <trkpt lat="44.34013" lon="2.66597">
        <ele>643.7399902</ele>
        <time>2014-12-14T10:02:29Z</time>
      </trkpt>
      <trkpt lat="44.3401" lon="2.66594">
        <ele>647.5852051</ele>
        <time>2014-12-14T10:02:33Z</time>
      </trkpt>
      <trkpt lat="44.34002" lon="2.66583">
        <ele>650.4692383</ele>
        <time>2014-12-14T10:02:38Z</time>
      </trkpt>
      <trkpt lat="44.33995" lon="2.66568">
        <ele>653.8339844</ele>
        <time>2014-12-14T10:02:43Z</time>
      </trkpt>
      <trkpt lat="44.33988" lon="2.66552">
        <ele>656.7177734</ele>
        <time>2014-12-14T10:02:49Z</time>
      </trkpt>
      <trkpt lat="44.33982" lon="2.6654">
        <ele>656.7177734</ele>
        <time>2014-12-14T10:02:54Z</time>
      </trkpt>
      <trkpt lat="44.33973" lon="2.66529">
        <ele>655.2758789</ele>
        <time>2014-12-14T10:02:59Z</time>
      </trkpt>
      <trkpt lat="44.33964" lon="2.66526">
        <ele>653.8339844</ele>
        <time>2014-12-14T10:03:03Z</time>
      </trkpt>
      <trkpt lat="44.33962" lon="2.66524">
        <ele>653.3532715</ele>
        <time>2014-12-14T10:03:04Z</time>
      </trkpt>
      <trkpt lat="44.33955" lon="2.66522">
        <ele>651.9111328</ele>
        <time>2014-12-14T10:03:08Z</time>
      </trkpt>
      <trkpt lat="44.33952" lon="2.6652">
        <ele>650.949707</ele>
        <time>2014-12-14T10:03:10Z</time>
      </trkpt>
      <trkpt lat="44.33947" lon="2.66519">
        <ele>649.0270996</ele>
        <time>2014-12-14T10:03:15Z</time>
      </trkpt>
      <trkpt lat="44.33943" lon="2.66517">
        <ele>648.5463867</ele>
        <time>2014-12-14T10:03:18Z</time>
      </trkpt>
      <trkpt lat="44.3394" lon="2.66516">
        <ele>647.1044922</ele>
        <time>2014-12-14T10:03:23Z</time>
      </trkpt>
      <trkpt lat="44.33932" lon="2.66515">
        <ele>646.6240234</ele>
        <time>2014-12-14T10:03:28Z</time>
      </trkpt>
      <trkpt lat="44.33924" lon="2.66512">
        <ele>643.7399902</ele>
        <time>2014-12-14T10:03:32Z</time>
      </trkpt>
      <trkpt lat="44.33915" lon="2.66512">
        <ele>640.3754883</ele>
        <time>2014-12-14T10:03:36Z</time>
      </trkpt>
      <trkpt lat="44.3391" lon="2.66511">
        <ele>638.4528809</ele>
        <time>2014-12-14T10:03:38Z</time>
      </trkpt>
      <trkpt lat="44.33899" lon="2.66506">
        <ele>636.0495605</ele>
        <time>2014-12-14T10:03:44Z</time>
      </trkpt>
      <trkpt lat="44.33895" lon="2.66504">
        <ele>637.4914551</ele>
        <time>2014-12-14T10:03:46Z</time>
      </trkpt>
      <trkpt lat="44.33888" lon="2.66502">
        <ele>637.4914551</ele>
        <time>2014-12-14T10:03:50Z</time>
      </trkpt>
      <trkpt lat="44.33875" lon="2.66495">
        <ele>634.126709</ele>
        <time>2014-12-14T10:03:56Z</time>
      </trkpt>
      <trkpt lat="44.33865" lon="2.66491">
        <ele>631.7233887</ele>
        <time>2014-12-14T10:04:01Z</time>
      </trkpt>
      <trkpt lat="44.33856" lon="2.66483">
        <ele>628.3588867</ele>
        <time>2014-12-14T10:04:05Z</time>
      </trkpt>
      <trkpt lat="44.33853" lon="2.66481">
        <ele>628.3588867</ele>
        <time>2014-12-14T10:04:06Z</time>
      </trkpt>
      <trkpt lat="44.33841" lon="2.66473">
        <ele>624.5136719</ele>
        <time>2014-12-14T10:04:11Z</time>
      </trkpt>
      <trkpt lat="44.33824" lon="2.66469">
        <ele>620.668457</ele>
        <time>2014-12-14T10:04:17Z</time>
      </trkpt>
      <trkpt lat="44.33811" lon="2.66468">
        <ele>617.3037109</ele>
        <time>2014-12-14T10:04:22Z</time>
      </trkpt>
      <trkpt lat="44.33799" lon="2.66472">
        <ele>611.5358887</ele>
        <time>2014-12-14T10:04:27Z</time>
      </trkpt>
      <trkpt lat="44.33789" lon="2.66479">
        <ele>607.6906738</ele>
        <time>2014-12-14T10:04:31Z</time>
      </trkpt>
      <trkpt lat="44.3378" lon="2.66487">
        <ele>608.1713867</ele>
        <time>2014-12-14T10:04:35Z</time>
      </trkpt>
      <trkpt lat="44.33775" lon="2.66478">
        <ele>607.2099609</ele>
        <time>2014-12-14T10:04:39Z</time>
      </trkpt>
      <trkpt lat="44.33776" lon="2.66475">
        <ele>607.2099609</ele>
        <time>2014-12-14T10:04:40Z</time>
      </trkpt>
      <trkpt lat="44.33778" lon="2.66464">
        <ele>606.2485352</ele>
        <time>2014-12-14T10:04:43Z</time>
      </trkpt>
      <trkpt lat="44.33776" lon="2.66441">
        <ele>606.2485352</ele>
        <time>2014-12-14T10:04:49Z</time>
      </trkpt>
      <trkpt lat="44.33773" lon="2.66432">
        <ele>606.729248</ele>
        <time>2014-12-14T10:04:52Z</time>
      </trkpt>
      <trkpt lat="44.33778" lon="2.66424">
        <ele>607.2099609</ele>
        <time>2014-12-14T10:04:57Z</time>
      </trkpt>
      <trkpt lat="44.33789" lon="2.66425">
        <ele>608.6518555</ele>
        <time>2014-12-14T10:05:00Z</time>
      </trkpt>
      <trkpt lat="44.33804" lon="2.66424">
        <ele>610.09375</ele>
        <time>2014-12-14T10:05:05Z</time>
      </trkpt>
      <trkpt lat="44.33807" lon="2.66424">
        <ele>611.0551758</ele>
        <time>2014-12-14T10:05:06Z</time>
      </trkpt>
      <trkpt lat="44.33816" lon="2.66419">
        <ele>611.0551758</ele>
        <time>2014-12-14T10:05:10Z</time>
      </trkpt>
      <trkpt lat="44.33832" lon="2.66423">
        <ele>615.3811035</ele>
        <time>2014-12-14T10:05:15Z</time>
      </trkpt>
      <trkpt lat="44.33845" lon="2.66424">
        <ele>617.3037109</ele>
        <time>2014-12-14T10:05:20Z</time>
      </trkpt>
      <trkpt lat="44.33854" lon="2.66424">
        <ele>615.8618164</ele>
        <time>2014-12-14T10:05:24Z</time>
      </trkpt>
      <trkpt lat="44.33868" lon="2.66422">
        <ele>614.4196777</ele>
        <time>2014-12-14T10:05:29Z</time>
      </trkpt>
      <trkpt lat="44.33872" lon="2.66422">
        <ele>614.4196777</ele>
        <time>2014-12-14T10:05:30Z</time>
      </trkpt>
      <trkpt lat="44.33891" lon="2.66418">
        <ele>613.4584961</ele>
        <time>2014-12-14T10:05:37Z</time>
      </trkpt>
      <trkpt lat="44.33899" lon="2.66415">
        <ele>613.4584961</ele>
        <time>2014-12-14T10:05:41Z</time>
      </trkpt>
      <trkpt lat="44.33914" lon="2.6641">
        <ele>613.9389648</ele>
        <time>2014-12-14T10:05:46Z</time>
      </trkpt>
      <trkpt lat="44.33929" lon="2.66398">
        <ele>611.5358887</ele>
        <time>2014-12-14T10:05:52Z</time>
      </trkpt>
      <trkpt lat="44.33942" lon="2.66389">
        <ele>613.4584961</ele>
        <time>2014-12-14T10:05:57Z</time>
      </trkpt>
      <trkpt lat="44.33947" lon="2.66387">
        <ele>612.4970703</ele>
        <time>2014-12-14T10:05:59Z</time>
      </trkpt>
      <trkpt lat="44.3396" lon="2.66384">
        <ele>613.4584961</ele>
        <time>2014-12-14T10:06:04Z</time>
      </trkpt>
      <trkpt lat="44.3397" lon="2.66382">
        <ele>612.9777832</ele>
        <time>2014-12-14T10:06:08Z</time>
      </trkpt>
      <trkpt lat="44.33983" lon="2.66383">
        <ele>617.3037109</ele>
        <time>2014-12-14T10:06:13Z</time>
      </trkpt>
      <trkpt lat="44.33997" lon="2.66381">
        <ele>612.0166016</ele>
        <time>2014-12-14T10:06:18Z</time>
      </trkpt>
      <trkpt lat="44.34016" lon="2.66386">
        <ele>608.1713867</ele>
        <time>2014-12-14T10:06:25Z</time>
      </trkpt>
      <trkpt lat="44.34029" lon="2.66387">
        <ele>601.9226074</ele>
        <time>2014-12-14T10:06:29Z</time>
      </trkpt>
      <trkpt lat="44.34034" lon="2.66384">
        <ele>600.4807129</ele>
        <time>2014-12-14T10:06:32Z</time>
      </trkpt>
      <trkpt lat="44.34047" lon="2.66382">
        <ele>600</ele>
        <time>2014-12-14T10:06:38Z</time>
      </trkpt>
      <trkpt lat="44.34057" lon="2.66378">
        <ele>599.0385742</ele>
        <time>2014-12-14T10:06:44Z</time>
      </trkpt>
      <trkpt lat="44.34059" lon="2.66378">
        <ele>599.0385742</ele>
        <time>2014-12-14T10:06:46Z</time>
      </trkpt>
      <trkpt lat="44.34069" lon="2.66376">
        <ele>598.5578613</ele>
        <time>2014-12-14T10:06:53Z</time>
      </trkpt>
      <trkpt lat="44.34071" lon="2.66375">
        <ele>598.5578613</ele>
        <time>2014-12-14T10:06:54Z</time>
      </trkpt>
      <trkpt lat="44.34079" lon="2.66373">
        <ele>599.0385742</ele>
        <time>2014-12-14T10:06:59Z</time>
      </trkpt>
      <trkpt lat="44.3409" lon="2.66363">
        <ele>599.5192871</ele>
        <time>2014-12-14T10:07:05Z</time>
      </trkpt>
      <trkpt lat="44.34098" lon="2.66357">
        <ele>600</ele>
        <time>2014-12-14T10:07:09Z</time>
      </trkpt>
      <trkpt lat="44.34106" lon="2.6635">
        <ele>599.0385742</ele>
        <time>2014-12-14T10:07:14Z</time>
      </trkpt>
      <trkpt lat="44.34109" lon="2.66347">
        <ele>599.5192871</ele>
        <time>2014-12-14T10:07:16Z</time>
      </trkpt>
      <trkpt lat="44.34118" lon="2.66335">
        <ele>598.0773926</ele>
        <time>2014-12-14T10:07:23Z</time>
      </trkpt>
      <trkpt lat="44.34121" lon="2.66328">
        <ele>600.9611816</ele>
        <time>2014-12-14T10:07:26Z</time>
      </trkpt>
      <trkpt lat="44.34127" lon="2.66323">
        <ele>600.9611816</ele>
        <time>2014-12-14T10:07:30Z</time>
      </trkpt>
      <trkpt lat="44.34135" lon="2.66312">
        <ele>603.8452148</ele>
        <time>2014-12-14T10:07:38Z</time>
      </trkpt>
      <trkpt lat="44.34141" lon="2.66303">
        <ele>607.2099609</ele>
        <time>2014-12-14T10:07:44Z</time>
      </trkpt>
      <trkpt lat="44.34146" lon="2.66295">
        <ele>607.2099609</ele>
        <time>2014-12-14T10:07:49Z</time>
      </trkpt>
      <trkpt lat="44.34154" lon="2.66286">
        <ele>606.729248</ele>
        <time>2014-12-14T10:07:55Z</time>
      </trkpt>
      <trkpt lat="44.34163" lon="2.66277">
        <ele>607.6906738</ele>
        <time>2014-12-14T10:08:01Z</time>
      </trkpt>
      <trkpt lat="44.34168" lon="2.6627">
        <ele>606.729248</ele>
        <time>2014-12-14T10:08:05Z</time>
      </trkpt>
      <trkpt lat="44.34175" lon="2.66265">
        <ele>606.729248</ele>
        <time>2014-12-14T10:08:10Z</time>
      </trkpt>
      <trkpt lat="44.34182" lon="2.66256">
        <ele>616.3422852</ele>
        <time>2014-12-14T10:08:15Z</time>
      </trkpt>
      <trkpt lat="44.34183" lon="2.66255">
        <ele>618.2648926</ele>
        <time>2014-12-14T10:08:16Z</time>
      </trkpt>
      <trkpt lat="44.3419" lon="2.66245">
        <ele>625.9555664</ele>
        <time>2014-12-14T10:08:22Z</time>
      </trkpt>
      <trkpt lat="44.342" lon="2.66236">
        <ele>627.8781738</ele>
        <time>2014-12-14T10:08:28Z</time>
      </trkpt>
      <trkpt lat="44.34207" lon="2.6623">
        <ele>629.8007813</ele>
        <time>2014-12-14T10:08:32Z</time>
      </trkpt>
      <trkpt lat="44.34213" lon="2.66224">
        <ele>631.7233887</ele>
        <time>2014-12-14T10:08:36Z</time>
      </trkpt>
      <trkpt lat="44.34216" lon="2.66221">
        <ele>631.7233887</ele>
        <time>2014-12-14T10:08:38Z</time>
      </trkpt>
      <trkpt lat="44.34223" lon="2.66211">
        <ele>632.2041016</ele>
        <time>2014-12-14T10:08:44Z</time>
      </trkpt>
      <trkpt lat="44.34224" lon="2.66209">
        <ele>632.2041016</ele>
        <time>2014-12-14T10:08:45Z</time>
      </trkpt>
      <trkpt lat="44.34231" lon="2.66202">
        <ele>632.6848145</ele>
        <time>2014-12-14T10:08:50Z</time>
      </trkpt>
      <trkpt lat="44.34238" lon="2.66194">
        <ele>634.6074219</ele>
        <time>2014-12-14T10:08:55Z</time>
      </trkpt>
      <trkpt lat="44.3424" lon="2.66191">
        <ele>636.0495605</ele>
        <time>2014-12-14T10:08:57Z</time>
      </trkpt>
      <trkpt lat="44.34248" lon="2.66182">
        <ele>636.0495605</ele>
        <time>2014-12-14T10:09:02Z</time>
      </trkpt>
      <trkpt lat="44.34253" lon="2.66175">
        <ele>635.5686035</ele>
        <time>2014-12-14T10:09:05Z</time>
      </trkpt>
      <trkpt lat="44.34261" lon="2.6616">
        <ele>633.1652832</ele>
        <time>2014-12-14T10:09:12Z</time>
      </trkpt>
      <trkpt lat="44.34265" lon="2.66149">
        <ele>631.2429199</ele>
        <time>2014-12-14T10:09:17Z</time>
      </trkpt>
      <trkpt lat="44.34266" lon="2.66141">
        <ele>631.2429199</ele>
        <time>2014-12-14T10:09:20Z</time>
      </trkpt>
      <trkpt lat="44.34268" lon="2.66131">
        <ele>631.2429199</ele>
        <time>2014-12-14T10:09:24Z</time>
      </trkpt>
      <trkpt lat="44.34263" lon="2.66112">
        <ele>631.2429199</ele>
        <time>2014-12-14T10:09:31Z</time>
      </trkpt>
      <trkpt lat="44.34256" lon="2.66095">
        <ele>633.1652832</ele>
        <time>2014-12-14T10:09:37Z</time>
      </trkpt>
      <trkpt lat="44.34252" lon="2.66083">
        <ele>634.6074219</ele>
        <time>2014-12-14T10:09:42Z</time>
      </trkpt>
      <trkpt lat="44.34247" lon="2.66073">
        <ele>633.6459961</ele>
        <time>2014-12-14T10:09:46Z</time>
      </trkpt>
      <trkpt lat="44.34247" lon="2.66058">
        <ele>635.5686035</ele>
        <time>2014-12-14T10:09:51Z</time>
      </trkpt>
      <trkpt lat="44.34251" lon="2.66045">
        <ele>636.0495605</ele>
        <time>2014-12-14T10:09:58Z</time>
      </trkpt>
      <trkpt lat="44.34253" lon="2.66034">
        <ele>636.5302734</ele>
        <time>2014-12-14T10:10:03Z</time>
      </trkpt>
      <trkpt lat="44.34252" lon="2.66025">
        <ele>636.5302734</ele>
        <time>2014-12-14T10:10:06Z</time>
      </trkpt>
      <trkpt lat="44.34247" lon="2.66016">
        <ele>636.0495605</ele>
        <time>2014-12-14T10:10:10Z</time>
      </trkpt>
      <trkpt lat="44.34243" lon="2.66006">
        <ele>635.0881348</ele>
        <time>2014-12-14T10:10:14Z</time>
      </trkpt>
      <trkpt lat="44.34241" lon="2.66002">
        <ele>635.0881348</ele>
        <time>2014-12-14T10:10:16Z</time>
      </trkpt>
      <trkpt lat="44.34239" lon="2.65996">
        <ele>634.126709</ele>
        <time>2014-12-14T10:10:19Z</time>
      </trkpt>
      <trkpt lat="44.34235" lon="2.65984">
        <ele>632.6848145</ele>
        <time>2014-12-14T10:10:25Z</time>
      </trkpt>
      <trkpt lat="44.34232" lon="2.65975">
        <ele>631.7233887</ele>
        <time>2014-12-14T10:10:30Z</time>
      </trkpt>
      <trkpt lat="44.34232" lon="2.65968">
        <ele>631.7233887</ele>
        <time>2014-12-14T10:10:34Z</time>
      </trkpt>
      <trkpt lat="44.3423" lon="2.6596">
        <ele>628.8395996</ele>
        <time>2014-12-14T10:10:41Z</time>
      </trkpt>
      <trkpt lat="44.34225" lon="2.65949">
        <ele>629.8007813</ele>
        <time>2014-12-14T10:10:47Z</time>
      </trkpt>
      <trkpt lat="44.3422" lon="2.65942">
        <ele>630.2814941</ele>
        <time>2014-12-14T10:10:53Z</time>
      </trkpt>
      <trkpt lat="44.34217" lon="2.65937">
        <ele>630.762207</ele>
        <time>2014-12-14T10:10:56Z</time>
      </trkpt>
      <trkpt lat="44.34213" lon="2.65932">
        <ele>633.6459961</ele>
        <time>2014-12-14T10:10:59Z</time>
      </trkpt>
      <trkpt lat="44.34206" lon="2.65926">
        <ele>635.5686035</ele>
        <time>2014-12-14T10:11:06Z</time>
      </trkpt>
      <trkpt lat="44.342" lon="2.65919">
        <ele>633.1652832</ele>
        <time>2014-12-14T10:11:10Z</time>
      </trkpt>
      <trkpt lat="44.34197" lon="2.65915">
        <ele>633.1652832</ele>
        <time>2014-12-14T10:11:12Z</time>
      </trkpt>
      <trkpt lat="44.34195" lon="2.65905">
        <ele>636.0495605</ele>
        <time>2014-12-14T10:11:15Z</time>
      </trkpt>
      <trkpt lat="44.34185" lon="2.65894">
        <ele>637.0107422</ele>
        <time>2014-12-14T10:11:22Z</time>
      </trkpt>
      <trkpt lat="44.34175" lon="2.65886">
        <ele>638.4528809</ele>
        <time>2014-12-14T10:11:28Z</time>
      </trkpt>
      <trkpt lat="44.34166" lon="2.6588">
        <ele>641.3366699</ele>
        <time>2014-12-14T10:11:35Z</time>
      </trkpt>
      <trkpt lat="44.34157" lon="2.65876">
        <ele>642.2980957</ele>
        <time>2014-12-14T10:11:41Z</time>
      </trkpt>
      <trkpt lat="44.34145" lon="2.65874">
        <ele>649.0270996</ele>
        <time>2014-12-14T10:11:48Z</time>
      </trkpt>
      <trkpt lat="44.34144" lon="2.65873">
        <ele>649.5078125</ele>
        <time>2014-12-14T10:11:49Z</time>
      </trkpt>
      <trkpt lat="44.34133" lon="2.65868">
        <ele>658.6403809</ele>
        <time>2014-12-14T10:11:58Z</time>
      </trkpt>
      <trkpt lat="44.3413" lon="2.65866">
        <ele>661.0437012</ele>
        <time>2014-12-14T10:12:00Z</time>
      </trkpt>
      <trkpt lat="44.34121" lon="2.65863">
        <ele>665.3696289</ele>
        <time>2014-12-14T10:12:05Z</time>
      </trkpt>
      <trkpt lat="44.34112" lon="2.65857">
        <ele>668.734375</ele>
        <time>2014-12-14T10:12:12Z</time>
      </trkpt>
      <trkpt lat="44.34105" lon="2.65853">
        <ele>671.6181641</ele>
        <time>2014-12-14T10:12:18Z</time>
      </trkpt>
      <trkpt lat="44.341" lon="2.65852">
        <ele>673.5410156</ele>
        <time>2014-12-14T10:12:22Z</time>
      </trkpt>
      <trkpt lat="44.34097" lon="2.65853">
        <ele>674.9829102</ele>
        <time>2014-12-14T10:12:24Z</time>
      </trkpt>
      <trkpt lat="44.3409" lon="2.6585">
        <ele>680.2700195</ele>
        <time>2014-12-14T10:12:28Z</time>
      </trkpt>
      <trkpt lat="44.34079" lon="2.65848">
        <ele>683.1538086</ele>
        <time>2014-12-14T10:12:33Z</time>
      </trkpt>
      <trkpt lat="44.34064" lon="2.6585">
        <ele>684.5961914</ele>
        <time>2014-12-14T10:12:40Z</time>
      </trkpt>
      <trkpt lat="44.34055" lon="2.65851">
        <ele>683.6345215</ele>
        <time>2014-12-14T10:12:45Z</time>
      </trkpt>
      <trkpt lat="44.34043" lon="2.65851">
        <ele>684.5961914</ele>
        <time>2014-12-14T10:12:51Z</time>
      </trkpt>
      <trkpt lat="44.34033" lon="2.65851">
        <ele>686.5187988</ele>
        <time>2014-12-14T10:12:56Z</time>
      </trkpt>
      <trkpt lat="44.34025" lon="2.65853">
        <ele>688.9221191</ele>
        <time>2014-12-14T10:13:00Z</time>
      </trkpt>
      <trkpt lat="44.34013" lon="2.65857">
        <ele>690.8444824</ele>
        <time>2014-12-14T10:13:06Z</time>
      </trkpt>
      <trkpt lat="44.34002" lon="2.65861">
        <ele>689.8833008</ele>
        <time>2014-12-14T10:13:11Z</time>
      </trkpt>
      <trkpt lat="44.33993" lon="2.65866">
        <ele>689.4025879</ele>
        <time>2014-12-14T10:13:15Z</time>
      </trkpt>
      <trkpt lat="44.33981" lon="2.65873">
        <ele>689.8833008</ele>
        <time>2014-12-14T10:13:20Z</time>
      </trkpt>
      <trkpt lat="44.3397" lon="2.65882">
        <ele>689.4025879</ele>
        <time>2014-12-14T10:13:26Z</time>
      </trkpt>
      <trkpt lat="44.33965" lon="2.65884">
        <ele>688.9221191</ele>
        <time>2014-12-14T10:13:28Z</time>
      </trkpt>
      <trkpt lat="44.3395" lon="2.65884">
        <ele>687.9606934</ele>
        <time>2014-12-14T10:13:34Z</time>
      </trkpt>
      <trkpt lat="44.33942" lon="2.65883">
        <ele>686.5187988</ele>
        <time>2014-12-14T10:13:39Z</time>
      </trkpt>
      <trkpt lat="44.33933" lon="2.65884">
        <ele>686.5187988</ele>
        <time>2014-12-14T10:13:44Z</time>
      </trkpt>
      <trkpt lat="44.33929" lon="2.65886">
        <ele>686.5187988</ele>
        <time>2014-12-14T10:13:46Z</time>
      </trkpt>
      <trkpt lat="44.33922" lon="2.65876">
        <ele>686.5187988</ele>
        <time>2014-12-14T10:13:50Z</time>
      </trkpt>
      <trkpt lat="44.33919" lon="2.65871">
        <ele>686.5187988</ele>
        <time>2014-12-14T10:13:52Z</time>
      </trkpt>
      <trkpt lat="44.33911" lon="2.65843">
        <ele>687.4799805</ele>
        <time>2014-12-14T10:14:00Z</time>
      </trkpt>
      <trkpt lat="44.33905" lon="2.6583">
        <ele>686.9992676</ele>
        <time>2014-12-14T10:14:04Z</time>
      </trkpt>
      <trkpt lat="44.33901" lon="2.65814">
        <ele>686.9992676</ele>
        <time>2014-12-14T10:14:08Z</time>
      </trkpt>
      <trkpt lat="44.33901" lon="2.65799">
        <ele>686.9992676</ele>
        <time>2014-12-14T10:14:12Z</time>
      </trkpt>
      <trkpt lat="44.33902" lon="2.65781">
        <ele>687.9606934</ele>
        <time>2014-12-14T10:14:17Z</time>
      </trkpt>
      <trkpt lat="44.33906" lon="2.65765">
        <ele>687.4799805</ele>
        <time>2014-12-14T10:14:22Z</time>
      </trkpt>
      <trkpt lat="44.3391" lon="2.65749">
        <ele>687.4799805</ele>
        <time>2014-12-14T10:14:27Z</time>
      </trkpt>
      <trkpt lat="44.3391" lon="2.65746">
        <ele>687.4799805</ele>
        <time>2014-12-14T10:14:28Z</time>
      </trkpt>
      <trkpt lat="44.33916" lon="2.65725">
        <ele>687.4799805</ele>
        <time>2014-12-14T10:14:34Z</time>
      </trkpt>
      <trkpt lat="44.3392" lon="2.65701">
        <ele>687.9606934</ele>
        <time>2014-12-14T10:14:41Z</time>
      </trkpt>
      <trkpt lat="44.33923" lon="2.65685">
        <ele>687.9606934</ele>
        <time>2014-12-14T10:14:46Z</time>
      </trkpt>
      <trkpt lat="44.33926" lon="2.65665">
        <ele>688.9221191</ele>
        <time>2014-12-14T10:14:52Z</time>
      </trkpt>
      <trkpt lat="44.33932" lon="2.6564">
        <ele>689.8833008</ele>
        <time>2014-12-14T10:14:59Z</time>
      </trkpt>
      <trkpt lat="44.33938" lon="2.65623">
        <ele>689.8833008</ele>
        <time>2014-12-14T10:15:04Z</time>
      </trkpt>
      <trkpt lat="44.33943" lon="2.65611">
        <ele>690.3640137</ele>
        <time>2014-12-14T10:15:08Z</time>
      </trkpt>
      <trkpt lat="44.3395" lon="2.65598">
        <ele>690.3640137</ele>
        <time>2014-12-14T10:15:12Z</time>
      </trkpt>
      <trkpt lat="44.33957" lon="2.65581">
        <ele>691.8059082</ele>
        <time>2014-12-14T10:15:17Z</time>
      </trkpt>
      <trkpt lat="44.33964" lon="2.65562">
        <ele>692.2866211</ele>
        <time>2014-12-14T10:15:22Z</time>
      </trkpt>
      <trkpt lat="44.33971" lon="2.65538">
        <ele>694.2092285</ele>
        <time>2014-12-14T10:15:29Z</time>
      </trkpt>
      <trkpt lat="44.33979" lon="2.65508">
        <ele>694.6896973</ele>
        <time>2014-12-14T10:15:37Z</time>
      </trkpt>
      <trkpt lat="44.33987" lon="2.65488">
        <ele>694.2092285</ele>
        <time>2014-12-14T10:15:43Z</time>
      </trkpt>
      <trkpt lat="44.33993" lon="2.65469">
        <ele>692.2866211</ele>
        <time>2014-12-14T10:15:49Z</time>
      </trkpt>
      <trkpt lat="44.34001" lon="2.65449">
        <ele>690.8444824</ele>
        <time>2014-12-14T10:15:55Z</time>
      </trkpt>
      <trkpt lat="44.34009" lon="2.65428">
        <ele>689.8833008</ele>
        <time>2014-12-14T10:16:01Z</time>
      </trkpt>
      <trkpt lat="44.34018" lon="2.65408">
        <ele>688.4414063</ele>
        <time>2014-12-14T10:16:07Z</time>
      </trkpt>
      <trkpt lat="44.34024" lon="2.65395">
        <ele>687.4799805</ele>
        <time>2014-12-14T10:16:11Z</time>
      </trkpt>
      <trkpt lat="44.3403" lon="2.65381">
        <ele>685.557373</ele>
        <time>2014-12-14T10:16:15Z</time>
      </trkpt>
      <trkpt lat="44.34039" lon="2.65365">
        <ele>683.6345215</ele>
        <time>2014-12-14T10:16:20Z</time>
      </trkpt>
      <trkpt lat="44.34049" lon="2.65345">
        <ele>683.1538086</ele>
        <time>2014-12-14T10:16:26Z</time>
      </trkpt>
      <trkpt lat="44.34056" lon="2.65333">
        <ele>682.192627</ele>
        <time>2014-12-14T10:16:30Z</time>
      </trkpt>
      <trkpt lat="44.34066" lon="2.65318">
        <ele>681.7119141</ele>
        <time>2014-12-14T10:16:35Z</time>
      </trkpt>
      <trkpt lat="44.34075" lon="2.65303">
        <ele>681.2314453</ele>
        <time>2014-12-14T10:16:40Z</time>
      </trkpt>
      <trkpt lat="44.34083" lon="2.65292">
        <ele>680.7507324</ele>
        <time>2014-12-14T10:16:44Z</time>
      </trkpt>
      <trkpt lat="44.34092" lon="2.65278">
        <ele>680.2700195</ele>
        <time>2014-12-14T10:16:49Z</time>
      </trkpt>
      <trkpt lat="44.34101" lon="2.65264">
        <ele>679.7893066</ele>
        <time>2014-12-14T10:16:54Z</time>
      </trkpt>
      <trkpt lat="44.3411" lon="2.65249">
        <ele>679.3085938</ele>
        <time>2014-12-14T10:16:59Z</time>
      </trkpt>
      <trkpt lat="44.3412" lon="2.65236">
        <ele>678.828125</ele>
        <time>2014-12-14T10:17:04Z</time>
      </trkpt>
      <trkpt lat="44.3413" lon="2.65223">
        <ele>677.8666992</ele>
        <time>2014-12-14T10:17:09Z</time>
      </trkpt>
      <trkpt lat="44.3414" lon="2.6521">
        <ele>677.8666992</ele>
        <time>2014-12-14T10:17:14Z</time>
      </trkpt>
      <trkpt lat="44.34148" lon="2.65195">
        <ele>676.9055176</ele>
        <time>2014-12-14T10:17:19Z</time>
      </trkpt>
      <trkpt lat="44.3416" lon="2.65177">
        <ele>676.9055176</ele>
        <time>2014-12-14T10:17:25Z</time>
      </trkpt>
      <trkpt lat="44.34169" lon="2.65164">
        <ele>676.4248047</ele>
        <time>2014-12-14T10:17:30Z</time>
      </trkpt>
      <trkpt lat="44.34174" lon="2.65161">
        <ele>676.9055176</ele>
        <time>2014-12-14T10:17:32Z</time>
      </trkpt>
      <trkpt lat="44.34178" lon="2.65149">
        <ele>676.9055176</ele>
        <time>2014-12-14T10:17:36Z</time>
      </trkpt>
      <trkpt lat="44.34175" lon="2.65123">
        <ele>677.8666992</ele>
        <time>2014-12-14T10:17:43Z</time>
      </trkpt>
      <trkpt lat="44.34172" lon="2.65105">
        <ele>678.3474121</ele>
        <time>2014-12-14T10:17:48Z</time>
      </trkpt>
      <trkpt lat="44.3417" lon="2.65086">
        <ele>677.8666992</ele>
        <time>2014-12-14T10:17:53Z</time>
      </trkpt>
      <trkpt lat="44.34166" lon="2.6507">
        <ele>677.3862305</ele>
        <time>2014-12-14T10:17:58Z</time>
      </trkpt>
      <trkpt lat="44.34161" lon="2.65048">
        <ele>676.4248047</ele>
        <time>2014-12-14T10:18:04Z</time>
      </trkpt>
      <trkpt lat="44.34158" lon="2.65029">
        <ele>674.9829102</ele>
        <time>2014-12-14T10:18:09Z</time>
      </trkpt>
      <trkpt lat="44.34156" lon="2.65018">
        <ele>674.5021973</ele>
        <time>2014-12-14T10:18:12Z</time>
      </trkpt>
      <trkpt lat="44.34152" lon="2.64996">
        <ele>672.5795898</ele>
        <time>2014-12-14T10:18:18Z</time>
      </trkpt>
      <trkpt lat="44.34149" lon="2.64973">
        <ele>670.6569824</ele>
        <time>2014-12-14T10:18:24Z</time>
      </trkpt>
      <trkpt lat="44.34148" lon="2.64947">
        <ele>668.2536621</ele>
        <time>2014-12-14T10:18:31Z</time>
      </trkpt>
      <trkpt lat="44.34147" lon="2.64932">
        <ele>667.2922363</ele>
        <time>2014-12-14T10:18:35Z</time>
      </trkpt>
      <trkpt lat="44.34146" lon="2.64918">
        <ele>666.3308105</ele>
        <time>2014-12-14T10:18:39Z</time>
      </trkpt>
      <trkpt lat="44.34145" lon="2.64896">
        <ele>665.8503418</ele>
        <time>2014-12-14T10:18:45Z</time>
      </trkpt>
      <trkpt lat="44.34142" lon="2.6487">
        <ele>665.8503418</ele>
        <time>2014-12-14T10:18:52Z</time>
      </trkpt>
      <trkpt lat="44.34139" lon="2.6485">
        <ele>664.888916</ele>
        <time>2014-12-14T10:18:57Z</time>
      </trkpt>
      <trkpt lat="44.34139" lon="2.64847">
        <ele>664.4082031</ele>
        <time>2014-12-14T10:18:58Z</time>
      </trkpt>
      <trkpt lat="44.34138" lon="2.64839">
        <ele>662.9663086</ele>
        <time>2014-12-14T10:19:02Z</time>
      </trkpt>
      <trkpt lat="44.34137" lon="2.64834">
        <ele>662.9663086</ele>
        <time>2014-12-14T10:19:09Z</time>
      </trkpt>
      <trkpt lat="44.34137" lon="2.64836">
        <ele>663.9274902</ele>
        <time>2014-12-14T10:19:11Z</time>
      </trkpt>
      <trkpt lat="44.34136" lon="2.64848">
        <ele>665.3696289</ele>
        <time>2014-12-14T10:19:16Z</time>
      </trkpt>
      <trkpt lat="44.34138" lon="2.64859">
        <ele>666.3308105</ele>
        <time>2014-12-14T10:19:20Z</time>
      </trkpt>
      <trkpt lat="44.3414" lon="2.64869">
        <ele>667.2922363</ele>
        <time>2014-12-14T10:19:24Z</time>
      </trkpt>
      <trkpt lat="44.34139" lon="2.6487">
        <ele>667.7727051</ele>
        <time>2014-12-14T10:19:30Z</time>
      </trkpt>
      <trkpt lat="44.34139" lon="2.64868">
        <ele>667.7727051</ele>
        <time>2014-12-14T10:19:31Z</time>
      </trkpt>
      <trkpt lat="44.34138" lon="2.6485">
        <ele>666.3308105</ele>
        <time>2014-12-14T10:19:37Z</time>
      </trkpt>
      <trkpt lat="44.34138" lon="2.64844">
        <ele>665.8503418</ele>
        <time>2014-12-14T10:19:39Z</time>
      </trkpt>
      <trkpt lat="44.34137" lon="2.64838">
        <ele>665.3696289</ele>
        <time>2014-12-14T10:19:41Z</time>
      </trkpt>
      <trkpt lat="44.34137" lon="2.64828">
        <ele>663.9274902</ele>
        <time>2014-12-14T10:19:47Z</time>
      </trkpt>
      <trkpt lat="44.34135" lon="2.64817">
        <ele>663.4470215</ele>
        <time>2014-12-14T10:19:52Z</time>
      </trkpt>
      <trkpt lat="44.34135" lon="2.64804">
        <ele>662.4855957</ele>
        <time>2014-12-14T10:19:56Z</time>
      </trkpt>
      <trkpt lat="44.34134" lon="2.64794">
        <ele>661.5244141</ele>
        <time>2014-12-14T10:20:00Z</time>
      </trkpt>
      <trkpt lat="44.34134" lon="2.64787">
        <ele>661.0437012</ele>
        <time>2014-12-14T10:20:02Z</time>
      </trkpt>
      <trkpt lat="44.34134" lon="2.64769">
        <ele>660.5629883</ele>
        <time>2014-12-14T10:20:08Z</time>
      </trkpt>
      <trkpt lat="44.34134" lon="2.64766">
        <ele>660.5629883</ele>
        <time>2014-12-14T10:20:09Z</time>
      </trkpt>
      <trkpt lat="44.34132" lon="2.64754">
        <ele>659.1210938</ele>
        <time>2014-12-14T10:20:13Z</time>
      </trkpt>
      <trkpt lat="44.34131" lon="2.64742">
        <ele>657.6791992</ele>
        <time>2014-12-14T10:20:17Z</time>
      </trkpt>
      <trkpt lat="44.34127" lon="2.64733">
        <ele>657.1984863</ele>
        <time>2014-12-14T10:20:20Z</time>
      </trkpt>
      <trkpt lat="44.34125" lon="2.64726">
        <ele>656.7177734</ele>
        <time>2014-12-14T10:20:22Z</time>
      </trkpt>
      <trkpt lat="44.34117" lon="2.64709">
        <ele>656.2370605</ele>
        <time>2014-12-14T10:20:27Z</time>
      </trkpt>
      <trkpt lat="44.34112" lon="2.64695">
        <ele>656.7177734</ele>
        <time>2014-12-14T10:20:31Z</time>
      </trkpt>
      <trkpt lat="44.34106" lon="2.64679">
        <ele>657.1984863</ele>
        <time>2014-12-14T10:20:36Z</time>
      </trkpt>
      <trkpt lat="44.34105" lon="2.64673">
        <ele>657.1984863</ele>
        <time>2014-12-14T10:20:38Z</time>
      </trkpt>
      <trkpt lat="44.34103" lon="2.64661">
        <ele>656.7177734</ele>
        <time>2014-12-14T10:20:42Z</time>
      </trkpt>
      <trkpt lat="44.341" lon="2.6464">
        <ele>656.2370605</ele>
        <time>2014-12-14T10:20:48Z</time>
      </trkpt>
      <trkpt lat="44.34096" lon="2.64622">
        <ele>656.7177734</ele>
        <time>2014-12-14T10:20:53Z</time>
      </trkpt>
      <trkpt lat="44.34091" lon="2.64606">
        <ele>657.6791992</ele>
        <time>2014-12-14T10:20:58Z</time>
      </trkpt>
      <trkpt lat="44.34087" lon="2.64588">
        <ele>658.1599121</ele>
        <time>2014-12-14T10:21:03Z</time>
      </trkpt>
      <trkpt lat="44.34082" lon="2.64566">
        <ele>658.1599121</ele>
        <time>2014-12-14T10:21:09Z</time>
      </trkpt>
      <trkpt lat="44.34078" lon="2.64548">
        <ele>657.6791992</ele>
        <time>2014-12-14T10:21:14Z</time>
      </trkpt>
      <trkpt lat="44.34075" lon="2.6453">
        <ele>658.6403809</ele>
        <time>2014-12-14T10:21:19Z</time>
      </trkpt>
      <trkpt lat="44.3407" lon="2.64511">
        <ele>659.1210938</ele>
        <time>2014-12-14T10:21:24Z</time>
      </trkpt>
      <trkpt lat="44.34068" lon="2.64487">
        <ele>659.1210938</ele>
        <time>2014-12-14T10:21:30Z</time>
      </trkpt>
      <trkpt lat="44.34069" lon="2.64464">
        <ele>659.1210938</ele>
        <time>2014-12-14T10:21:36Z</time>
      </trkpt>
      <trkpt lat="44.34071" lon="2.64446">
        <ele>658.1599121</ele>
        <time>2014-12-14T10:21:41Z</time>
      </trkpt>
      <trkpt lat="44.34073" lon="2.6443">
        <ele>659.1210938</ele>
        <time>2014-12-14T10:21:45Z</time>
      </trkpt>
      <trkpt lat="44.34071" lon="2.64404">
        <ele>659.6018066</ele>
        <time>2014-12-14T10:21:52Z</time>
      </trkpt>
      <trkpt lat="44.34065" lon="2.64381">
        <ele>659.6018066</ele>
        <time>2014-12-14T10:21:58Z</time>
      </trkpt>
      <trkpt lat="44.34062" lon="2.64361">
        <ele>659.6018066</ele>
        <time>2014-12-14T10:22:03Z</time>
      </trkpt>
      <trkpt lat="44.3406" lon="2.6434">
        <ele>660.0822754</ele>
        <time>2014-12-14T10:22:09Z</time>
      </trkpt>
      <trkpt lat="44.3406" lon="2.64324">
        <ele>660.5629883</ele>
        <time>2014-12-14T10:22:14Z</time>
      </trkpt>
      <trkpt lat="44.34057" lon="2.64297">
        <ele>661.5244141</ele>
        <time>2014-12-14T10:22:21Z</time>
      </trkpt>
      <trkpt lat="44.34055" lon="2.64279">
        <ele>663.4470215</ele>
        <time>2014-12-14T10:22:26Z</time>
      </trkpt>
      <trkpt lat="44.34052" lon="2.64258">
        <ele>665.3696289</ele>
        <time>2014-12-14T10:22:32Z</time>
      </trkpt>
      <trkpt lat="44.34046" lon="2.64244">
        <ele>666.3308105</ele>
        <time>2014-12-14T10:22:36Z</time>
      </trkpt>
      <trkpt lat="44.34037" lon="2.64225">
        <ele>668.2536621</ele>
        <time>2014-12-14T10:22:42Z</time>
      </trkpt>
      <trkpt lat="44.3403" lon="2.64208">
        <ele>668.734375</ele>
        <time>2014-12-14T10:22:47Z</time>
      </trkpt>
      <trkpt lat="44.34023" lon="2.64194">
        <ele>667.7727051</ele>
        <time>2014-12-14T10:22:51Z</time>
      </trkpt>
      <trkpt lat="44.34018" lon="2.64178">
        <ele>667.2922363</ele>
        <time>2014-12-14T10:22:56Z</time>
      </trkpt>
      <trkpt lat="44.3401" lon="2.64162">
        <ele>667.2922363</ele>
        <time>2014-12-14T10:23:01Z</time>
      </trkpt>
      <trkpt lat="44.34003" lon="2.64145">
        <ele>667.7727051</ele>
        <time>2014-12-14T10:23:06Z</time>
      </trkpt>
      <trkpt lat="44.33995" lon="2.64126">
        <ele>667.2922363</ele>
        <time>2014-12-14T10:23:12Z</time>
      </trkpt>
      <trkpt lat="44.33991" lon="2.64117">
        <ele>666.3308105</ele>
        <time>2014-12-14T10:23:15Z</time>
      </trkpt>
      <trkpt lat="44.33979" lon="2.64114">
        <ele>666.8115234</ele>
        <time>2014-12-14T10:23:20Z</time>
      </trkpt>
      <trkpt lat="44.33976" lon="2.64115">
        <ele>666.8115234</ele>
        <time>2014-12-14T10:23:21Z</time>
      </trkpt>
      <trkpt lat="44.3396" lon="2.64115">
        <ele>667.2922363</ele>
        <time>2014-12-14T10:23:27Z</time>
      </trkpt>
      <trkpt lat="44.33944" lon="2.64115">
        <ele>667.7727051</ele>
        <time>2014-12-14T10:23:33Z</time>
      </trkpt>
      <trkpt lat="44.33929" lon="2.64116">
        <ele>667.2922363</ele>
        <time>2014-12-14T10:23:38Z</time>
      </trkpt>
      <trkpt lat="44.33912" lon="2.64116">
        <ele>667.2922363</ele>
        <time>2014-12-14T10:23:44Z</time>
      </trkpt>
      <trkpt lat="44.33897" lon="2.64117">
        <ele>666.8115234</ele>
        <time>2014-12-14T10:23:49Z</time>
      </trkpt>
      <trkpt lat="44.33883" lon="2.64113">
        <ele>666.8115234</ele>
        <time>2014-12-14T10:23:54Z</time>
      </trkpt>
      <trkpt lat="44.33881" lon="2.64112">
        <ele>666.8115234</ele>
        <time>2014-12-14T10:23:55Z</time>
      </trkpt>
      <trkpt lat="44.33873" lon="2.64096">
        <ele>666.8115234</ele>
        <time>2014-12-14T10:24:00Z</time>
      </trkpt>
      <trkpt lat="44.33874" lon="2.64083">
        <ele>666.3308105</ele>
        <time>2014-12-14T10:24:03Z</time>
      </trkpt>
      <trkpt lat="44.33873" lon="2.64057">
        <ele>665.3696289</ele>
        <time>2014-12-14T10:24:09Z</time>
      </trkpt>
      <trkpt lat="44.3387" lon="2.64033">
        <ele>665.3696289</ele>
        <time>2014-12-14T10:24:15Z</time>
      </trkpt>
      <trkpt lat="44.33867" lon="2.6401">
        <ele>665.3696289</ele>
        <time>2014-12-14T10:24:21Z</time>
      </trkpt>
      <trkpt lat="44.33865" lon="2.63993">
        <ele>666.3308105</ele>
        <time>2014-12-14T10:24:26Z</time>
      </trkpt>
      <trkpt lat="44.33865" lon="2.63987">
        <ele>666.8115234</ele>
        <time>2014-12-14T10:24:28Z</time>
      </trkpt>
      <trkpt lat="44.33861" lon="2.63987">
        <ele>666.8115234</ele>
        <time>2014-12-14T10:24:32Z</time>
      </trkpt>
      <trkpt lat="44.33846" lon="2.64005">
        <ele>665.8503418</ele>
        <time>2014-12-14T10:24:39Z</time>
      </trkpt>
      <trkpt lat="44.33836" lon="2.64014">
        <ele>665.8503418</ele>
        <time>2014-12-14T10:24:43Z</time>
      </trkpt>
      <trkpt lat="44.33822" lon="2.64024">
        <ele>664.4082031</ele>
        <time>2014-12-14T10:24:48Z</time>
      </trkpt>
      <trkpt lat="44.33808" lon="2.64033">
        <ele>662.9663086</ele>
        <time>2014-12-14T10:24:53Z</time>
      </trkpt>
      <trkpt lat="44.33795" lon="2.64042">
        <ele>661.5244141</ele>
        <time>2014-12-14T10:24:58Z</time>
      </trkpt>
      <trkpt lat="44.33781" lon="2.64047">
        <ele>659.1210938</ele>
        <time>2014-12-14T10:25:03Z</time>
      </trkpt>
      <trkpt lat="44.3377" lon="2.6404">
        <ele>657.6791992</ele>
        <time>2014-12-14T10:25:07Z</time>
      </trkpt>
      <trkpt lat="44.33754" lon="2.64029">
        <ele>656.7177734</ele>
        <time>2014-12-14T10:25:13Z</time>
      </trkpt>
      <trkpt lat="44.33743" lon="2.64024">
        <ele>656.2370605</ele>
        <time>2014-12-14T10:25:17Z</time>
      </trkpt>
      <trkpt lat="44.33733" lon="2.64011">
        <ele>655.7565918</ele>
        <time>2014-12-14T10:25:22Z</time>
      </trkpt>
      <trkpt lat="44.33727" lon="2.63997">
        <ele>655.7565918</ele>
        <time>2014-12-14T10:25:27Z</time>
      </trkpt>
      <trkpt lat="44.33726" lon="2.63994">
        <ele>655.7565918</ele>
        <time>2014-12-14T10:25:30Z</time>
      </trkpt>
      <trkpt lat="44.33726" lon="2.63993">
        <ele>655.2758789</ele>
        <time>2014-12-14T10:25:38Z</time>
      </trkpt>
      <trkpt lat="44.33725" lon="2.63989">
        <ele>654.795166</ele>
        <time>2014-12-14T10:25:41Z</time>
      </trkpt>
      <trkpt lat="44.33717" lon="2.63967">
        <ele>655.7565918</ele>
        <time>2014-12-14T10:25:49Z</time>
      </trkpt>
      <trkpt lat="44.33714" lon="2.63959">
        <ele>655.7565918</ele>
        <time>2014-12-14T10:25:51Z</time>
      </trkpt>
      <trkpt lat="44.3371" lon="2.63939">
        <ele>654.3146973</ele>
        <time>2014-12-14T10:25:57Z</time>
      </trkpt>
      <trkpt lat="44.33705" lon="2.63918">
        <ele>653.8339844</ele>
        <time>2014-12-14T10:26:03Z</time>
      </trkpt>
      <trkpt lat="44.33703" lon="2.6391">
        <ele>653.8339844</ele>
        <time>2014-12-14T10:26:07Z</time>
      </trkpt>
      <trkpt lat="44.33701" lon="2.63904">
        <ele>653.3532715</ele>
        <time>2014-12-14T10:26:14Z</time>
      </trkpt>
      <trkpt lat="44.33696" lon="2.63887">
        <ele>653.3532715</ele>
        <time>2014-12-14T10:26:19Z</time>
      </trkpt>
      <trkpt lat="44.33689" lon="2.63868">
        <ele>654.3146973</ele>
        <time>2014-12-14T10:26:24Z</time>
      </trkpt>
      <trkpt lat="44.33683" lon="2.63847">
        <ele>655.2758789</ele>
        <time>2014-12-14T10:26:30Z</time>
      </trkpt>
      <trkpt lat="44.33678" lon="2.63829">
        <ele>655.7565918</ele>
        <time>2014-12-14T10:26:35Z</time>
      </trkpt>
      <trkpt lat="44.33673" lon="2.63807">
        <ele>655.7565918</ele>
        <time>2014-12-14T10:26:41Z</time>
      </trkpt>
      <trkpt lat="44.33668" lon="2.63789">
        <ele>654.795166</ele>
        <time>2014-12-14T10:26:46Z</time>
      </trkpt>
      <trkpt lat="44.33662" lon="2.63768">
        <ele>654.3146973</ele>
        <time>2014-12-14T10:26:52Z</time>
      </trkpt>
      <trkpt lat="44.33656" lon="2.6375">
        <ele>654.3146973</ele>
        <time>2014-12-14T10:26:57Z</time>
      </trkpt>
      <trkpt lat="44.33648" lon="2.63729">
        <ele>653.3532715</ele>
        <time>2014-12-14T10:27:03Z</time>
      </trkpt>
      <trkpt lat="44.3364" lon="2.63712">
        <ele>652.3918457</ele>
        <time>2014-12-14T10:27:08Z</time>
      </trkpt>
      <trkpt lat="44.33629" lon="2.63697">
        <ele>652.3918457</ele>
        <time>2014-12-14T10:27:13Z</time>
      </trkpt>
      <trkpt lat="44.33612" lon="2.63678">
        <ele>651.9111328</ele>
        <time>2014-12-14T10:27:21Z</time>
      </trkpt>
      <trkpt lat="44.33602" lon="2.63665">
        <ele>651.9111328</ele>
        <time>2014-12-14T10:27:26Z</time>
      </trkpt>
      <trkpt lat="44.33591" lon="2.63653">
        <ele>651.4304199</ele>
        <time>2014-12-14T10:27:31Z</time>
      </trkpt>
      <trkpt lat="44.33579" lon="2.63636">
        <ele>652.3918457</ele>
        <time>2014-12-14T10:27:37Z</time>
      </trkpt>
      <trkpt lat="44.33573" lon="2.63627">
        <ele>652.3918457</ele>
        <time>2014-12-14T10:27:40Z</time>
      </trkpt>
      <trkpt lat="44.33564" lon="2.6361">
        <ele>652.3918457</ele>
        <time>2014-12-14T10:27:45Z</time>
      </trkpt>
      <trkpt lat="44.33556" lon="2.63588">
        <ele>652.3918457</ele>
        <time>2014-12-14T10:27:51Z</time>
      </trkpt>
      <trkpt lat="44.33549" lon="2.63567">
        <ele>651.4304199</ele>
        <time>2014-12-14T10:27:57Z</time>
      </trkpt>
      <trkpt lat="44.33539" lon="2.63544">
        <ele>649.0270996</ele>
        <time>2014-12-14T10:28:04Z</time>
      </trkpt>
      <trkpt lat="44.33527" lon="2.63525">
        <ele>646.6240234</ele>
        <time>2014-12-14T10:28:10Z</time>
      </trkpt>
      <trkpt lat="44.33513" lon="2.63511">
        <ele>643.2592773</ele>
        <time>2014-12-14T10:28:16Z</time>
      </trkpt>
      <trkpt lat="44.3351" lon="2.63493">
        <ele>641.8173828</ele>
        <time>2014-12-14T10:28:21Z</time>
      </trkpt>
      <trkpt lat="44.33509" lon="2.63471">
        <ele>640.855957</ele>
        <time>2014-12-14T10:28:27Z</time>
      </trkpt>
      <trkpt lat="44.33509" lon="2.63463">
        <ele>640.855957</ele>
        <time>2014-12-14T10:28:29Z</time>
      </trkpt>
      <trkpt lat="44.33504" lon="2.63439">
        <ele>639.8947754</ele>
        <time>2014-12-14T10:28:35Z</time>
      </trkpt>
      <trkpt lat="44.33501" lon="2.63425">
        <ele>638.9335938</ele>
        <time>2014-12-14T10:28:39Z</time>
      </trkpt>
      <trkpt lat="44.33499" lon="2.6341">
        <ele>637.0107422</ele>
        <time>2014-12-14T10:28:43Z</time>
      </trkpt>
      <trkpt lat="44.33493" lon="2.63389">
        <ele>636.0495605</ele>
        <time>2014-12-14T10:28:48Z</time>
      </trkpt>
      <trkpt lat="44.33493" lon="2.6337">
        <ele>635.0881348</ele>
        <time>2014-12-14T10:28:53Z</time>
      </trkpt>
      <trkpt lat="44.33494" lon="2.63347">
        <ele>633.6459961</ele>
        <time>2014-12-14T10:28:59Z</time>
      </trkpt>
      <trkpt lat="44.33492" lon="2.63331">
        <ele>632.2041016</ele>
        <time>2014-12-14T10:29:03Z</time>
      </trkpt>
      <trkpt lat="44.33492" lon="2.63311">
        <ele>631.2429199</ele>
        <time>2014-12-14T10:29:08Z</time>
      </trkpt>
      <trkpt lat="44.33496" lon="2.63295">
        <ele>632.6848145</ele>
        <time>2014-12-14T10:29:12Z</time>
      </trkpt>
      <trkpt lat="44.33499" lon="2.63278">
        <ele>633.1652832</ele>
        <time>2014-12-14T10:29:17Z</time>
      </trkpt>
      <trkpt lat="44.33504" lon="2.63261">
        <ele>633.1652832</ele>
        <time>2014-12-14T10:29:22Z</time>
      </trkpt>
      <trkpt lat="44.33511" lon="2.63243">
        <ele>632.6848145</ele>
        <time>2014-12-14T10:29:28Z</time>
      </trkpt>
      <trkpt lat="44.33516" lon="2.63222">
        <ele>633.1652832</ele>
        <time>2014-12-14T10:29:34Z</time>
      </trkpt>
      <trkpt lat="44.33521" lon="2.63204">
        <ele>634.126709</ele>
        <time>2014-12-14T10:29:39Z</time>
      </trkpt>
      <trkpt lat="44.33525" lon="2.63191">
        <ele>634.126709</ele>
        <time>2014-12-14T10:29:43Z</time>
      </trkpt>
      <trkpt lat="44.3353" lon="2.6317">
        <ele>634.126709</ele>
        <time>2014-12-14T10:29:49Z</time>
      </trkpt>
      <trkpt lat="44.33536" lon="2.63153">
        <ele>634.6074219</ele>
        <time>2014-12-14T10:29:54Z</time>
      </trkpt>
      <trkpt lat="44.33544" lon="2.63133">
        <ele>635.5686035</ele>
        <time>2014-12-14T10:30:00Z</time>
      </trkpt>
      <trkpt lat="44.33551" lon="2.63113">
        <ele>636.5302734</ele>
        <time>2014-12-14T10:30:06Z</time>
      </trkpt>
      <trkpt lat="44.33555" lon="2.63096">
        <ele>638.4528809</ele>
        <time>2014-12-14T10:30:11Z</time>
      </trkpt>
      <trkpt lat="44.33561" lon="2.63079">
        <ele>638.4528809</ele>
        <time>2014-12-14T10:30:16Z</time>
      </trkpt>
      <trkpt lat="44.33564" lon="2.63066">
        <ele>637.0107422</ele>
        <time>2014-12-14T10:30:20Z</time>
      </trkpt>
      <trkpt lat="44.33566" lon="2.63045">
        <ele>636.5302734</ele>
        <time>2014-12-14T10:30:26Z</time>
      </trkpt>
      <trkpt lat="44.33567" lon="2.63042">
        <ele>637.0107422</ele>
        <time>2014-12-14T10:30:27Z</time>
      </trkpt>
      <trkpt lat="44.33573" lon="2.63032">
        <ele>638.4528809</ele>
        <time>2014-12-14T10:30:32Z</time>
      </trkpt>
      <trkpt lat="44.33572" lon="2.63022">
        <ele>638.4528809</ele>
        <time>2014-12-14T10:30:35Z</time>
      </trkpt>
      <trkpt lat="44.33572" lon="2.63019">
        <ele>638.9335938</ele>
        <time>2014-12-14T10:30:36Z</time>
      </trkpt>
      <trkpt lat="44.33572" lon="2.62999">
        <ele>638.4528809</ele>
        <time>2014-12-14T10:30:42Z</time>
      </trkpt>
      <trkpt lat="44.33571" lon="2.62982">
        <ele>638.4528809</ele>
        <time>2014-12-14T10:30:47Z</time>
      </trkpt>
      <trkpt lat="44.3357" lon="2.62975">
        <ele>637.972168</ele>
        <time>2014-12-14T10:30:49Z</time>
      </trkpt>
      <trkpt lat="44.33571" lon="2.62957">
        <ele>638.9335938</ele>
        <time>2014-12-14T10:30:54Z</time>
      </trkpt>
      <trkpt lat="44.33568" lon="2.62944">
        <ele>639.8947754</ele>
        <time>2014-12-14T10:30:59Z</time>
      </trkpt>
    </trkseg>
  </trk>
</gpx>